<?xml version="1.0" encoding="UTF-8" standalone="no" ?>
<gpx xmlns="http://www.topografix.com/GPX/1/1" xmlns:xsi="http://www.w3.org/2001/XMLSchema-instance" xsi:schemaLocation="http://www.topografix.com/GPX/1/1 http://www.topografix.com/GPX/1/1/gpx.xsd" version="1.1" creator="VisuGPX - https://www.visugpx.com">
  <metadata>
    <name>Charreire - Puy du Sancy</name>
    <desc><![CDATA[2015-08 - Chareire - la Morangie - Fontaine Salée - Puy Gros - col de la Geneste

[b]album[/b] : [url]https://goo.gl/photos/KrbCUa3PqEP8d4WE8[/url]
[img]https://4.bp.blogspot.com/-5ef_dpLFfGE/WMrOVVMIalI/AAAAAAAAQzQ/L3kbBk9EpNYxwc2g1Yvsh2pXSwe1TM6zgCLcB/s1600/2015-08_volcans-Auvergne_Photos_i3.jpg[/img]
[b]Idées de randonnées dans la même région[/b]
Parcours : [url]https://www.visugpx.com/membres/24856/montagne/massif-central/[/url]
Photos : [url]https://jcvertygo.blogspot.com/p/massif-central.html[/url]]]></desc>
  </metadata>
  <trk>
    <name><![CDATA[Charreire - Puy du Sancy_1]]></name>
    <trkseg>
      <trkpt lat="45.48383" lon="2.77892">
        <ele>1172.1</ele>
        <time>2015-08-20T07:26:46Z</time>
      </trkpt>
      <trkpt lat="45.48383" lon="2.77898">
        <ele>1172.1</ele>
        <time>2015-08-20T07:26:51Z</time>
      </trkpt>
      <trkpt lat="45.48383" lon="2.77894">
        <ele>1172.1</ele>
        <time>2015-08-20T07:27:26Z</time>
      </trkpt>
      <trkpt lat="45.48383" lon="2.77886">
        <ele>1172.457</ele>
        <time>2015-08-20T07:27:31Z</time>
      </trkpt>
      <trkpt lat="45.48381" lon="2.77879">
        <ele>1172.457</ele>
        <time>2015-08-20T07:27:36Z</time>
      </trkpt>
      <trkpt lat="45.48377" lon="2.77872">
        <ele>1178.3792</ele>
        <time>2015-08-20T07:27:41Z</time>
      </trkpt>
      <trkpt lat="45.48373" lon="2.77866">
        <ele>1178.3792</ele>
        <time>2015-08-20T07:27:46Z</time>
      </trkpt>
      <trkpt lat="45.48366" lon="2.77858">
        <ele>1184.3728</ele>
        <time>2015-08-20T07:27:51Z</time>
      </trkpt>
      <trkpt lat="45.48362" lon="2.77852">
        <ele>1184.3728</ele>
        <time>2015-08-20T07:27:56Z</time>
      </trkpt>
      <trkpt lat="45.48359" lon="2.77844">
        <ele>1190.2683</ele>
        <time>2015-08-20T07:28:01Z</time>
      </trkpt>
      <trkpt lat="45.48358" lon="2.77837">
        <ele>1190.2683</ele>
        <time>2015-08-20T07:28:06Z</time>
      </trkpt>
      <trkpt lat="45.48356" lon="2.7783">
        <ele>1195.8574</ele>
        <time>2015-08-20T07:28:11Z</time>
      </trkpt>
      <trkpt lat="45.48356" lon="2.77823">
        <ele>1195.8574</ele>
        <time>2015-08-20T07:28:16Z</time>
      </trkpt>
      <trkpt lat="45.48354" lon="2.77819">
        <ele>1195.8574</ele>
        <time>2015-08-20T07:28:21Z</time>
      </trkpt>
      <trkpt lat="45.48352" lon="2.77813">
        <ele>1201.0166</ele>
        <time>2015-08-20T07:28:26Z</time>
      </trkpt>
      <trkpt lat="45.48349" lon="2.7781">
        <ele>1201.0166</ele>
        <time>2015-08-20T07:28:31Z</time>
      </trkpt>
      <trkpt lat="45.48348" lon="2.77804">
        <ele>1201.0166</ele>
        <time>2015-08-20T07:28:36Z</time>
      </trkpt>
      <trkpt lat="45.48346" lon="2.77796">
        <ele>1205.6038</ele>
        <time>2015-08-20T07:28:41Z</time>
      </trkpt>
      <trkpt lat="45.48343" lon="2.77789">
        <ele>1205.6038</ele>
        <time>2015-08-20T07:28:46Z</time>
      </trkpt>
      <trkpt lat="45.48342" lon="2.7778">
        <ele>1209.4515</ele>
        <time>2015-08-20T07:28:51Z</time>
      </trkpt>
      <trkpt lat="45.48339" lon="2.77771">
        <ele>1209.4515</ele>
        <time>2015-08-20T07:28:56Z</time>
      </trkpt>
      <trkpt lat="45.48336" lon="2.77762">
        <ele>1212.4705</ele>
        <time>2015-08-20T07:29:01Z</time>
      </trkpt>
      <trkpt lat="45.48333" lon="2.77755">
        <ele>1212.4705</ele>
        <time>2015-08-20T07:29:06Z</time>
      </trkpt>
      <trkpt lat="45.48328" lon="2.77749">
        <ele>1214.6191</ele>
        <time>2015-08-20T07:29:11Z</time>
      </trkpt>
      <trkpt lat="45.48325" lon="2.77742">
        <ele>1214.6191</ele>
        <time>2015-08-20T07:29:16Z</time>
      </trkpt>
      <trkpt lat="45.48322" lon="2.77736">
        <ele>1215.9867</ele>
        <time>2015-08-20T07:29:21Z</time>
      </trkpt>
      <trkpt lat="45.48315" lon="2.77732">
        <ele>1215.9867</ele>
        <time>2015-08-20T07:29:26Z</time>
      </trkpt>
      <trkpt lat="45.48311" lon="2.77726">
        <ele>1216.4897</ele>
        <time>2015-08-20T07:29:31Z</time>
      </trkpt>
      <trkpt lat="45.48305" lon="2.7772">
        <ele>1216.4897</ele>
        <time>2015-08-20T07:29:36Z</time>
      </trkpt>
      <trkpt lat="45.48301" lon="2.77715">
        <ele>1216.2733</ele>
        <time>2015-08-20T07:29:41Z</time>
      </trkpt>
      <trkpt lat="45.48301" lon="2.77713">
        <ele>1216.2733</ele>
        <time>2015-08-20T07:29:46Z</time>
      </trkpt>
      <trkpt lat="45.483" lon="2.77713">
        <ele>1216.2733</ele>
        <time>2015-08-20T07:29:51Z</time>
      </trkpt>
      <trkpt lat="45.48305" lon="2.77714">
        <ele>1216.2733</ele>
        <time>2015-08-20T07:29:56Z</time>
      </trkpt>
      <trkpt lat="45.4831" lon="2.77714">
        <ele>1215.5928</ele>
        <time>2015-08-20T07:30:01Z</time>
      </trkpt>
      <trkpt lat="45.48313" lon="2.7771">
        <ele>1215.5928</ele>
        <time>2015-08-20T07:30:06Z</time>
      </trkpt>
      <trkpt lat="45.48313" lon="2.77703">
        <ele>1214.8047</ele>
        <time>2015-08-20T07:30:11Z</time>
      </trkpt>
      <trkpt lat="45.48314" lon="2.77696">
        <ele>1214.8047</ele>
        <time>2015-08-20T07:30:16Z</time>
      </trkpt>
      <trkpt lat="45.48315" lon="2.77687">
        <ele>1213.6147</ele>
        <time>2015-08-20T07:30:21Z</time>
      </trkpt>
      <trkpt lat="45.48317" lon="2.77681">
        <ele>1213.6147</ele>
        <time>2015-08-20T07:30:26Z</time>
      </trkpt>
      <trkpt lat="45.48314" lon="2.77676">
        <ele>1212.2775</ele>
        <time>2015-08-20T07:30:31Z</time>
      </trkpt>
      <trkpt lat="45.48314" lon="2.77668">
        <ele>1212.2775</ele>
        <time>2015-08-20T07:30:36Z</time>
      </trkpt>
      <trkpt lat="45.48316" lon="2.77654">
        <ele>1210.912</ele>
        <time>2015-08-20T07:30:41Z</time>
      </trkpt>
      <trkpt lat="45.48316" lon="2.77643">
        <ele>1210.912</ele>
        <time>2015-08-20T07:30:46Z</time>
      </trkpt>
      <trkpt lat="45.48311" lon="2.77633">
        <ele>1209.5809</ele>
        <time>2015-08-20T07:30:51Z</time>
      </trkpt>
      <trkpt lat="45.48311" lon="2.77623">
        <ele>1209.5809</ele>
        <time>2015-08-20T07:30:56Z</time>
      </trkpt>
      <trkpt lat="45.48311" lon="2.77614">
        <ele>1208.3295</ele>
        <time>2015-08-20T07:31:01Z</time>
      </trkpt>
      <trkpt lat="45.48316" lon="2.77609">
        <ele>1208.3295</ele>
        <time>2015-08-20T07:31:06Z</time>
      </trkpt>
      <trkpt lat="45.48319" lon="2.77598">
        <ele>1207.0186</ele>
        <time>2015-08-20T07:31:11Z</time>
      </trkpt>
      <trkpt lat="45.48321" lon="2.77592">
        <ele>1207.0186</ele>
        <time>2015-08-20T07:31:16Z</time>
      </trkpt>
      <trkpt lat="45.48321" lon="2.77587">
        <ele>1207.0186</ele>
        <time>2015-08-20T07:31:21Z</time>
      </trkpt>
      <trkpt lat="45.48323" lon="2.77582">
        <ele>1205.5055</ele>
        <time>2015-08-20T07:31:26Z</time>
      </trkpt>
      <trkpt lat="45.48329" lon="2.7758">
        <ele>1205.5055</ele>
        <time>2015-08-20T07:31:31Z</time>
      </trkpt>
      <trkpt lat="45.48334" lon="2.77578">
        <ele>1203.9761</ele>
        <time>2015-08-20T07:31:36Z</time>
      </trkpt>
      <trkpt lat="45.4834" lon="2.77575">
        <ele>1203.9761</ele>
        <time>2015-08-20T07:31:41Z</time>
      </trkpt>
      <trkpt lat="45.48347" lon="2.77574">
        <ele>1202.4109</ele>
        <time>2015-08-20T07:31:46Z</time>
      </trkpt>
      <trkpt lat="45.48353" lon="2.77574">
        <ele>1202.4109</ele>
        <time>2015-08-20T07:31:51Z</time>
      </trkpt>
      <trkpt lat="45.48359" lon="2.77573">
        <ele>1200.6875</ele>
        <time>2015-08-20T07:31:56Z</time>
      </trkpt>
      <trkpt lat="45.48365" lon="2.77572">
        <ele>1200.6875</ele>
        <time>2015-08-20T07:32:01Z</time>
      </trkpt>
      <trkpt lat="45.48371" lon="2.7757">
        <ele>1198.9111</ele>
        <time>2015-08-20T07:32:06Z</time>
      </trkpt>
      <trkpt lat="45.48377" lon="2.77565">
        <ele>1198.9111</ele>
        <time>2015-08-20T07:32:11Z</time>
      </trkpt>
      <trkpt lat="45.48381" lon="2.77563">
        <ele>1196.7454</ele>
        <time>2015-08-20T07:32:16Z</time>
      </trkpt>
      <trkpt lat="45.48386" lon="2.7756">
        <ele>1196.7454</ele>
        <time>2015-08-20T07:32:21Z</time>
      </trkpt>
      <trkpt lat="45.48392" lon="2.77555">
        <ele>1194.5796</ele>
        <time>2015-08-20T07:32:26Z</time>
      </trkpt>
      <trkpt lat="45.48397" lon="2.77551">
        <ele>1194.5796</ele>
        <time>2015-08-20T07:32:31Z</time>
      </trkpt>
      <trkpt lat="45.48403" lon="2.77549">
        <ele>1192.3838</ele>
        <time>2015-08-20T07:32:36Z</time>
      </trkpt>
      <trkpt lat="45.48408" lon="2.77543">
        <ele>1192.3838</ele>
        <time>2015-08-20T07:32:41Z</time>
      </trkpt>
      <trkpt lat="45.48413" lon="2.77539">
        <ele>1190.1586</ele>
        <time>2015-08-20T07:32:46Z</time>
      </trkpt>
      <trkpt lat="45.48418" lon="2.77534">
        <ele>1190.1586</ele>
        <time>2015-08-20T07:32:51Z</time>
      </trkpt>
      <trkpt lat="45.48424" lon="2.77529">
        <ele>1187.919</ele>
        <time>2015-08-20T07:32:56Z</time>
      </trkpt>
      <trkpt lat="45.4843" lon="2.77525">
        <ele>1187.919</ele>
        <time>2015-08-20T07:33:01Z</time>
      </trkpt>
      <trkpt lat="45.48433" lon="2.77522">
        <ele>1185.693</ele>
        <time>2015-08-20T07:33:06Z</time>
      </trkpt>
      <trkpt lat="45.48433" lon="2.77522">
        <ele>1185.693</ele>
        <time>2015-08-20T07:33:11Z</time>
      </trkpt>
      <trkpt lat="45.48435" lon="2.77521">
        <ele>1185.693</ele>
        <time>2015-08-20T07:33:46Z</time>
      </trkpt>
      <trkpt lat="45.48439" lon="2.77517">
        <ele>1185.693</ele>
        <time>2015-08-20T07:33:51Z</time>
      </trkpt>
      <trkpt lat="45.48445" lon="2.77513">
        <ele>1183.4946</ele>
        <time>2015-08-20T07:33:56Z</time>
      </trkpt>
      <trkpt lat="45.48451" lon="2.77511">
        <ele>1183.4946</ele>
        <time>2015-08-20T07:34:01Z</time>
      </trkpt>
      <trkpt lat="45.48456" lon="2.77511">
        <ele>1181.491</ele>
        <time>2015-08-20T07:34:06Z</time>
      </trkpt>
      <trkpt lat="45.48461" lon="2.77512">
        <ele>1181.491</ele>
        <time>2015-08-20T07:34:11Z</time>
      </trkpt>
      <trkpt lat="45.48466" lon="2.77512">
        <ele>1179.8823</ele>
        <time>2015-08-20T07:34:16Z</time>
      </trkpt>
      <trkpt lat="45.48472" lon="2.77513">
        <ele>1179.8823</ele>
        <time>2015-08-20T07:34:21Z</time>
      </trkpt>
      <trkpt lat="45.48477" lon="2.77516">
        <ele>1178.7892</ele>
        <time>2015-08-20T07:34:26Z</time>
      </trkpt>
      <trkpt lat="45.48481" lon="2.77522">
        <ele>1178.7892</ele>
        <time>2015-08-20T07:34:31Z</time>
      </trkpt>
      <trkpt lat="45.48481" lon="2.77527">
        <ele>1178.0164</ele>
        <time>2015-08-20T07:34:36Z</time>
      </trkpt>
      <trkpt lat="45.48482" lon="2.77534">
        <ele>1178.0164</ele>
        <time>2015-08-20T07:34:41Z</time>
      </trkpt>
      <trkpt lat="45.48483" lon="2.77541">
        <ele>1177.5217</ele>
        <time>2015-08-20T07:34:46Z</time>
      </trkpt>
      <trkpt lat="45.48486" lon="2.77547">
        <ele>1177.5217</ele>
        <time>2015-08-20T07:34:51Z</time>
      </trkpt>
      <trkpt lat="45.4849" lon="2.77553">
        <ele>1177.2083</ele>
        <time>2015-08-20T07:34:56Z</time>
      </trkpt>
      <trkpt lat="45.48493" lon="2.77557">
        <ele>1177.2083</ele>
        <time>2015-08-20T07:35:01Z</time>
      </trkpt>
      <trkpt lat="45.48494" lon="2.77562">
        <ele>1177.2083</ele>
        <time>2015-08-20T07:35:06Z</time>
      </trkpt>
      <trkpt lat="45.48496" lon="2.7757">
        <ele>1177.1703</ele>
        <time>2015-08-20T07:35:11Z</time>
      </trkpt>
      <trkpt lat="45.48497" lon="2.77577">
        <ele>1177.1703</ele>
        <time>2015-08-20T07:35:16Z</time>
      </trkpt>
      <trkpt lat="45.48496" lon="2.77585">
        <ele>1177.3082</ele>
        <time>2015-08-20T07:35:21Z</time>
      </trkpt>
      <trkpt lat="45.48499" lon="2.77591">
        <ele>1177.3082</ele>
        <time>2015-08-20T07:35:26Z</time>
      </trkpt>
      <trkpt lat="45.485" lon="2.77598">
        <ele>1177.5991</ele>
        <time>2015-08-20T07:35:31Z</time>
      </trkpt>
      <trkpt lat="45.48502" lon="2.77605">
        <ele>1177.5991</ele>
        <time>2015-08-20T07:35:36Z</time>
      </trkpt>
      <trkpt lat="45.48504" lon="2.77612">
        <ele>1177.9619</ele>
        <time>2015-08-20T07:35:41Z</time>
      </trkpt>
      <trkpt lat="45.48505" lon="2.77616">
        <ele>1177.9619</ele>
        <time>2015-08-20T07:35:46Z</time>
      </trkpt>
      <trkpt lat="45.48508" lon="2.77624">
        <ele>1178.3041</ele>
        <time>2015-08-20T07:36:16Z</time>
      </trkpt>
      <trkpt lat="45.48509" lon="2.77632">
        <ele>1178.3041</ele>
        <time>2015-08-20T07:36:21Z</time>
      </trkpt>
      <trkpt lat="45.48512" lon="2.77639">
        <ele>1178.5975</ele>
        <time>2015-08-20T07:36:26Z</time>
      </trkpt>
      <trkpt lat="45.48515" lon="2.77648">
        <ele>1178.5975</ele>
        <time>2015-08-20T07:36:31Z</time>
      </trkpt>
      <trkpt lat="45.48518" lon="2.77654">
        <ele>1178.8752</ele>
        <time>2015-08-20T07:36:36Z</time>
      </trkpt>
      <trkpt lat="45.4852" lon="2.7766">
        <ele>1178.8752</ele>
        <time>2015-08-20T07:36:41Z</time>
      </trkpt>
      <trkpt lat="45.48522" lon="2.77667">
        <ele>1179.1982</ele>
        <time>2015-08-20T07:36:46Z</time>
      </trkpt>
      <trkpt lat="45.48526" lon="2.77675">
        <ele>1179.1982</ele>
        <time>2015-08-20T07:36:51Z</time>
      </trkpt>
      <trkpt lat="45.48529" lon="2.77682">
        <ele>1179.5336</ele>
        <time>2015-08-20T07:36:56Z</time>
      </trkpt>
      <trkpt lat="45.48532" lon="2.77689">
        <ele>1179.5336</ele>
        <time>2015-08-20T07:37:01Z</time>
      </trkpt>
      <trkpt lat="45.48535" lon="2.77695">
        <ele>1179.925</ele>
        <time>2015-08-20T07:37:06Z</time>
      </trkpt>
      <trkpt lat="45.48539" lon="2.77701">
        <ele>1179.925</ele>
        <time>2015-08-20T07:37:11Z</time>
      </trkpt>
      <trkpt lat="45.48543" lon="2.77707">
        <ele>1180.4133</ele>
        <time>2015-08-20T07:37:16Z</time>
      </trkpt>
      <trkpt lat="45.48547" lon="2.77714">
        <ele>1180.4133</ele>
        <time>2015-08-20T07:37:21Z</time>
      </trkpt>
      <trkpt lat="45.48552" lon="2.7772">
        <ele>1181.0359</ele>
        <time>2015-08-20T07:37:26Z</time>
      </trkpt>
      <trkpt lat="45.48557" lon="2.77724">
        <ele>1181.0359</ele>
        <time>2015-08-20T07:37:31Z</time>
      </trkpt>
      <trkpt lat="45.48562" lon="2.77729">
        <ele>1181.7809</ele>
        <time>2015-08-20T07:37:36Z</time>
      </trkpt>
      <trkpt lat="45.48567" lon="2.77734">
        <ele>1181.7809</ele>
        <time>2015-08-20T07:37:41Z</time>
      </trkpt>
      <trkpt lat="45.4857" lon="2.7774">
        <ele>1182.5919</ele>
        <time>2015-08-20T07:37:46Z</time>
      </trkpt>
      <trkpt lat="45.48575" lon="2.77745">
        <ele>1182.5919</ele>
        <time>2015-08-20T07:37:51Z</time>
      </trkpt>
      <trkpt lat="45.4858" lon="2.77749">
        <ele>1183.4768</ele>
        <time>2015-08-20T07:37:56Z</time>
      </trkpt>
      <trkpt lat="45.48584" lon="2.77755">
        <ele>1183.4768</ele>
        <time>2015-08-20T07:38:01Z</time>
      </trkpt>
      <trkpt lat="45.48588" lon="2.77759">
        <ele>1184.4727</ele>
        <time>2015-08-20T07:38:06Z</time>
      </trkpt>
      <trkpt lat="45.48592" lon="2.77762">
        <ele>1184.4727</ele>
        <time>2015-08-20T07:38:11Z</time>
      </trkpt>
      <trkpt lat="45.48597" lon="2.77762">
        <ele>1185.5228</ele>
        <time>2015-08-20T07:38:16Z</time>
      </trkpt>
      <trkpt lat="45.48602" lon="2.77763">
        <ele>1185.5228</ele>
        <time>2015-08-20T07:38:21Z</time>
      </trkpt>
      <trkpt lat="45.48606" lon="2.77758">
        <ele>1186.6205</ele>
        <time>2015-08-20T07:38:26Z</time>
      </trkpt>
      <trkpt lat="45.4861" lon="2.7775">
        <ele>1186.6205</ele>
        <time>2015-08-20T07:38:31Z</time>
      </trkpt>
      <trkpt lat="45.48614" lon="2.77744">
        <ele>1187.7142</ele>
        <time>2015-08-20T07:38:36Z</time>
      </trkpt>
      <trkpt lat="45.48617" lon="2.77736">
        <ele>1187.7142</ele>
        <time>2015-08-20T07:38:41Z</time>
      </trkpt>
      <trkpt lat="45.4862" lon="2.77729">
        <ele>1188.7719</ele>
        <time>2015-08-20T07:38:46Z</time>
      </trkpt>
      <trkpt lat="45.48624" lon="2.77723">
        <ele>1188.7719</ele>
        <time>2015-08-20T07:38:51Z</time>
      </trkpt>
      <trkpt lat="45.48629" lon="2.77718">
        <ele>1189.8538</ele>
        <time>2015-08-20T07:38:56Z</time>
      </trkpt>
      <trkpt lat="45.48635" lon="2.77715">
        <ele>1189.8538</ele>
        <time>2015-08-20T07:39:01Z</time>
      </trkpt>
      <trkpt lat="45.4864" lon="2.77712">
        <ele>1190.9559</ele>
        <time>2015-08-20T07:39:06Z</time>
      </trkpt>
      <trkpt lat="45.48645" lon="2.7771">
        <ele>1190.9559</ele>
        <time>2015-08-20T07:39:11Z</time>
      </trkpt>
      <trkpt lat="45.48652" lon="2.77711">
        <ele>1192.1339</ele>
        <time>2015-08-20T07:39:16Z</time>
      </trkpt>
      <trkpt lat="45.48657" lon="2.77711">
        <ele>1192.1339</ele>
        <time>2015-08-20T07:39:21Z</time>
      </trkpt>
      <trkpt lat="45.48664" lon="2.77716">
        <ele>1193.2606</ele>
        <time>2015-08-20T07:39:26Z</time>
      </trkpt>
      <trkpt lat="45.48669" lon="2.77716">
        <ele>1193.2606</ele>
        <time>2015-08-20T07:39:31Z</time>
      </trkpt>
      <trkpt lat="45.48675" lon="2.7772">
        <ele>1194.3234</ele>
        <time>2015-08-20T07:39:36Z</time>
      </trkpt>
      <trkpt lat="45.48679" lon="2.77722">
        <ele>1194.3234</ele>
        <time>2015-08-20T07:39:41Z</time>
      </trkpt>
      <trkpt lat="45.48681" lon="2.77723">
        <ele>1194.3234</ele>
        <time>2015-08-20T07:39:46Z</time>
      </trkpt>
      <trkpt lat="45.48684" lon="2.77724">
        <ele>1195.3109</ele>
        <time>2015-08-20T07:39:51Z</time>
      </trkpt>
      <trkpt lat="45.48688" lon="2.77724">
        <ele>1195.3109</ele>
        <time>2015-08-20T07:39:56Z</time>
      </trkpt>
      <trkpt lat="45.48692" lon="2.77725">
        <ele>1195.3109</ele>
        <time>2015-08-20T07:40:01Z</time>
      </trkpt>
      <trkpt lat="45.48698" lon="2.77726">
        <ele>1196.2717</ele>
        <time>2015-08-20T07:40:06Z</time>
      </trkpt>
      <trkpt lat="45.48703" lon="2.77727">
        <ele>1196.2717</ele>
        <time>2015-08-20T07:40:11Z</time>
      </trkpt>
      <trkpt lat="45.48708" lon="2.7773">
        <ele>1197.0746</ele>
        <time>2015-08-20T07:40:16Z</time>
      </trkpt>
      <trkpt lat="45.48712" lon="2.77732">
        <ele>1197.0746</ele>
        <time>2015-08-20T07:40:21Z</time>
      </trkpt>
      <trkpt lat="45.48717" lon="2.77735">
        <ele>1197.8629</ele>
        <time>2015-08-20T07:40:26Z</time>
      </trkpt>
      <trkpt lat="45.48721" lon="2.77738">
        <ele>1197.8629</ele>
        <time>2015-08-20T07:40:31Z</time>
      </trkpt>
      <trkpt lat="45.48727" lon="2.77744">
        <ele>1198.5052</ele>
        <time>2015-08-20T07:40:36Z</time>
      </trkpt>
      <trkpt lat="45.48735" lon="2.7775">
        <ele>1198.5052</ele>
        <time>2015-08-20T07:40:41Z</time>
      </trkpt>
      <trkpt lat="45.48739" lon="2.77755">
        <ele>1199.0564</ele>
        <time>2015-08-20T07:40:46Z</time>
      </trkpt>
      <trkpt lat="45.48744" lon="2.77758">
        <ele>1199.0564</ele>
        <time>2015-08-20T07:40:51Z</time>
      </trkpt>
      <trkpt lat="45.48749" lon="2.77761">
        <ele>1199.5525</ele>
        <time>2015-08-20T07:40:56Z</time>
      </trkpt>
      <trkpt lat="45.48753" lon="2.77766">
        <ele>1199.5525</ele>
        <time>2015-08-20T07:41:01Z</time>
      </trkpt>
      <trkpt lat="45.48756" lon="2.7777">
        <ele>1200.0266</ele>
        <time>2015-08-20T07:41:06Z</time>
      </trkpt>
      <trkpt lat="45.48763" lon="2.77777">
        <ele>1200.0266</ele>
        <time>2015-08-20T07:41:11Z</time>
      </trkpt>
      <trkpt lat="45.48767" lon="2.77782">
        <ele>1200.4661</ele>
        <time>2015-08-20T07:41:16Z</time>
      </trkpt>
      <trkpt lat="45.48771" lon="2.77787">
        <ele>1200.4661</ele>
        <time>2015-08-20T07:41:21Z</time>
      </trkpt>
      <trkpt lat="45.48777" lon="2.77792">
        <ele>1200.7428</ele>
        <time>2015-08-20T07:41:26Z</time>
      </trkpt>
      <trkpt lat="45.48782" lon="2.77795">
        <ele>1200.7428</ele>
        <time>2015-08-20T07:41:31Z</time>
      </trkpt>
      <trkpt lat="45.48788" lon="2.77801">
        <ele>1200.9281</ele>
        <time>2015-08-20T07:41:36Z</time>
      </trkpt>
      <trkpt lat="45.48794" lon="2.77806">
        <ele>1200.9281</ele>
        <time>2015-08-20T07:41:41Z</time>
      </trkpt>
      <trkpt lat="45.48802" lon="2.77812">
        <ele>1201.0294</ele>
        <time>2015-08-20T07:41:46Z</time>
      </trkpt>
      <trkpt lat="45.48806" lon="2.77814">
        <ele>1201.0294</ele>
        <time>2015-08-20T07:41:51Z</time>
      </trkpt>
      <trkpt lat="45.48811" lon="2.77818">
        <ele>1201.0109</ele>
        <time>2015-08-20T07:41:56Z</time>
      </trkpt>
      <trkpt lat="45.48816" lon="2.77823">
        <ele>1201.0109</ele>
        <time>2015-08-20T07:42:01Z</time>
      </trkpt>
      <trkpt lat="45.48822" lon="2.77825">
        <ele>1200.9117</ele>
        <time>2015-08-20T07:42:06Z</time>
      </trkpt>
      <trkpt lat="45.4883" lon="2.77827">
        <ele>1200.9117</ele>
        <time>2015-08-20T07:42:11Z</time>
      </trkpt>
      <trkpt lat="45.48836" lon="2.77829">
        <ele>1200.7252</ele>
        <time>2015-08-20T07:42:16Z</time>
      </trkpt>
      <trkpt lat="45.4884" lon="2.77831">
        <ele>1200.7252</ele>
        <time>2015-08-20T07:42:21Z</time>
      </trkpt>
      <trkpt lat="45.48844" lon="2.77834">
        <ele>1200.7252</ele>
        <time>2015-08-20T07:42:26Z</time>
      </trkpt>
      <trkpt lat="45.4885" lon="2.77837">
        <ele>1200.503</ele>
        <time>2015-08-20T07:42:31Z</time>
      </trkpt>
      <trkpt lat="45.48857" lon="2.7784">
        <ele>1200.503</ele>
        <time>2015-08-20T07:42:36Z</time>
      </trkpt>
      <trkpt lat="45.48862" lon="2.77842">
        <ele>1200.1487</ele>
        <time>2015-08-20T07:42:41Z</time>
      </trkpt>
      <trkpt lat="45.48868" lon="2.77846">
        <ele>1200.1487</ele>
        <time>2015-08-20T07:42:46Z</time>
      </trkpt>
      <trkpt lat="45.48875" lon="2.77849">
        <ele>1199.6888</ele>
        <time>2015-08-20T07:42:51Z</time>
      </trkpt>
      <trkpt lat="45.48881" lon="2.77849">
        <ele>1199.6888</ele>
        <time>2015-08-20T07:42:56Z</time>
      </trkpt>
      <trkpt lat="45.48888" lon="2.77852">
        <ele>1199.2203</ele>
        <time>2015-08-20T07:43:01Z</time>
      </trkpt>
      <trkpt lat="45.48894" lon="2.77857">
        <ele>1199.2203</ele>
        <time>2015-08-20T07:43:06Z</time>
      </trkpt>
      <trkpt lat="45.48899" lon="2.77855">
        <ele>1198.5302</ele>
        <time>2015-08-20T07:43:11Z</time>
      </trkpt>
      <trkpt lat="45.48904" lon="2.77852">
        <ele>1198.5302</ele>
        <time>2015-08-20T07:43:16Z</time>
      </trkpt>
      <trkpt lat="45.48907" lon="2.77851">
        <ele>1198.5302</ele>
        <time>2015-08-20T07:43:21Z</time>
      </trkpt>
      <trkpt lat="45.4891" lon="2.77852">
        <ele>1197.5802</ele>
        <time>2015-08-20T07:43:26Z</time>
      </trkpt>
      <trkpt lat="45.48913" lon="2.77856">
        <ele>1197.5802</ele>
        <time>2015-08-20T07:43:31Z</time>
      </trkpt>
      <trkpt lat="45.48917" lon="2.77859">
        <ele>1197.5802</ele>
        <time>2015-08-20T07:43:36Z</time>
      </trkpt>
      <trkpt lat="45.4892" lon="2.77863">
        <ele>1196.581</ele>
        <time>2015-08-20T07:43:41Z</time>
      </trkpt>
      <trkpt lat="45.48923" lon="2.77868">
        <ele>1196.581</ele>
        <time>2015-08-20T07:43:46Z</time>
      </trkpt>
      <trkpt lat="45.48926" lon="2.77872">
        <ele>1196.581</ele>
        <time>2015-08-20T07:43:51Z</time>
      </trkpt>
      <trkpt lat="45.48929" lon="2.77877">
        <ele>1195.5547</ele>
        <time>2015-08-20T07:43:56Z</time>
      </trkpt>
      <trkpt lat="45.48935" lon="2.77882">
        <ele>1195.5547</ele>
        <time>2015-08-20T07:44:01Z</time>
      </trkpt>
      <trkpt lat="45.48941" lon="2.77885">
        <ele>1194.4927</ele>
        <time>2015-08-20T07:44:06Z</time>
      </trkpt>
      <trkpt lat="45.48947" lon="2.77886">
        <ele>1194.4927</ele>
        <time>2015-08-20T07:44:11Z</time>
      </trkpt>
      <trkpt lat="45.48952" lon="2.77888">
        <ele>1193.4451</ele>
        <time>2015-08-20T07:44:16Z</time>
      </trkpt>
      <trkpt lat="45.48956" lon="2.77891">
        <ele>1193.4451</ele>
        <time>2015-08-20T07:44:21Z</time>
      </trkpt>
      <trkpt lat="45.48961" lon="2.77893">
        <ele>1192.3428</ele>
        <time>2015-08-20T07:44:26Z</time>
      </trkpt>
      <trkpt lat="45.48968" lon="2.77894">
        <ele>1192.3428</ele>
        <time>2015-08-20T07:44:31Z</time>
      </trkpt>
      <trkpt lat="45.48974" lon="2.77895">
        <ele>1191.2949</ele>
        <time>2015-08-20T07:44:36Z</time>
      </trkpt>
      <trkpt lat="45.4898" lon="2.77896">
        <ele>1191.2949</ele>
        <time>2015-08-20T07:44:41Z</time>
      </trkpt>
      <trkpt lat="45.48985" lon="2.77897">
        <ele>1190.2723</ele>
        <time>2015-08-20T07:44:46Z</time>
      </trkpt>
      <trkpt lat="45.48992" lon="2.77896">
        <ele>1190.2723</ele>
        <time>2015-08-20T07:44:51Z</time>
      </trkpt>
      <trkpt lat="45.48998" lon="2.77894">
        <ele>1189.3635</ele>
        <time>2015-08-20T07:44:56Z</time>
      </trkpt>
      <trkpt lat="45.49004" lon="2.77893">
        <ele>1189.3635</ele>
        <time>2015-08-20T07:45:01Z</time>
      </trkpt>
      <trkpt lat="45.4901" lon="2.77891">
        <ele>1188.5923</ele>
        <time>2015-08-20T07:45:06Z</time>
      </trkpt>
      <trkpt lat="45.49015" lon="2.77891">
        <ele>1188.5923</ele>
        <time>2015-08-20T07:45:11Z</time>
      </trkpt>
      <trkpt lat="45.49021" lon="2.77891">
        <ele>1187.8647</ele>
        <time>2015-08-20T07:45:16Z</time>
      </trkpt>
      <trkpt lat="45.49027" lon="2.7789">
        <ele>1187.8647</ele>
        <time>2015-08-20T07:45:21Z</time>
      </trkpt>
      <trkpt lat="45.49034" lon="2.77889">
        <ele>1187.2382</ele>
        <time>2015-08-20T07:45:26Z</time>
      </trkpt>
      <trkpt lat="45.49039" lon="2.7789">
        <ele>1187.2382</ele>
        <time>2015-08-20T07:45:31Z</time>
      </trkpt>
      <trkpt lat="45.49045" lon="2.77891">
        <ele>1186.909</ele>
        <time>2015-08-20T07:45:36Z</time>
      </trkpt>
      <trkpt lat="45.49051" lon="2.77893">
        <ele>1186.909</ele>
        <time>2015-08-20T07:45:41Z</time>
      </trkpt>
      <trkpt lat="45.49056" lon="2.77895">
        <ele>1186.6406</ele>
        <time>2015-08-20T07:45:46Z</time>
      </trkpt>
      <trkpt lat="45.4906" lon="2.77897">
        <ele>1186.6406</ele>
        <time>2015-08-20T07:45:51Z</time>
      </trkpt>
      <trkpt lat="45.49062" lon="2.77898">
        <ele>1186.6406</ele>
        <time>2015-08-20T07:45:56Z</time>
      </trkpt>
      <trkpt lat="45.49066" lon="2.779">
        <ele>1186.242</ele>
        <time>2015-08-20T07:46:01Z</time>
      </trkpt>
      <trkpt lat="45.49072" lon="2.77907">
        <ele>1186.242</ele>
        <time>2015-08-20T07:46:06Z</time>
      </trkpt>
      <trkpt lat="45.49076" lon="2.77909">
        <ele>1186.0844</ele>
        <time>2015-08-20T07:46:11Z</time>
      </trkpt>
      <trkpt lat="45.49081" lon="2.77912">
        <ele>1186.0844</ele>
        <time>2015-08-20T07:46:16Z</time>
      </trkpt>
      <trkpt lat="45.49086" lon="2.77914">
        <ele>1186.0065</ele>
        <time>2015-08-20T07:46:21Z</time>
      </trkpt>
      <trkpt lat="45.49092" lon="2.77915">
        <ele>1186.0065</ele>
        <time>2015-08-20T07:46:26Z</time>
      </trkpt>
      <trkpt lat="45.49096" lon="2.77915">
        <ele>1185.9739</ele>
        <time>2015-08-20T07:46:31Z</time>
      </trkpt>
      <trkpt lat="45.491" lon="2.77916">
        <ele>1185.9739</ele>
        <time>2015-08-20T07:46:36Z</time>
      </trkpt>
      <trkpt lat="45.49103" lon="2.7792">
        <ele>1185.9832</ele>
        <time>2015-08-20T07:46:41Z</time>
      </trkpt>
      <trkpt lat="45.49106" lon="2.77925">
        <ele>1185.9832</ele>
        <time>2015-08-20T07:46:46Z</time>
      </trkpt>
      <trkpt lat="45.49107" lon="2.77931">
        <ele>1185.9832</ele>
        <time>2015-08-20T07:46:51Z</time>
      </trkpt>
      <trkpt lat="45.4911" lon="2.77941">
        <ele>1186.2041</ele>
        <time>2015-08-20T07:46:56Z</time>
      </trkpt>
      <trkpt lat="45.49113" lon="2.77951">
        <ele>1186.2041</ele>
        <time>2015-08-20T07:47:01Z</time>
      </trkpt>
      <trkpt lat="45.49115" lon="2.77958">
        <ele>1186.5338</ele>
        <time>2015-08-20T07:47:06Z</time>
      </trkpt>
      <trkpt lat="45.49119" lon="2.77966">
        <ele>1186.5338</ele>
        <time>2015-08-20T07:47:11Z</time>
      </trkpt>
      <trkpt lat="45.49121" lon="2.77969">
        <ele>1186.9631</ele>
        <time>2015-08-20T07:47:16Z</time>
      </trkpt>
      <trkpt lat="45.49124" lon="2.77975">
        <ele>1186.9631</ele>
        <time>2015-08-20T07:47:21Z</time>
      </trkpt>
      <trkpt lat="45.49128" lon="2.7798">
        <ele>1187.3967</ele>
        <time>2015-08-20T07:47:26Z</time>
      </trkpt>
      <trkpt lat="45.49133" lon="2.77987">
        <ele>1187.3967</ele>
        <time>2015-08-20T07:47:31Z</time>
      </trkpt>
      <trkpt lat="45.49139" lon="2.77988">
        <ele>1187.8037</ele>
        <time>2015-08-20T07:47:36Z</time>
      </trkpt>
      <trkpt lat="45.49146" lon="2.77996">
        <ele>1187.8037</ele>
        <time>2015-08-20T07:47:41Z</time>
      </trkpt>
      <trkpt lat="45.49147" lon="2.78004">
        <ele>1188.1702</ele>
        <time>2015-08-20T07:47:46Z</time>
      </trkpt>
      <trkpt lat="45.49149" lon="2.78012">
        <ele>1188.1702</ele>
        <time>2015-08-20T07:47:51Z</time>
      </trkpt>
      <trkpt lat="45.4915" lon="2.7802">
        <ele>1188.5842</ele>
        <time>2015-08-20T07:47:56Z</time>
      </trkpt>
      <trkpt lat="45.4915" lon="2.78028">
        <ele>1188.5842</ele>
        <time>2015-08-20T07:48:01Z</time>
      </trkpt>
      <trkpt lat="45.4915" lon="2.78033">
        <ele>1189.0552</ele>
        <time>2015-08-20T07:48:06Z</time>
      </trkpt>
      <trkpt lat="45.4915" lon="2.78038">
        <ele>1189.0552</ele>
        <time>2015-08-20T07:48:11Z</time>
      </trkpt>
      <trkpt lat="45.49151" lon="2.78042">
        <ele>1189.0552</ele>
        <time>2015-08-20T07:48:16Z</time>
      </trkpt>
      <trkpt lat="45.49154" lon="2.78047">
        <ele>1189.4761</ele>
        <time>2015-08-20T07:48:21Z</time>
      </trkpt>
      <trkpt lat="45.49159" lon="2.78057">
        <ele>1189.849</ele>
        <time>2015-08-20T07:48:26Z</time>
      </trkpt>
      <trkpt lat="45.4916" lon="2.78062">
        <ele>1189.849</ele>
        <time>2015-08-20T07:48:31Z</time>
      </trkpt>
      <trkpt lat="45.49162" lon="2.7807">
        <ele>1190.1184</ele>
        <time>2015-08-20T07:48:36Z</time>
      </trkpt>
      <trkpt lat="45.49163" lon="2.78075">
        <ele>1190.1184</ele>
        <time>2015-08-20T07:48:41Z</time>
      </trkpt>
      <trkpt lat="45.49166" lon="2.78081">
        <ele>1190.1184</ele>
        <time>2015-08-20T07:48:46Z</time>
      </trkpt>
      <trkpt lat="45.49167" lon="2.78087">
        <ele>1190.305</ele>
        <time>2015-08-20T07:48:51Z</time>
      </trkpt>
      <trkpt lat="45.49168" lon="2.78093">
        <ele>1190.305</ele>
        <time>2015-08-20T07:48:56Z</time>
      </trkpt>
      <trkpt lat="45.49173" lon="2.78106">
        <ele>1190.3997</ele>
        <time>2015-08-20T07:49:01Z</time>
      </trkpt>
      <trkpt lat="45.49175" lon="2.78113">
        <ele>1190.3997</ele>
        <time>2015-08-20T07:49:06Z</time>
      </trkpt>
      <trkpt lat="45.49175" lon="2.7812">
        <ele>1190.4371</ele>
        <time>2015-08-20T07:49:11Z</time>
      </trkpt>
      <trkpt lat="45.49179" lon="2.78131">
        <ele>1190.4371</ele>
        <time>2015-08-20T07:49:16Z</time>
      </trkpt>
      <trkpt lat="45.49183" lon="2.7814">
        <ele>1190.3347</ele>
        <time>2015-08-20T07:49:21Z</time>
      </trkpt>
      <trkpt lat="45.49188" lon="2.78148">
        <ele>1190.3347</ele>
        <time>2015-08-20T07:49:26Z</time>
      </trkpt>
      <trkpt lat="45.49192" lon="2.78156">
        <ele>1190.0449</ele>
        <time>2015-08-20T07:49:31Z</time>
      </trkpt>
      <trkpt lat="45.49197" lon="2.78166">
        <ele>1189.5963</ele>
        <time>2015-08-20T07:49:36Z</time>
      </trkpt>
      <trkpt lat="45.49205" lon="2.7817">
        <ele>1189.5963</ele>
        <time>2015-08-20T07:49:41Z</time>
      </trkpt>
      <trkpt lat="45.49212" lon="2.78167">
        <ele>1188.9004</ele>
        <time>2015-08-20T07:49:46Z</time>
      </trkpt>
      <trkpt lat="45.49218" lon="2.78162">
        <ele>1188.9004</ele>
        <time>2015-08-20T07:49:51Z</time>
      </trkpt>
      <trkpt lat="45.49223" lon="2.78155">
        <ele>1188.0348</ele>
        <time>2015-08-20T07:49:56Z</time>
      </trkpt>
      <trkpt lat="45.49229" lon="2.78147">
        <ele>1188.0348</ele>
        <time>2015-08-20T07:50:01Z</time>
      </trkpt>
      <trkpt lat="45.49233" lon="2.78139">
        <ele>1186.9707</ele>
        <time>2015-08-20T07:50:06Z</time>
      </trkpt>
      <trkpt lat="45.49237" lon="2.78133">
        <ele>1186.9707</ele>
        <time>2015-08-20T07:50:11Z</time>
      </trkpt>
      <trkpt lat="45.49242" lon="2.7813">
        <ele>1185.8118</ele>
        <time>2015-08-20T07:50:16Z</time>
      </trkpt>
      <trkpt lat="45.49246" lon="2.78123">
        <ele>1185.8118</ele>
        <time>2015-08-20T07:50:21Z</time>
      </trkpt>
      <trkpt lat="45.4925" lon="2.78119">
        <ele>1184.5101</ele>
        <time>2015-08-20T07:50:26Z</time>
      </trkpt>
      <trkpt lat="45.49255" lon="2.78113">
        <ele>1184.5101</ele>
        <time>2015-08-20T07:50:31Z</time>
      </trkpt>
      <trkpt lat="45.49258" lon="2.78108">
        <ele>1183.1659</ele>
        <time>2015-08-20T07:50:36Z</time>
      </trkpt>
      <trkpt lat="45.49263" lon="2.78104">
        <ele>1183.1659</ele>
        <time>2015-08-20T07:50:41Z</time>
      </trkpt>
      <trkpt lat="45.4927" lon="2.78101">
        <ele>1181.7999</ele>
        <time>2015-08-20T07:50:46Z</time>
      </trkpt>
      <trkpt lat="45.49275" lon="2.781">
        <ele>1181.7999</ele>
        <time>2015-08-20T07:50:51Z</time>
      </trkpt>
      <trkpt lat="45.4928" lon="2.78098">
        <ele>1180.4172</ele>
        <time>2015-08-20T07:50:56Z</time>
      </trkpt>
      <trkpt lat="45.49286" lon="2.78094">
        <ele>1180.4172</ele>
        <time>2015-08-20T07:51:01Z</time>
      </trkpt>
      <trkpt lat="45.49291" lon="2.78088">
        <ele>1178.9215</ele>
        <time>2015-08-20T07:51:06Z</time>
      </trkpt>
      <trkpt lat="45.49297" lon="2.78082">
        <ele>1178.9215</ele>
        <time>2015-08-20T07:51:11Z</time>
      </trkpt>
      <trkpt lat="45.49302" lon="2.78078">
        <ele>1177.3822</ele>
        <time>2015-08-20T07:51:16Z</time>
      </trkpt>
      <trkpt lat="45.49306" lon="2.78072">
        <ele>1177.3822</ele>
        <time>2015-08-20T07:51:21Z</time>
      </trkpt>
      <trkpt lat="45.49309" lon="2.78065">
        <ele>1175.8062</ele>
        <time>2015-08-20T07:51:26Z</time>
      </trkpt>
      <trkpt lat="45.49314" lon="2.78057">
        <ele>1175.8062</ele>
        <time>2015-08-20T07:51:31Z</time>
      </trkpt>
      <trkpt lat="45.49318" lon="2.78051">
        <ele>1174.2288</ele>
        <time>2015-08-20T07:51:36Z</time>
      </trkpt>
      <trkpt lat="45.49321" lon="2.78043">
        <ele>1174.2288</ele>
        <time>2015-08-20T07:51:41Z</time>
      </trkpt>
      <trkpt lat="45.49322" lon="2.78035">
        <ele>1172.668</ele>
        <time>2015-08-20T07:51:46Z</time>
      </trkpt>
      <trkpt lat="45.49323" lon="2.78029">
        <ele>1172.668</ele>
        <time>2015-08-20T07:51:51Z</time>
      </trkpt>
      <trkpt lat="45.49324" lon="2.78022">
        <ele>1171.155</ele>
        <time>2015-08-20T07:51:56Z</time>
      </trkpt>
      <trkpt lat="45.49326" lon="2.78015">
        <ele>1171.155</ele>
        <time>2015-08-20T07:52:01Z</time>
      </trkpt>
      <trkpt lat="45.49323" lon="2.78008">
        <ele>1169.7328</ele>
        <time>2015-08-20T07:52:06Z</time>
      </trkpt>
      <trkpt lat="45.49326" lon="2.77997">
        <ele>1169.7328</ele>
        <time>2015-08-20T07:52:11Z</time>
      </trkpt>
      <trkpt lat="45.4933" lon="2.77987">
        <ele>1168.3402</ele>
        <time>2015-08-20T07:52:16Z</time>
      </trkpt>
      <trkpt lat="45.49333" lon="2.77979">
        <ele>1168.3402</ele>
        <time>2015-08-20T07:52:21Z</time>
      </trkpt>
      <trkpt lat="45.49333" lon="2.77969">
        <ele>1167.0497</ele>
        <time>2015-08-20T07:52:26Z</time>
      </trkpt>
      <trkpt lat="45.49334" lon="2.77959">
        <ele>1167.0497</ele>
        <time>2015-08-20T07:52:31Z</time>
      </trkpt>
      <trkpt lat="45.49335" lon="2.77949">
        <ele>1165.9138</ele>
        <time>2015-08-20T07:52:36Z</time>
      </trkpt>
      <trkpt lat="45.49337" lon="2.7794">
        <ele>1165.9138</ele>
        <time>2015-08-20T07:52:41Z</time>
      </trkpt>
      <trkpt lat="45.49338" lon="2.77933">
        <ele>1164.9233</ele>
        <time>2015-08-20T07:52:46Z</time>
      </trkpt>
      <trkpt lat="45.49338" lon="2.77929">
        <ele>1164.9233</ele>
        <time>2015-08-20T07:52:51Z</time>
      </trkpt>
      <trkpt lat="45.49336" lon="2.7792">
        <ele>1164.0831</ele>
        <time>2015-08-20T07:52:56Z</time>
      </trkpt>
      <trkpt lat="45.49334" lon="2.7791">
        <ele>1164.0831</ele>
        <time>2015-08-20T07:53:01Z</time>
      </trkpt>
      <trkpt lat="45.49332" lon="2.77902">
        <ele>1163.3688</ele>
        <time>2015-08-20T07:53:06Z</time>
      </trkpt>
      <trkpt lat="45.49328" lon="2.77895">
        <ele>1163.3688</ele>
        <time>2015-08-20T07:53:11Z</time>
      </trkpt>
      <trkpt lat="45.49327" lon="2.77885">
        <ele>1162.757</ele>
        <time>2015-08-20T07:53:16Z</time>
      </trkpt>
      <trkpt lat="45.49326" lon="2.77877">
        <ele>1162.757</ele>
        <time>2015-08-20T07:53:21Z</time>
      </trkpt>
      <trkpt lat="45.49327" lon="2.7787">
        <ele>1162.2261</ele>
        <time>2015-08-20T07:53:26Z</time>
      </trkpt>
      <trkpt lat="45.49329" lon="2.77864">
        <ele>1162.2261</ele>
        <time>2015-08-20T07:53:31Z</time>
      </trkpt>
      <trkpt lat="45.4933" lon="2.77855">
        <ele>1161.7985</ele>
        <time>2015-08-20T07:53:36Z</time>
      </trkpt>
      <trkpt lat="45.49332" lon="2.7785">
        <ele>1161.7985</ele>
        <time>2015-08-20T07:53:41Z</time>
      </trkpt>
      <trkpt lat="45.49335" lon="2.77848">
        <ele>1161.7985</ele>
        <time>2015-08-20T07:53:46Z</time>
      </trkpt>
      <trkpt lat="45.49337" lon="2.77847">
        <ele>1161.3654</ele>
        <time>2015-08-20T07:53:51Z</time>
      </trkpt>
      <trkpt lat="45.49341" lon="2.77847">
        <ele>1161.3654</ele>
        <time>2015-08-20T07:53:56Z</time>
      </trkpt>
      <trkpt lat="45.49346" lon="2.77854">
        <ele>1161.013</ele>
        <time>2015-08-20T07:54:01Z</time>
      </trkpt>
      <trkpt lat="45.49351" lon="2.77862">
        <ele>1161.013</ele>
        <time>2015-08-20T07:54:06Z</time>
      </trkpt>
      <trkpt lat="45.49354" lon="2.77868">
        <ele>1160.7776</ele>
        <time>2015-08-20T07:54:11Z</time>
      </trkpt>
      <trkpt lat="45.49357" lon="2.77871">
        <ele>1160.7776</ele>
        <time>2015-08-20T07:54:16Z</time>
      </trkpt>
      <trkpt lat="45.49363" lon="2.77872">
        <ele>1160.6351</ele>
        <time>2015-08-20T07:54:21Z</time>
      </trkpt>
      <trkpt lat="45.49368" lon="2.77876">
        <ele>1160.6351</ele>
        <time>2015-08-20T07:54:26Z</time>
      </trkpt>
      <trkpt lat="45.49372" lon="2.77879">
        <ele>1160.6202</ele>
        <time>2015-08-20T07:54:31Z</time>
      </trkpt>
      <trkpt lat="45.49376" lon="2.77883">
        <ele>1160.6202</ele>
        <time>2015-08-20T07:54:36Z</time>
      </trkpt>
      <trkpt lat="45.49378" lon="2.77888">
        <ele>1160.6202</ele>
        <time>2015-08-20T07:54:41Z</time>
      </trkpt>
      <trkpt lat="45.49381" lon="2.77894">
        <ele>1160.7074</ele>
        <time>2015-08-20T07:54:46Z</time>
      </trkpt>
      <trkpt lat="45.49389" lon="2.77898">
        <ele>1160.7074</ele>
        <time>2015-08-20T07:54:51Z</time>
      </trkpt>
      <trkpt lat="45.49395" lon="2.779">
        <ele>1160.8868</ele>
        <time>2015-08-20T07:54:56Z</time>
      </trkpt>
      <trkpt lat="45.494" lon="2.77904">
        <ele>1160.8868</ele>
        <time>2015-08-20T07:55:01Z</time>
      </trkpt>
      <trkpt lat="45.49408" lon="2.77905">
        <ele>1161.2212</ele>
        <time>2015-08-20T07:55:06Z</time>
      </trkpt>
      <trkpt lat="45.49415" lon="2.7791">
        <ele>1161.2212</ele>
        <time>2015-08-20T07:55:11Z</time>
      </trkpt>
      <trkpt lat="45.4942" lon="2.7791">
        <ele>1161.7106</ele>
        <time>2015-08-20T07:55:16Z</time>
      </trkpt>
      <trkpt lat="45.49425" lon="2.77911">
        <ele>1161.7106</ele>
        <time>2015-08-20T07:55:21Z</time>
      </trkpt>
      <trkpt lat="45.49431" lon="2.77916">
        <ele>1162.3834</ele>
        <time>2015-08-20T07:55:26Z</time>
      </trkpt>
      <trkpt lat="45.49435" lon="2.77917">
        <ele>1162.3834</ele>
        <time>2015-08-20T07:55:31Z</time>
      </trkpt>
      <trkpt lat="45.4944" lon="2.77915">
        <ele>1163.2225</ele>
        <time>2015-08-20T07:55:36Z</time>
      </trkpt>
      <trkpt lat="45.49448" lon="2.77912">
        <ele>1163.2225</ele>
        <time>2015-08-20T07:55:41Z</time>
      </trkpt>
      <trkpt lat="45.49454" lon="2.77909">
        <ele>1164.0237</ele>
        <time>2015-08-20T07:55:46Z</time>
      </trkpt>
      <trkpt lat="45.49458" lon="2.7791">
        <ele>1164.0237</ele>
        <time>2015-08-20T07:55:51Z</time>
      </trkpt>
      <trkpt lat="45.49458" lon="2.77909">
        <ele>1164.0237</ele>
        <time>2015-08-20T07:55:56Z</time>
      </trkpt>
      <trkpt lat="45.49473" lon="2.77896">
        <ele>1164.1084</ele>
        <time>2015-08-20T07:57:00Z</time>
      </trkpt>
      <trkpt lat="45.49479" lon="2.77893">
        <ele>1164.1084</ele>
        <time>2015-08-20T07:57:10Z</time>
      </trkpt>
      <trkpt lat="45.49495" lon="2.77891">
        <ele>1164.0892</ele>
        <time>2015-08-20T07:57:26Z</time>
      </trkpt>
      <trkpt lat="45.49499" lon="2.77891">
        <ele>1164.0892</ele>
        <time>2015-08-20T07:57:37Z</time>
      </trkpt>
      <trkpt lat="45.49506" lon="2.77888">
        <ele>1164.0726</ele>
        <time>2015-08-20T07:57:42Z</time>
      </trkpt>
      <trkpt lat="45.4951" lon="2.77887">
        <ele>1164.0726</ele>
        <time>2015-08-20T07:58:01Z</time>
      </trkpt>
      <trkpt lat="45.4953" lon="2.77871">
        <ele>1164.1001</ele>
        <time>2015-08-20T07:58:06Z</time>
      </trkpt>
      <trkpt lat="45.49562" lon="2.77846">
        <ele>1164.5701</ele>
        <time>2015-08-20T07:58:41Z</time>
      </trkpt>
      <trkpt lat="45.49581" lon="2.77833">
        <ele>1165.2163</ele>
        <time>2015-08-20T07:59:02Z</time>
      </trkpt>
      <trkpt lat="45.49589" lon="2.77823">
        <ele>1165.8928</ele>
        <time>2015-08-20T07:59:08Z</time>
      </trkpt>
      <trkpt lat="45.49593" lon="2.77819">
        <ele>1165.8928</ele>
        <time>2015-08-20T07:59:11Z</time>
      </trkpt>
      <trkpt lat="45.49626" lon="2.77795">
        <ele>1166.6228</ele>
        <time>2015-08-20T07:59:54Z</time>
      </trkpt>
      <trkpt lat="45.49644" lon="2.77785">
        <ele>1167.2544</ele>
        <time>2015-08-20T08:00:02Z</time>
      </trkpt>
      <trkpt lat="45.49645" lon="2.77791">
        <ele>1167.2544</ele>
        <time>2015-08-20T08:00:06Z</time>
      </trkpt>
      <trkpt lat="45.49646" lon="2.77796">
        <ele>1167.2544</ele>
        <time>2015-08-20T08:00:11Z</time>
      </trkpt>
      <trkpt lat="45.4967" lon="2.77851">
        <ele>1168.5558</ele>
        <time>2015-08-20T08:01:01Z</time>
      </trkpt>
      <trkpt lat="45.49672" lon="2.77857">
        <ele>1168.5558</ele>
        <time>2015-08-20T08:01:06Z</time>
      </trkpt>
      <trkpt lat="45.49676" lon="2.77869">
        <ele>1169.8384</ele>
        <time>2015-08-20T08:01:17Z</time>
      </trkpt>
      <trkpt lat="45.49699" lon="2.77919">
        <ele>1171.5311</ele>
        <time>2015-08-20T08:02:02Z</time>
      </trkpt>
      <trkpt lat="45.49703" lon="2.77924">
        <ele>1171.5311</ele>
        <time>2015-08-20T08:02:07Z</time>
      </trkpt>
      <trkpt lat="45.49709" lon="2.77936">
        <ele>1173.1368</ele>
        <time>2015-08-20T08:02:27Z</time>
      </trkpt>
      <trkpt lat="45.49715" lon="2.77945">
        <ele>1173.1368</ele>
        <time>2015-08-20T08:02:49Z</time>
      </trkpt>
      <trkpt lat="45.49718" lon="2.77949">
        <ele>1175.0455</ele>
        <time>2015-08-20T08:02:49Z</time>
      </trkpt>
      <trkpt lat="45.4972" lon="2.77953">
        <ele>1175.0455</ele>
        <time>2015-08-20T08:03:00Z</time>
      </trkpt>
      <trkpt lat="45.49733" lon="2.77967">
        <ele>1176.998</ele>
        <time>2015-08-20T08:03:02Z</time>
      </trkpt>
      <trkpt lat="45.49743" lon="2.77973">
        <ele>1178.8695</ele>
        <time>2015-08-20T08:03:07Z</time>
      </trkpt>
      <trkpt lat="45.49748" lon="2.77976">
        <ele>1178.8695</ele>
        <time>2015-08-20T08:03:13Z</time>
      </trkpt>
      <trkpt lat="45.49751" lon="2.77978">
        <ele>1178.8695</ele>
        <time>2015-08-20T08:03:24Z</time>
      </trkpt>
      <trkpt lat="45.49766" lon="2.77984">
        <ele>1180.833</ele>
        <time>2015-08-20T08:03:28Z</time>
      </trkpt>
      <trkpt lat="45.49802" lon="2.7801">
        <ele>1182.6594</ele>
        <time>2015-08-20T08:04:04Z</time>
      </trkpt>
      <trkpt lat="45.49804" lon="2.78014">
        <ele>1182.6594</ele>
        <time>2015-08-20T08:04:06Z</time>
      </trkpt>
      <trkpt lat="45.49808" lon="2.78021">
        <ele>1184.339</ele>
        <time>2015-08-20T08:04:15Z</time>
      </trkpt>
      <trkpt lat="45.49817" lon="2.78027">
        <ele>1185.82</ele>
        <time>2015-08-20T08:04:35Z</time>
      </trkpt>
      <trkpt lat="45.49821" lon="2.78028">
        <ele>1185.82</ele>
        <time>2015-08-20T08:04:38Z</time>
      </trkpt>
      <trkpt lat="45.49827" lon="2.78034">
        <ele>1187.127</ele>
        <time>2015-08-20T08:04:48Z</time>
      </trkpt>
      <trkpt lat="45.49828" lon="2.78034">
        <ele>1187.127</ele>
        <time>2015-08-20T08:04:52Z</time>
      </trkpt>
      <trkpt lat="45.49827" lon="2.78031">
        <ele>1187.127</ele>
        <time>2015-08-20T08:05:03Z</time>
      </trkpt>
      <trkpt lat="45.49824" lon="2.78028">
        <ele>1187.127</ele>
        <time>2015-08-20T08:05:13Z</time>
      </trkpt>
      <trkpt lat="45.49823" lon="2.78025">
        <ele>1188.1685</ele>
        <time>2015-08-20T08:05:53Z</time>
      </trkpt>
      <trkpt lat="45.49823" lon="2.78025">
        <ele>1188.1685</ele>
        <time>2015-08-20T08:06:00Z</time>
      </trkpt>
      <trkpt lat="45.49827" lon="2.78028">
        <ele>1188.1685</ele>
        <time>2015-08-20T08:06:29Z</time>
      </trkpt>
      <trkpt lat="45.49828" lon="2.78028">
        <ele>1188.1685</ele>
        <time>2015-08-20T08:06:31Z</time>
      </trkpt>
      <trkpt lat="45.49832" lon="2.78028">
        <ele>1188.6874</ele>
        <time>2015-08-20T08:06:46Z</time>
      </trkpt>
      <trkpt lat="45.49846" lon="2.78023">
        <ele>1189.1102</ele>
        <time>2015-08-20T08:06:54Z</time>
      </trkpt>
      <trkpt lat="45.49848" lon="2.78023">
        <ele>1189.1102</ele>
        <time>2015-08-20T08:06:56Z</time>
      </trkpt>
      <trkpt lat="45.49854" lon="2.78022">
        <ele>1189.1102</ele>
        <time>2015-08-20T08:07:04Z</time>
      </trkpt>
      <trkpt lat="45.49856" lon="2.78023">
        <ele>1189.4434</ele>
        <time>2015-08-20T08:07:06Z</time>
      </trkpt>
      <trkpt lat="45.4987" lon="2.78027">
        <ele>1189.7074</ele>
        <time>2015-08-20T08:07:35Z</time>
      </trkpt>
      <trkpt lat="45.49872" lon="2.78029">
        <ele>1189.7074</ele>
        <time>2015-08-20T08:07:41Z</time>
      </trkpt>
      <trkpt lat="45.49872" lon="2.78023">
        <ele>1189.7074</ele>
        <time>2015-08-20T08:08:41Z</time>
      </trkpt>
      <trkpt lat="45.49869" lon="2.78023">
        <ele>1191.1759</ele>
        <time>2015-08-20T08:08:46Z</time>
      </trkpt>
      <trkpt lat="45.49854" lon="2.78026">
        <ele>1192.3447</ele>
        <time>2015-08-20T08:09:04Z</time>
      </trkpt>
      <trkpt lat="45.49844" lon="2.78026">
        <ele>1193.3058</ele>
        <time>2015-08-20T08:09:09Z</time>
      </trkpt>
      <trkpt lat="45.49843" lon="2.78026">
        <ele>1193.3058</ele>
        <time>2015-08-20T08:09:12Z</time>
      </trkpt>
      <trkpt lat="45.49841" lon="2.78027">
        <ele>1193.3058</ele>
        <time>2015-08-20T08:09:28Z</time>
      </trkpt>
      <trkpt lat="45.49826" lon="2.78025">
        <ele>1193.8422</ele>
        <time>2015-08-20T08:09:38Z</time>
      </trkpt>
      <trkpt lat="45.49815" lon="2.78025">
        <ele>1194.0857</ele>
        <time>2015-08-20T08:09:46Z</time>
      </trkpt>
      <trkpt lat="45.49805" lon="2.7801">
        <ele>1194.1018</ele>
        <time>2015-08-20T08:10:09Z</time>
      </trkpt>
      <trkpt lat="45.49789" lon="2.77994">
        <ele>1194.0385</ele>
        <time>2015-08-20T08:10:34Z</time>
      </trkpt>
      <trkpt lat="45.49771" lon="2.77985">
        <ele>1193.5139</ele>
        <time>2015-08-20T08:10:42Z</time>
      </trkpt>
      <trkpt lat="45.49753" lon="2.77968">
        <ele>1192.8822</ele>
        <time>2015-08-20T08:11:22Z</time>
      </trkpt>
      <trkpt lat="45.49734" lon="2.77962">
        <ele>1192.1547</ele>
        <time>2015-08-20T08:11:26Z</time>
      </trkpt>
      <trkpt lat="45.4973" lon="2.77956">
        <ele>1192.1547</ele>
        <time>2015-08-20T08:11:41Z</time>
      </trkpt>
      <trkpt lat="45.49726" lon="2.77953">
        <ele>1192.0194</ele>
        <time>2015-08-20T08:11:51Z</time>
      </trkpt>
      <trkpt lat="45.49724" lon="2.77964">
        <ele>1192.0194</ele>
        <time>2015-08-20T08:12:44Z</time>
      </trkpt>
      <trkpt lat="45.49722" lon="2.77973">
        <ele>1192.2189</ele>
        <time>2015-08-20T08:12:46Z</time>
      </trkpt>
      <trkpt lat="45.49722" lon="2.77977">
        <ele>1192.2189</ele>
        <time>2015-08-20T08:12:51Z</time>
      </trkpt>
      <trkpt lat="45.49722" lon="2.77985">
        <ele>1192.2189</ele>
        <time>2015-08-20T08:12:56Z</time>
      </trkpt>
      <trkpt lat="45.49723" lon="2.77987">
        <ele>1192.4127</ele>
        <time>2015-08-20T08:13:02Z</time>
      </trkpt>
      <trkpt lat="45.49724" lon="2.77989">
        <ele>1192.4127</ele>
        <time>2015-08-20T08:13:23Z</time>
      </trkpt>
      <trkpt lat="45.49733" lon="2.78008">
        <ele>1192.8185</ele>
        <time>2015-08-20T08:13:26Z</time>
      </trkpt>
      <trkpt lat="45.49737" lon="2.78013">
        <ele>1192.8185</ele>
        <time>2015-08-20T08:13:31Z</time>
      </trkpt>
      <trkpt lat="45.49759" lon="2.78041">
        <ele>1193.4359</ele>
        <time>2015-08-20T08:14:01Z</time>
      </trkpt>
      <trkpt lat="45.49758" lon="2.78042">
        <ele>1193.4359</ele>
        <time>2015-08-20T08:14:26Z</time>
      </trkpt>
      <trkpt lat="45.49766" lon="2.7807">
        <ele>1194.2639</ele>
        <time>2015-08-20T08:14:32Z</time>
      </trkpt>
      <trkpt lat="45.49766" lon="2.78074">
        <ele>1194.2639</ele>
        <time>2015-08-20T08:14:36Z</time>
      </trkpt>
      <trkpt lat="45.49766" lon="2.78077">
        <ele>1194.2639</ele>
        <time>2015-08-20T08:14:41Z</time>
      </trkpt>
      <trkpt lat="45.49765" lon="2.78082">
        <ele>1194.2639</ele>
        <time>2015-08-20T08:14:46Z</time>
      </trkpt>
      <trkpt lat="45.49769" lon="2.78099">
        <ele>1195.0557</ele>
        <time>2015-08-20T08:14:59Z</time>
      </trkpt>
      <trkpt lat="45.4977" lon="2.78105">
        <ele>1195.0557</ele>
        <time>2015-08-20T08:15:08Z</time>
      </trkpt>
      <trkpt lat="45.49776" lon="2.78116">
        <ele>1196.0731</ele>
        <time>2015-08-20T08:15:31Z</time>
      </trkpt>
      <trkpt lat="45.49774" lon="2.78116">
        <ele>1196.0731</ele>
        <time>2015-08-20T08:15:56Z</time>
      </trkpt>
      <trkpt lat="45.49775" lon="2.7812">
        <ele>1196.0731</ele>
        <time>2015-08-20T08:16:01Z</time>
      </trkpt>
      <trkpt lat="45.49775" lon="2.78126">
        <ele>1196.0731</ele>
        <time>2015-08-20T08:16:06Z</time>
      </trkpt>
      <trkpt lat="45.49775" lon="2.78133">
        <ele>1197.5001</ele>
        <time>2015-08-20T08:16:11Z</time>
      </trkpt>
      <trkpt lat="45.49775" lon="2.78139">
        <ele>1197.5001</ele>
        <time>2015-08-20T08:16:16Z</time>
      </trkpt>
      <trkpt lat="45.49776" lon="2.78159">
        <ele>1198.2239</ele>
        <time>2015-08-20T08:16:29Z</time>
      </trkpt>
      <trkpt lat="45.49776" lon="2.7816">
        <ele>1198.2239</ele>
        <time>2015-08-20T08:16:31Z</time>
      </trkpt>
      <trkpt lat="45.49777" lon="2.78166">
        <ele>1198.2239</ele>
        <time>2015-08-20T08:16:36Z</time>
      </trkpt>
      <trkpt lat="45.49776" lon="2.7817">
        <ele>1198.2239</ele>
        <time>2015-08-20T08:16:41Z</time>
      </trkpt>
      <trkpt lat="45.49774" lon="2.78191">
        <ele>1198.7135</ele>
        <time>2015-08-20T08:17:01Z</time>
      </trkpt>
      <trkpt lat="45.49775" lon="2.78192">
        <ele>1198.7135</ele>
        <time>2015-08-20T08:17:16Z</time>
      </trkpt>
      <trkpt lat="45.49788" lon="2.78195">
        <ele>1199.275</ele>
        <time>2015-08-20T08:17:30Z</time>
      </trkpt>
      <trkpt lat="45.49796" lon="2.78194">
        <ele>1199.275</ele>
        <time>2015-08-20T08:17:57Z</time>
      </trkpt>
      <trkpt lat="45.49808" lon="2.78194">
        <ele>1200.3645</ele>
        <time>2015-08-20T08:18:14Z</time>
      </trkpt>
      <trkpt lat="45.49819" lon="2.78204">
        <ele>1202.3457</ele>
        <time>2015-08-20T08:18:22Z</time>
      </trkpt>
      <trkpt lat="45.49824" lon="2.7821">
        <ele>1202.3457</ele>
        <time>2015-08-20T08:18:36Z</time>
      </trkpt>
      <trkpt lat="45.49827" lon="2.78218">
        <ele>1204.6016</ele>
        <time>2015-08-20T08:18:46Z</time>
      </trkpt>
      <trkpt lat="45.49828" lon="2.78221">
        <ele>1204.6016</ele>
        <time>2015-08-20T08:18:46Z</time>
      </trkpt>
      <trkpt lat="45.49832" lon="2.78226">
        <ele>1204.6016</ele>
        <time>2015-08-20T08:18:57Z</time>
      </trkpt>
      <trkpt lat="45.49851" lon="2.78241">
        <ele>1207.295</ele>
        <time>2015-08-20T08:19:32Z</time>
      </trkpt>
      <trkpt lat="45.49854" lon="2.78245">
        <ele>1207.295</ele>
        <time>2015-08-20T08:19:36Z</time>
      </trkpt>
      <trkpt lat="45.49856" lon="2.78249">
        <ele>1207.295</ele>
        <time>2015-08-20T08:19:44Z</time>
      </trkpt>
      <trkpt lat="45.49857" lon="2.78251">
        <ele>1209.7397</ele>
        <time>2015-08-20T08:19:51Z</time>
      </trkpt>
      <trkpt lat="45.49881" lon="2.78278">
        <ele>1212.1509</ele>
        <time>2015-08-20T08:20:31Z</time>
      </trkpt>
      <trkpt lat="45.49887" lon="2.78282">
        <ele>1212.1509</ele>
        <time>2015-08-20T08:20:36Z</time>
      </trkpt>
      <trkpt lat="45.49891" lon="2.78287">
        <ele>1214.3246</ele>
        <time>2015-08-20T08:20:41Z</time>
      </trkpt>
      <trkpt lat="45.49895" lon="2.78293">
        <ele>1214.3246</ele>
        <time>2015-08-20T08:20:46Z</time>
      </trkpt>
      <trkpt lat="45.49898" lon="2.78298">
        <ele>1216.2454</ele>
        <time>2015-08-20T08:20:51Z</time>
      </trkpt>
      <trkpt lat="45.49902" lon="2.78302">
        <ele>1216.2454</ele>
        <time>2015-08-20T08:20:56Z</time>
      </trkpt>
      <trkpt lat="45.49907" lon="2.78306">
        <ele>1217.9143</ele>
        <time>2015-08-20T08:21:01Z</time>
      </trkpt>
      <trkpt lat="45.49912" lon="2.78308">
        <ele>1217.9143</ele>
        <time>2015-08-20T08:21:06Z</time>
      </trkpt>
      <trkpt lat="45.49917" lon="2.78313">
        <ele>1219.3907</ele>
        <time>2015-08-20T08:21:11Z</time>
      </trkpt>
      <trkpt lat="45.49921" lon="2.78314">
        <ele>1219.3907</ele>
        <time>2015-08-20T08:21:16Z</time>
      </trkpt>
      <trkpt lat="45.49925" lon="2.78317">
        <ele>1219.3907</ele>
        <time>2015-08-20T08:21:21Z</time>
      </trkpt>
      <trkpt lat="45.4993" lon="2.78319">
        <ele>1220.6725</ele>
        <time>2015-08-20T08:21:26Z</time>
      </trkpt>
      <trkpt lat="45.49934" lon="2.78324">
        <ele>1220.6725</ele>
        <time>2015-08-20T08:21:31Z</time>
      </trkpt>
      <trkpt lat="45.49937" lon="2.78328">
        <ele>1221.816</ele>
        <time>2015-08-20T08:21:36Z</time>
      </trkpt>
      <trkpt lat="45.4994" lon="2.7833">
        <ele>1221.816</ele>
        <time>2015-08-20T08:21:41Z</time>
      </trkpt>
      <trkpt lat="45.4994" lon="2.7833">
        <ele>1221.816</ele>
        <time>2015-08-20T08:21:46Z</time>
      </trkpt>
      <trkpt lat="45.49942" lon="2.78341">
        <ele>1223.537</ele>
        <time>2015-08-20T08:23:06Z</time>
      </trkpt>
      <trkpt lat="45.49942" lon="2.78341">
        <ele>1223.537</ele>
        <time>2015-08-20T08:23:11Z</time>
      </trkpt>
      <trkpt lat="45.49953" lon="2.78355">
        <ele>1225.2432</ele>
        <time>2015-08-20T08:24:14Z</time>
      </trkpt>
      <trkpt lat="45.49953" lon="2.78361">
        <ele>1225.2432</ele>
        <time>2015-08-20T08:24:17Z</time>
      </trkpt>
      <trkpt lat="45.49956" lon="2.78381">
        <ele>1226.8036</ele>
        <time>2015-08-20T08:24:37Z</time>
      </trkpt>
      <trkpt lat="45.49957" lon="2.78387">
        <ele>1226.8036</ele>
        <time>2015-08-20T08:24:41Z</time>
      </trkpt>
      <trkpt lat="45.49957" lon="2.78392">
        <ele>1226.8036</ele>
        <time>2015-08-20T08:24:46Z</time>
      </trkpt>
      <trkpt lat="45.49958" lon="2.78396">
        <ele>1228.3717</ele>
        <time>2015-08-20T08:24:51Z</time>
      </trkpt>
      <trkpt lat="45.49957" lon="2.78401">
        <ele>1228.3717</ele>
        <time>2015-08-20T08:24:56Z</time>
      </trkpt>
      <trkpt lat="45.49959" lon="2.78406">
        <ele>1228.3717</ele>
        <time>2015-08-20T08:25:01Z</time>
      </trkpt>
      <trkpt lat="45.49981" lon="2.78436">
        <ele>1230.0316</ele>
        <time>2015-08-20T08:25:31Z</time>
      </trkpt>
      <trkpt lat="45.49983" lon="2.78439">
        <ele>1230.0316</ele>
        <time>2015-08-20T08:25:38Z</time>
      </trkpt>
      <trkpt lat="45.49985" lon="2.78444">
        <ele>1230.0316</ele>
        <time>2015-08-20T08:25:41Z</time>
      </trkpt>
      <trkpt lat="45.49991" lon="2.78451">
        <ele>1231.5732</ele>
        <time>2015-08-20T08:26:01Z</time>
      </trkpt>
      <trkpt lat="45.50033" lon="2.78504">
        <ele>1233.2057</ele>
        <time>2015-08-20T08:26:41Z</time>
      </trkpt>
      <trkpt lat="45.50036" lon="2.78508">
        <ele>1233.2057</ele>
        <time>2015-08-20T08:26:54Z</time>
      </trkpt>
      <trkpt lat="45.50049" lon="2.78536">
        <ele>1234.8629</ele>
        <time>2015-08-20T08:27:12Z</time>
      </trkpt>
      <trkpt lat="45.50048" lon="2.78537">
        <ele>1234.8629</ele>
        <time>2015-08-20T08:27:12Z</time>
      </trkpt>
      <trkpt lat="45.50054" lon="2.78555">
        <ele>1236.3112</ele>
        <time>2015-08-20T08:27:41Z</time>
      </trkpt>
      <trkpt lat="45.50057" lon="2.78563">
        <ele>1236.3112</ele>
        <time>2015-08-20T08:27:46Z</time>
      </trkpt>
      <trkpt lat="45.50052" lon="2.78567">
        <ele>1238.1556</ele>
        <time>2015-08-20T08:27:53Z</time>
      </trkpt>
      <trkpt lat="45.50066" lon="2.78569">
        <ele>1240.0483</ele>
        <time>2015-08-20T08:28:01Z</time>
      </trkpt>
      <trkpt lat="45.50065" lon="2.78574">
        <ele>1240.0483</ele>
        <time>2015-08-20T08:28:06Z</time>
      </trkpt>
      <trkpt lat="45.50067" lon="2.78578">
        <ele>1240.0483</ele>
        <time>2015-08-20T08:28:11Z</time>
      </trkpt>
      <trkpt lat="45.50069" lon="2.78584">
        <ele>1241.9982</ele>
        <time>2015-08-20T08:28:16Z</time>
      </trkpt>
      <trkpt lat="45.50068" lon="2.78589">
        <ele>1241.9982</ele>
        <time>2015-08-20T08:28:21Z</time>
      </trkpt>
      <trkpt lat="45.50077" lon="2.78628">
        <ele>1244.3302</ele>
        <time>2015-08-20T08:29:05Z</time>
      </trkpt>
      <trkpt lat="45.50086" lon="2.78653">
        <ele>1246.5234</ele>
        <time>2015-08-20T08:29:24Z</time>
      </trkpt>
      <trkpt lat="45.50087" lon="2.78677">
        <ele>1248.6431</ele>
        <time>2015-08-20T08:29:42Z</time>
      </trkpt>
      <trkpt lat="45.50094" lon="2.78684">
        <ele>1248.6431</ele>
        <time>2015-08-20T08:29:52Z</time>
      </trkpt>
      <trkpt lat="45.50095" lon="2.78684">
        <ele>1250.7498</ele>
        <time>2015-08-20T08:30:00Z</time>
      </trkpt>
      <trkpt lat="45.50105" lon="2.78697">
        <ele>1253.0007</ele>
        <time>2015-08-20T08:30:11Z</time>
      </trkpt>
      <trkpt lat="45.50107" lon="2.78704">
        <ele>1253.0007</ele>
        <time>2015-08-20T08:30:16Z</time>
      </trkpt>
      <trkpt lat="45.50115" lon="2.78725">
        <ele>1255.5991</ele>
        <time>2015-08-20T08:30:41Z</time>
      </trkpt>
      <trkpt lat="45.5012" lon="2.78734">
        <ele>1255.5991</ele>
        <time>2015-08-20T08:30:52Z</time>
      </trkpt>
      <trkpt lat="45.50123" lon="2.78741">
        <ele>1258.0548</ele>
        <time>2015-08-20T08:30:56Z</time>
      </trkpt>
      <trkpt lat="45.50124" lon="2.78746">
        <ele>1258.0548</ele>
        <time>2015-08-20T08:31:01Z</time>
      </trkpt>
      <trkpt lat="45.50128" lon="2.78751">
        <ele>1260.2888</ele>
        <time>2015-08-20T08:31:06Z</time>
      </trkpt>
      <trkpt lat="45.50144" lon="2.7878">
        <ele>1262.488</ele>
        <time>2015-08-20T08:31:30Z</time>
      </trkpt>
      <trkpt lat="45.50144" lon="2.7878">
        <ele>1262.488</ele>
        <time>2015-08-20T08:31:31Z</time>
      </trkpt>
      <trkpt lat="45.50161" lon="2.788">
        <ele>1264.4802</ele>
        <time>2015-08-20T08:31:56Z</time>
      </trkpt>
      <trkpt lat="45.50176" lon="2.78843">
        <ele>1267.2013</ele>
        <time>2015-08-20T08:32:39Z</time>
      </trkpt>
      <trkpt lat="45.50176" lon="2.78844">
        <ele>1267.2013</ele>
        <time>2015-08-20T08:32:44Z</time>
      </trkpt>
      <trkpt lat="45.50182" lon="2.78865">
        <ele>1269.9893</ele>
        <time>2015-08-20T08:32:56Z</time>
      </trkpt>
      <trkpt lat="45.50182" lon="2.78866">
        <ele>1269.9893</ele>
        <time>2015-08-20T08:33:06Z</time>
      </trkpt>
      <trkpt lat="45.50185" lon="2.78876">
        <ele>1269.9893</ele>
        <time>2015-08-20T08:33:16Z</time>
      </trkpt>
      <trkpt lat="45.50186" lon="2.78896">
        <ele>1273.0518</ele>
        <time>2015-08-20T08:33:37Z</time>
      </trkpt>
      <trkpt lat="45.50192" lon="2.78908">
        <ele>1275.8892</ele>
        <time>2015-08-20T08:33:54Z</time>
      </trkpt>
      <trkpt lat="45.50197" lon="2.78918">
        <ele>1278.4135</ele>
        <time>2015-08-20T08:34:01Z</time>
      </trkpt>
      <trkpt lat="45.50198" lon="2.78918">
        <ele>1278.4135</ele>
        <time>2015-08-20T08:34:06Z</time>
      </trkpt>
      <trkpt lat="45.50199" lon="2.78922">
        <ele>1278.4135</ele>
        <time>2015-08-20T08:34:11Z</time>
      </trkpt>
      <trkpt lat="45.50198" lon="2.78922">
        <ele>1278.4135</ele>
        <time>2015-08-20T08:34:16Z</time>
      </trkpt>
      <trkpt lat="45.50195" lon="2.78952">
        <ele>1280.4292</ele>
        <time>2015-08-20T08:35:31Z</time>
      </trkpt>
      <trkpt lat="45.50194" lon="2.78973">
        <ele>1282.0305</ele>
        <time>2015-08-20T08:35:51Z</time>
      </trkpt>
      <trkpt lat="45.50196" lon="2.78977">
        <ele>1282.0305</ele>
        <time>2015-08-20T08:35:56Z</time>
      </trkpt>
      <trkpt lat="45.50202" lon="2.78985">
        <ele>1283.7958</ele>
        <time>2015-08-20T08:36:21Z</time>
      </trkpt>
      <trkpt lat="45.50206" lon="2.7899">
        <ele>1283.7958</ele>
        <time>2015-08-20T08:37:01Z</time>
      </trkpt>
      <trkpt lat="45.5021" lon="2.78992">
        <ele>1286.1885</ele>
        <time>2015-08-20T08:37:06Z</time>
      </trkpt>
      <trkpt lat="45.50257" lon="2.79007">
        <ele>1288.1808</ele>
        <time>2015-08-20T08:38:00Z</time>
      </trkpt>
      <trkpt lat="45.50258" lon="2.79007">
        <ele>1288.1808</ele>
        <time>2015-08-20T08:38:08Z</time>
      </trkpt>
      <trkpt lat="45.50271" lon="2.79016">
        <ele>1289.9171</ele>
        <time>2015-08-20T08:38:13Z</time>
      </trkpt>
      <trkpt lat="45.50274" lon="2.79019">
        <ele>1289.9171</ele>
        <time>2015-08-20T08:38:33Z</time>
      </trkpt>
      <trkpt lat="45.50288" lon="2.79038">
        <ele>1291.3445</ele>
        <time>2015-08-20T08:38:33Z</time>
      </trkpt>
      <trkpt lat="45.50309" lon="2.79059">
        <ele>1292.5587</ele>
        <time>2015-08-20T08:38:56Z</time>
      </trkpt>
      <trkpt lat="45.50317" lon="2.79062">
        <ele>1293.5486</ele>
        <time>2015-08-20T08:39:15Z</time>
      </trkpt>
      <trkpt lat="45.50327" lon="2.79067">
        <ele>1294.3187</ele>
        <time>2015-08-20T08:39:32Z</time>
      </trkpt>
      <trkpt lat="45.50344" lon="2.79078">
        <ele>1294.9607</ele>
        <time>2015-08-20T08:39:40Z</time>
      </trkpt>
      <trkpt lat="45.50371" lon="2.79088">
        <ele>1295.4873</ele>
        <time>2015-08-20T08:39:56Z</time>
      </trkpt>
      <trkpt lat="45.50374" lon="2.79087">
        <ele>1295.4873</ele>
        <time>2015-08-20T08:40:11Z</time>
      </trkpt>
      <trkpt lat="45.50391" lon="2.79057">
        <ele>1295.9542</ele>
        <time>2015-08-20T08:40:27Z</time>
      </trkpt>
      <trkpt lat="45.50424" lon="2.79048">
        <ele>1296.3412</ele>
        <time>2015-08-20T08:40:54Z</time>
      </trkpt>
      <trkpt lat="45.50427" lon="2.79046">
        <ele>1296.3412</ele>
        <time>2015-08-20T08:40:56Z</time>
      </trkpt>
      <trkpt lat="45.50437" lon="2.79042">
        <ele>1296.6007</ele>
        <time>2015-08-20T08:41:09Z</time>
      </trkpt>
      <trkpt lat="45.50438" lon="2.79042">
        <ele>1296.6007</ele>
        <time>2015-08-20T08:41:16Z</time>
      </trkpt>
      <trkpt lat="45.50456" lon="2.79035">
        <ele>1296.891</ele>
        <time>2015-08-20T08:41:41Z</time>
      </trkpt>
      <trkpt lat="45.50478" lon="2.79037">
        <ele>1296.9835</ele>
        <time>2015-08-20T08:41:56Z</time>
      </trkpt>
      <trkpt lat="45.50485" lon="2.79041">
        <ele>1296.9835</ele>
        <time>2015-08-20T08:42:02Z</time>
      </trkpt>
      <trkpt lat="45.5049" lon="2.79048">
        <ele>1296.6963</ele>
        <time>2015-08-20T08:42:13Z</time>
      </trkpt>
      <trkpt lat="45.50512" lon="2.79074">
        <ele>1296.1351</ele>
        <time>2015-08-20T08:42:48Z</time>
      </trkpt>
      <trkpt lat="45.5052" lon="2.79084">
        <ele>1295.5431</ele>
        <time>2015-08-20T08:42:56Z</time>
      </trkpt>
      <trkpt lat="45.50523" lon="2.79091">
        <ele>1295.5431</ele>
        <time>2015-08-20T08:43:01Z</time>
      </trkpt>
      <trkpt lat="45.50525" lon="2.79097">
        <ele>1295.0302</ele>
        <time>2015-08-20T08:43:07Z</time>
      </trkpt>
      <trkpt lat="45.50531" lon="2.79101">
        <ele>1295.0302</ele>
        <time>2015-08-20T08:43:11Z</time>
      </trkpt>
      <trkpt lat="45.50534" lon="2.79107">
        <ele>1294.6256</ele>
        <time>2015-08-20T08:43:16Z</time>
      </trkpt>
      <trkpt lat="45.50555" lon="2.79147">
        <ele>1294.9327</ele>
        <time>2015-08-20T08:43:56Z</time>
      </trkpt>
      <trkpt lat="45.50564" lon="2.7916">
        <ele>1295.197</ele>
        <time>2015-08-20T08:44:18Z</time>
      </trkpt>
      <trkpt lat="45.50551" lon="2.79136">
        <ele>1295.4688</ele>
        <time>2015-08-20T08:44:41Z</time>
      </trkpt>
      <trkpt lat="45.50548" lon="2.79137">
        <ele>1295.4688</ele>
        <time>2015-08-20T08:44:52Z</time>
      </trkpt>
      <trkpt lat="45.50555" lon="2.79156">
        <ele>1295.6213</ele>
        <time>2015-08-20T08:44:58Z</time>
      </trkpt>
      <trkpt lat="45.5056" lon="2.79165">
        <ele>1295.6213</ele>
        <time>2015-08-20T08:45:13Z</time>
      </trkpt>
      <trkpt lat="45.50561" lon="2.79165">
        <ele>1295.6213</ele>
        <time>2015-08-20T08:45:22Z</time>
      </trkpt>
      <trkpt lat="45.50579" lon="2.79206">
        <ele>1295.8693</ele>
        <time>2015-08-20T08:45:46Z</time>
      </trkpt>
      <trkpt lat="45.50582" lon="2.7922">
        <ele>1296.0792</ele>
        <time>2015-08-20T08:45:57Z</time>
      </trkpt>
      <trkpt lat="45.50583" lon="2.79227">
        <ele>1296.0792</ele>
        <time>2015-08-20T08:46:02Z</time>
      </trkpt>
      <trkpt lat="45.50594" lon="2.79253">
        <ele>1296.0415</ele>
        <time>2015-08-20T08:46:20Z</time>
      </trkpt>
      <trkpt lat="45.50595" lon="2.79254">
        <ele>1296.0415</ele>
        <time>2015-08-20T08:46:21Z</time>
      </trkpt>
      <trkpt lat="45.506" lon="2.7926">
        <ele>1296.0415</ele>
        <time>2015-08-20T08:46:52Z</time>
      </trkpt>
      <trkpt lat="45.50609" lon="2.79296">
        <ele>1295.4036</ele>
        <time>2015-08-20T08:46:58Z</time>
      </trkpt>
      <trkpt lat="45.50637" lon="2.79367">
        <ele>1294.4026</ele>
        <time>2015-08-20T08:47:56Z</time>
      </trkpt>
      <trkpt lat="45.50641" lon="2.79373">
        <ele>1294.4026</ele>
        <time>2015-08-20T08:48:02Z</time>
      </trkpt>
      <trkpt lat="45.50643" lon="2.79374">
        <ele>1294.4026</ele>
        <time>2015-08-20T08:48:09Z</time>
      </trkpt>
      <trkpt lat="45.50647" lon="2.79379">
        <ele>1293.3597</ele>
        <time>2015-08-20T08:48:18Z</time>
      </trkpt>
      <trkpt lat="45.50655" lon="2.79401">
        <ele>1292.2847</ele>
        <time>2015-08-20T08:48:26Z</time>
      </trkpt>
      <trkpt lat="45.50655" lon="2.79402">
        <ele>1292.2847</ele>
        <time>2015-08-20T08:48:27Z</time>
      </trkpt>
      <trkpt lat="45.50658" lon="2.79404">
        <ele>1292.2847</ele>
        <time>2015-08-20T08:48:42Z</time>
      </trkpt>
      <trkpt lat="45.50669" lon="2.79426">
        <ele>1290.8258</ele>
        <time>2015-08-20T08:48:58Z</time>
      </trkpt>
      <trkpt lat="45.50671" lon="2.79428">
        <ele>1290.8258</ele>
        <time>2015-08-20T08:49:01Z</time>
      </trkpt>
      <trkpt lat="45.50715" lon="2.79485">
        <ele>1289.7823</ele>
        <time>2015-08-20T08:49:58Z</time>
      </trkpt>
      <trkpt lat="45.50717" lon="2.79491">
        <ele>1289.7823</ele>
        <time>2015-08-20T08:50:02Z</time>
      </trkpt>
      <trkpt lat="45.5074" lon="2.7953">
        <ele>1289.0002</ele>
        <time>2015-08-20T08:50:42Z</time>
      </trkpt>
      <trkpt lat="45.50746" lon="2.79531">
        <ele>1289.0002</ele>
        <time>2015-08-20T08:50:42Z</time>
      </trkpt>
      <trkpt lat="45.50757" lon="2.79533">
        <ele>1288.4219</ele>
        <time>2015-08-20T08:51:02Z</time>
      </trkpt>
      <trkpt lat="45.50758" lon="2.79533">
        <ele>1288.4219</ele>
        <time>2015-08-20T08:51:10Z</time>
      </trkpt>
      <trkpt lat="45.50763" lon="2.79537">
        <ele>1288.4219</ele>
        <time>2015-08-20T08:51:12Z</time>
      </trkpt>
      <trkpt lat="45.50771" lon="2.79543">
        <ele>1288.0223</ele>
        <time>2015-08-20T08:51:21Z</time>
      </trkpt>
      <trkpt lat="45.50788" lon="2.79561">
        <ele>1287.9506</ele>
        <time>2015-08-20T08:51:48Z</time>
      </trkpt>
      <trkpt lat="45.50802" lon="2.79567">
        <ele>1287.9976</ele>
        <time>2015-08-20T08:52:01Z</time>
      </trkpt>
      <trkpt lat="45.50825" lon="2.79578">
        <ele>1288.4307</ele>
        <time>2015-08-20T08:52:36Z</time>
      </trkpt>
      <trkpt lat="45.5083" lon="2.79581">
        <ele>1288.4307</ele>
        <time>2015-08-20T08:52:50Z</time>
      </trkpt>
      <trkpt lat="45.50832" lon="2.79581">
        <ele>1288.4307</ele>
        <time>2015-08-20T08:52:51Z</time>
      </trkpt>
      <trkpt lat="45.50838" lon="2.79582">
        <ele>1289.2076</ele>
        <time>2015-08-20T08:52:59Z</time>
      </trkpt>
      <trkpt lat="45.50838" lon="2.79582">
        <ele>1289.2076</ele>
        <time>2015-08-20T08:53:02Z</time>
      </trkpt>
      <trkpt lat="45.50839" lon="2.79581">
        <ele>1289.2076</ele>
        <time>2015-08-20T08:53:11Z</time>
      </trkpt>
      <trkpt lat="45.5085" lon="2.79595">
        <ele>1290.0435</ele>
        <time>2015-08-20T08:53:24Z</time>
      </trkpt>
      <trkpt lat="45.50855" lon="2.79601">
        <ele>1290.0435</ele>
        <time>2015-08-20T08:53:26Z</time>
      </trkpt>
      <trkpt lat="45.50871" lon="2.79615">
        <ele>1291.5386</ele>
        <time>2015-08-20T08:53:57Z</time>
      </trkpt>
      <trkpt lat="45.50875" lon="2.79632">
        <ele>1293.224</ele>
        <time>2015-08-20T08:54:02Z</time>
      </trkpt>
      <trkpt lat="45.50894" lon="2.79647">
        <ele>1295.1544</ele>
        <time>2015-08-20T08:54:26Z</time>
      </trkpt>
      <trkpt lat="45.50904" lon="2.79657">
        <ele>1297.0774</ele>
        <time>2015-08-20T08:54:56Z</time>
      </trkpt>
      <trkpt lat="45.50922" lon="2.79672">
        <ele>1298.9603</ele>
        <time>2015-08-20T08:55:01Z</time>
      </trkpt>
      <trkpt lat="45.5092" lon="2.79671">
        <ele>1298.9603</ele>
        <time>2015-08-20T08:55:51Z</time>
      </trkpt>
      <trkpt lat="45.5095" lon="2.79704">
        <ele>1301.2201</ele>
        <time>2015-08-20T08:56:04Z</time>
      </trkpt>
      <trkpt lat="45.50951" lon="2.7971">
        <ele>1301.2201</ele>
        <time>2015-08-20T08:56:04Z</time>
      </trkpt>
      <trkpt lat="45.50953" lon="2.79712">
        <ele>1301.2201</ele>
        <time>2015-08-20T08:56:17Z</time>
      </trkpt>
      <trkpt lat="45.50988" lon="2.79742">
        <ele>1303.6654</ele>
        <time>2015-08-20T08:56:56Z</time>
      </trkpt>
      <trkpt lat="45.50987" lon="2.79742">
        <ele>1303.6654</ele>
        <time>2015-08-20T08:57:01Z</time>
      </trkpt>
      <trkpt lat="45.50995" lon="2.79742">
        <ele>1303.6654</ele>
        <time>2015-08-20T08:57:06Z</time>
      </trkpt>
      <trkpt lat="45.51" lon="2.79747">
        <ele>1305.4844</ele>
        <time>2015-08-20T08:57:11Z</time>
      </trkpt>
      <trkpt lat="45.51004" lon="2.7975">
        <ele>1305.4844</ele>
        <time>2015-08-20T08:57:16Z</time>
      </trkpt>
      <trkpt lat="45.51009" lon="2.79754">
        <ele>1307.3099</ele>
        <time>2015-08-20T08:57:21Z</time>
      </trkpt>
      <trkpt lat="45.51017" lon="2.79779">
        <ele>1308.7052</ele>
        <time>2015-08-20T08:57:51Z</time>
      </trkpt>
      <trkpt lat="45.5102" lon="2.79785">
        <ele>1308.7052</ele>
        <time>2015-08-20T08:57:56Z</time>
      </trkpt>
      <trkpt lat="45.5106" lon="2.79838">
        <ele>1310.5206</ele>
        <time>2015-08-20T08:59:51Z</time>
      </trkpt>
      <trkpt lat="45.51092" lon="2.79871">
        <ele>1312.462</ele>
        <time>2015-08-20T08:59:57Z</time>
      </trkpt>
      <trkpt lat="45.51133" lon="2.79892">
        <ele>1314.3718</ele>
        <time>2015-08-20T09:00:21Z</time>
      </trkpt>
      <trkpt lat="45.51129" lon="2.79892">
        <ele>1314.3718</ele>
        <time>2015-08-20T09:00:52Z</time>
      </trkpt>
      <trkpt lat="45.51131" lon="2.79893">
        <ele>1314.3718</ele>
        <time>2015-08-20T09:00:56Z</time>
      </trkpt>
      <trkpt lat="45.51129" lon="2.79896">
        <ele>1316.162</ele>
        <time>2015-08-20T09:01:03Z</time>
      </trkpt>
      <trkpt lat="45.51124" lon="2.79901">
        <ele>1316.162</ele>
        <time>2015-08-20T09:01:06Z</time>
      </trkpt>
      <trkpt lat="45.5112" lon="2.79898">
        <ele>1317.7654</ele>
        <time>2015-08-20T09:01:11Z</time>
      </trkpt>
      <trkpt lat="45.51113" lon="2.79892">
        <ele>1317.7654</ele>
        <time>2015-08-20T09:01:16Z</time>
      </trkpt>
      <trkpt lat="45.51115" lon="2.79892">
        <ele>1319.3081</ele>
        <time>2015-08-20T09:01:22Z</time>
      </trkpt>
      <trkpt lat="45.51133" lon="2.79896">
        <ele>1320.8927</ele>
        <time>2015-08-20T09:01:30Z</time>
      </trkpt>
      <trkpt lat="45.51138" lon="2.79897">
        <ele>1320.8927</ele>
        <time>2015-08-20T09:01:41Z</time>
      </trkpt>
      <trkpt lat="45.51136" lon="2.79904">
        <ele>1322.369</ele>
        <time>2015-08-20T09:01:54Z</time>
      </trkpt>
      <trkpt lat="45.51136" lon="2.79907">
        <ele>1322.369</ele>
        <time>2015-08-20T09:02:00Z</time>
      </trkpt>
      <trkpt lat="45.51133" lon="2.79932">
        <ele>1325.0538</ele>
        <time>2015-08-20T09:03:00Z</time>
      </trkpt>
      <trkpt lat="45.51138" lon="2.79938">
        <ele>1325.0538</ele>
        <time>2015-08-20T09:03:13Z</time>
      </trkpt>
      <trkpt lat="45.51142" lon="2.79958">
        <ele>1328.3483</ele>
        <time>2015-08-20T09:03:39Z</time>
      </trkpt>
      <trkpt lat="45.51145" lon="2.79967">
        <ele>1328.3483</ele>
        <time>2015-08-20T09:03:39Z</time>
      </trkpt>
      <trkpt lat="45.51152" lon="2.79975">
        <ele>1331.523</ele>
        <time>2015-08-20T09:03:48Z</time>
      </trkpt>
      <trkpt lat="45.51155" lon="2.79981">
        <ele>1331.523</ele>
        <time>2015-08-20T09:03:56Z</time>
      </trkpt>
      <trkpt lat="45.51154" lon="2.79987">
        <ele>1334.6227</ele>
        <time>2015-08-20T09:04:01Z</time>
      </trkpt>
      <trkpt lat="45.51154" lon="2.79992">
        <ele>1334.6227</ele>
        <time>2015-08-20T09:04:08Z</time>
      </trkpt>
      <trkpt lat="45.51153" lon="2.79995">
        <ele>1334.6227</ele>
        <time>2015-08-20T09:04:11Z</time>
      </trkpt>
      <trkpt lat="45.5115" lon="2.8002">
        <ele>1337.4879</ele>
        <time>2015-08-20T09:04:51Z</time>
      </trkpt>
      <trkpt lat="45.51144" lon="2.80031">
        <ele>1340.0723</ele>
        <time>2015-08-20T09:05:00Z</time>
      </trkpt>
      <trkpt lat="45.51143" lon="2.80034">
        <ele>1340.0723</ele>
        <time>2015-08-20T09:05:02Z</time>
      </trkpt>
      <trkpt lat="45.5113" lon="2.80071">
        <ele>1342.9536</ele>
        <time>2015-08-20T09:05:58Z</time>
      </trkpt>
      <trkpt lat="45.5113" lon="2.80079">
        <ele>1342.9536</ele>
        <time>2015-08-20T09:06:03Z</time>
      </trkpt>
      <trkpt lat="45.5113" lon="2.80082">
        <ele>1342.9536</ele>
        <time>2015-08-20T09:06:11Z</time>
      </trkpt>
      <trkpt lat="45.5113" lon="2.80096">
        <ele>1345.6144</ele>
        <time>2015-08-20T09:06:21Z</time>
      </trkpt>
      <trkpt lat="45.51127" lon="2.80102">
        <ele>1345.6144</ele>
        <time>2015-08-20T09:06:41Z</time>
      </trkpt>
      <trkpt lat="45.51122" lon="2.8011">
        <ele>1348.1235</ele>
        <time>2015-08-20T09:06:53Z</time>
      </trkpt>
      <trkpt lat="45.51121" lon="2.80111">
        <ele>1348.1235</ele>
        <time>2015-08-20T09:06:53Z</time>
      </trkpt>
      <trkpt lat="45.51119" lon="2.80112">
        <ele>1348.1235</ele>
        <time>2015-08-20T09:06:56Z</time>
      </trkpt>
      <trkpt lat="45.51114" lon="2.80139">
        <ele>1350.7617</ele>
        <time>2015-08-20T09:07:34Z</time>
      </trkpt>
      <trkpt lat="45.51102" lon="2.80163">
        <ele>1353.342</ele>
        <time>2015-08-20T09:07:58Z</time>
      </trkpt>
      <trkpt lat="45.51098" lon="2.80166">
        <ele>1353.342</ele>
        <time>2015-08-20T09:08:01Z</time>
      </trkpt>
      <trkpt lat="45.51092" lon="2.80175">
        <ele>1355.6628</ele>
        <time>2015-08-20T09:08:13Z</time>
      </trkpt>
      <trkpt lat="45.5109" lon="2.80176">
        <ele>1355.6628</ele>
        <time>2015-08-20T09:08:24Z</time>
      </trkpt>
      <trkpt lat="45.51084" lon="2.80181">
        <ele>1355.6628</ele>
        <time>2015-08-20T09:08:24Z</time>
      </trkpt>
      <trkpt lat="45.51061" lon="2.80172">
        <ele>1357.9128</ele>
        <time>2015-08-20T09:08:58Z</time>
      </trkpt>
      <trkpt lat="45.51053" lon="2.80169">
        <ele>1357.9128</ele>
        <time>2015-08-20T09:09:36Z</time>
      </trkpt>
      <trkpt lat="45.51043" lon="2.80163">
        <ele>1360.339</ele>
        <time>2015-08-20T09:09:56Z</time>
      </trkpt>
      <trkpt lat="45.51025" lon="2.80153">
        <ele>1362.6227</ele>
        <time>2015-08-20T09:10:20Z</time>
      </trkpt>
      <trkpt lat="45.51024" lon="2.80153">
        <ele>1362.6227</ele>
        <time>2015-08-20T09:10:21Z</time>
      </trkpt>
      <trkpt lat="45.51005" lon="2.80142">
        <ele>1364.8724</ele>
        <time>2015-08-20T09:10:56Z</time>
      </trkpt>
      <trkpt lat="45.50963" lon="2.80119">
        <ele>1367.3619</ele>
        <time>2015-08-20T09:12:04Z</time>
      </trkpt>
      <trkpt lat="45.50951" lon="2.80123">
        <ele>1369.7103</ele>
        <time>2015-08-20T09:12:21Z</time>
      </trkpt>
      <trkpt lat="45.50938" lon="2.80126">
        <ele>1371.8246</ele>
        <time>2015-08-20T09:12:44Z</time>
      </trkpt>
      <trkpt lat="45.50932" lon="2.80133">
        <ele>1371.8246</ele>
        <time>2015-08-20T09:12:51Z</time>
      </trkpt>
      <trkpt lat="45.50928" lon="2.8014">
        <ele>1373.7057</ele>
        <time>2015-08-20T09:12:57Z</time>
      </trkpt>
      <trkpt lat="45.50921" lon="2.80163">
        <ele>1375.4132</ele>
        <time>2015-08-20T09:13:18Z</time>
      </trkpt>
      <trkpt lat="45.50911" lon="2.80194">
        <ele>1377.1036</ele>
        <time>2015-08-20T09:13:41Z</time>
      </trkpt>
      <trkpt lat="45.50908" lon="2.80211">
        <ele>1378.6194</ele>
        <time>2015-08-20T09:13:55Z</time>
      </trkpt>
      <trkpt lat="45.50909" lon="2.80213">
        <ele>1378.6194</ele>
        <time>2015-08-20T09:13:56Z</time>
      </trkpt>
      <trkpt lat="45.50905" lon="2.80254">
        <ele>1380.6802</ele>
        <time>2015-08-20T09:14:41Z</time>
      </trkpt>
      <trkpt lat="45.50904" lon="2.80256">
        <ele>1380.6802</ele>
        <time>2015-08-20T09:14:45Z</time>
      </trkpt>
      <trkpt lat="45.50904" lon="2.80259">
        <ele>1380.6802</ele>
        <time>2015-08-20T09:14:46Z</time>
      </trkpt>
      <trkpt lat="45.50905" lon="2.80269">
        <ele>1382.697</ele>
        <time>2015-08-20T09:14:55Z</time>
      </trkpt>
      <trkpt lat="45.50905" lon="2.80271">
        <ele>1382.697</ele>
        <time>2015-08-20T09:14:56Z</time>
      </trkpt>
      <trkpt lat="45.50913" lon="2.80315">
        <ele>1385.0616</ele>
        <time>2015-08-20T09:15:40Z</time>
      </trkpt>
      <trkpt lat="45.50921" lon="2.80331">
        <ele>1387.2714</ele>
        <time>2015-08-20T09:15:55Z</time>
      </trkpt>
      <trkpt lat="45.50922" lon="2.80332">
        <ele>1387.2714</ele>
        <time>2015-08-20T09:15:56Z</time>
      </trkpt>
      <trkpt lat="45.50927" lon="2.80358">
        <ele>1389.9703</ele>
        <time>2015-08-20T09:16:41Z</time>
      </trkpt>
      <trkpt lat="45.50929" lon="2.80373">
        <ele>1392.4718</ele>
        <time>2015-08-20T09:16:55Z</time>
      </trkpt>
      <trkpt lat="45.50929" lon="2.80375">
        <ele>1392.4718</ele>
        <time>2015-08-20T09:16:56Z</time>
      </trkpt>
      <trkpt lat="45.5093" lon="2.80384">
        <ele>1392.4718</ele>
        <time>2015-08-20T09:17:12Z</time>
      </trkpt>
      <trkpt lat="45.50935" lon="2.80392">
        <ele>1394.8462</ele>
        <time>2015-08-20T09:17:13Z</time>
      </trkpt>
      <trkpt lat="45.50936" lon="2.80393">
        <ele>1394.8462</ele>
        <time>2015-08-20T09:17:14Z</time>
      </trkpt>
      <trkpt lat="45.50936" lon="2.80394">
        <ele>1394.8462</ele>
        <time>2015-08-20T09:17:21Z</time>
      </trkpt>
      <trkpt lat="45.50935" lon="2.80415">
        <ele>1397.2599</ele>
        <time>2015-08-20T09:17:36Z</time>
      </trkpt>
      <trkpt lat="45.50926" lon="2.80429">
        <ele>1399.6942</ele>
        <time>2015-08-20T09:17:56Z</time>
      </trkpt>
      <trkpt lat="45.50921" lon="2.80441">
        <ele>1402.0887</ele>
        <time>2015-08-20T09:18:16Z</time>
      </trkpt>
      <trkpt lat="45.50916" lon="2.80448">
        <ele>1402.0887</ele>
        <time>2015-08-20T09:18:30Z</time>
      </trkpt>
      <trkpt lat="45.5091" lon="2.80462">
        <ele>1404.4885</ele>
        <time>2015-08-20T09:18:38Z</time>
      </trkpt>
      <trkpt lat="45.50913" lon="2.80479">
        <ele>1406.8198</ele>
        <time>2015-08-20T09:18:56Z</time>
      </trkpt>
      <trkpt lat="45.50915" lon="2.8048">
        <ele>1406.8198</ele>
        <time>2015-08-20T09:19:09Z</time>
      </trkpt>
      <trkpt lat="45.50921" lon="2.80497">
        <ele>1409.1304</ele>
        <time>2015-08-20T09:19:25Z</time>
      </trkpt>
      <trkpt lat="45.50929" lon="2.80509">
        <ele>1411.2621</ele>
        <time>2015-08-20T09:19:42Z</time>
      </trkpt>
      <trkpt lat="45.50936" lon="2.80516">
        <ele>1411.2621</ele>
        <time>2015-08-20T09:19:55Z</time>
      </trkpt>
      <trkpt lat="45.50939" lon="2.80532">
        <ele>1413.3147</ele>
        <time>2015-08-20T09:19:56Z</time>
      </trkpt>
      <trkpt lat="45.50955" lon="2.80568">
        <ele>1415.467</ele>
        <time>2015-08-20T09:20:36Z</time>
      </trkpt>
      <trkpt lat="45.50965" lon="2.80588">
        <ele>1417.5676</ele>
        <time>2015-08-20T09:20:56Z</time>
      </trkpt>
      <trkpt lat="45.50975" lon="2.80614">
        <ele>1419.75</ele>
        <time>2015-08-20T09:21:21Z</time>
      </trkpt>
      <trkpt lat="45.50982" lon="2.80643">
        <ele>1421.9648</ele>
        <time>2015-08-20T09:21:46Z</time>
      </trkpt>
      <trkpt lat="45.50982" lon="2.80644">
        <ele>1421.9648</ele>
        <time>2015-08-20T09:21:47Z</time>
      </trkpt>
      <trkpt lat="45.50985" lon="2.80652">
        <ele>1421.9648</ele>
        <time>2015-08-20T09:21:55Z</time>
      </trkpt>
      <trkpt lat="45.50986" lon="2.80653">
        <ele>1421.9648</ele>
        <time>2015-08-20T09:21:56Z</time>
      </trkpt>
      <trkpt lat="45.50996" lon="2.80696">
        <ele>1424.9591</ele>
        <time>2015-08-20T09:22:56Z</time>
      </trkpt>
      <trkpt lat="45.51012" lon="2.80708">
        <ele>1428.2698</ele>
        <time>2015-08-20T09:23:37Z</time>
      </trkpt>
      <trkpt lat="45.51022" lon="2.80719">
        <ele>1431.3661</ele>
        <time>2015-08-20T09:24:00Z</time>
      </trkpt>
      <trkpt lat="45.51024" lon="2.80719">
        <ele>1431.3661</ele>
        <time>2015-08-20T09:24:01Z</time>
      </trkpt>
      <trkpt lat="45.51054" lon="2.80737">
        <ele>1434.6937</ele>
        <time>2015-08-20T09:24:56Z</time>
      </trkpt>
      <trkpt lat="45.51056" lon="2.80739">
        <ele>1434.6937</ele>
        <time>2015-08-20T09:25:03Z</time>
      </trkpt>
      <trkpt lat="45.51058" lon="2.8074">
        <ele>1434.6937</ele>
        <time>2015-08-20T09:25:09Z</time>
      </trkpt>
      <trkpt lat="45.51074" lon="2.8074">
        <ele>1437.8003</ele>
        <time>2015-08-20T09:25:56Z</time>
      </trkpt>
      <trkpt lat="45.51095" lon="2.80743">
        <ele>1441.2762</ele>
        <time>2015-08-20T09:26:12Z</time>
      </trkpt>
      <trkpt lat="45.51113" lon="2.80738">
        <ele>1444.6586</ele>
        <time>2015-08-20T09:26:49Z</time>
      </trkpt>
      <trkpt lat="45.51105" lon="2.80748">
        <ele>1449.7815</ele>
        <time>2015-08-20T09:30:05Z</time>
      </trkpt>
      <trkpt lat="45.511" lon="2.80736">
        <ele>1457.7632</ele>
        <time>2015-08-20T09:31:06Z</time>
      </trkpt>
      <trkpt lat="45.511" lon="2.80736">
        <ele>1457.7632</ele>
        <time>2015-08-20T09:31:14Z</time>
      </trkpt>
      <trkpt lat="45.5109" lon="2.80735">
        <ele>1468.0032</ele>
        <time>2015-08-20T09:34:46Z</time>
      </trkpt>
      <trkpt lat="45.51099" lon="2.80735">
        <ele>1468.0032</ele>
        <time>2015-08-20T09:35:36Z</time>
      </trkpt>
      <trkpt lat="45.51109" lon="2.80746">
        <ele>1477.4459</ele>
        <time>2015-08-20T09:35:56Z</time>
      </trkpt>
      <trkpt lat="45.51112" lon="2.80751">
        <ele>1477.4459</ele>
        <time>2015-08-20T09:36:12Z</time>
      </trkpt>
      <trkpt lat="45.5112" lon="2.8076">
        <ele>1486.0295</ele>
        <time>2015-08-20T09:36:20Z</time>
      </trkpt>
      <trkpt lat="45.5112" lon="2.8076">
        <ele>1486.0295</ele>
        <time>2015-08-20T09:36:21Z</time>
      </trkpt>
      <trkpt lat="45.51124" lon="2.80764">
        <ele>1486.0295</ele>
        <time>2015-08-20T09:36:37Z</time>
      </trkpt>
      <trkpt lat="45.51131" lon="2.80772">
        <ele>1493.8148</ele>
        <time>2015-08-20T09:36:38Z</time>
      </trkpt>
      <trkpt lat="45.51136" lon="2.8078">
        <ele>1493.8148</ele>
        <time>2015-08-20T09:36:47Z</time>
      </trkpt>
      <trkpt lat="45.51138" lon="2.80784">
        <ele>1500.846</ele>
        <time>2015-08-20T09:36:56Z</time>
      </trkpt>
      <trkpt lat="45.51144" lon="2.8079">
        <ele>1500.846</ele>
        <time>2015-08-20T09:37:05Z</time>
      </trkpt>
      <trkpt lat="45.51155" lon="2.80793">
        <ele>1507.1232</ele>
        <time>2015-08-20T09:37:13Z</time>
      </trkpt>
      <trkpt lat="45.51199" lon="2.80798">
        <ele>1513.4418</ele>
        <time>2015-08-20T09:37:54Z</time>
      </trkpt>
      <trkpt lat="45.51201" lon="2.80799">
        <ele>1513.4418</ele>
        <time>2015-08-20T09:37:56Z</time>
      </trkpt>
      <trkpt lat="45.51206" lon="2.80802">
        <ele>1513.4418</ele>
        <time>2015-08-20T09:38:01Z</time>
      </trkpt>
      <trkpt lat="45.51212" lon="2.80803">
        <ele>1519.1696</ele>
        <time>2015-08-20T09:38:06Z</time>
      </trkpt>
      <trkpt lat="45.51218" lon="2.80801">
        <ele>1519.1696</ele>
        <time>2015-08-20T09:38:12Z</time>
      </trkpt>
      <trkpt lat="45.51221" lon="2.80803">
        <ele>1524.285</ele>
        <time>2015-08-20T09:38:23Z</time>
      </trkpt>
      <trkpt lat="45.51242" lon="2.80808">
        <ele>1528.9718</ele>
        <time>2015-08-20T09:38:36Z</time>
      </trkpt>
      <trkpt lat="45.51244" lon="2.80807">
        <ele>1528.9718</ele>
        <time>2015-08-20T09:38:52Z</time>
      </trkpt>
      <trkpt lat="45.5127" lon="2.80811">
        <ele>1533.4883</ele>
        <time>2015-08-20T09:39:03Z</time>
      </trkpt>
      <trkpt lat="45.51276" lon="2.80812">
        <ele>1533.4883</ele>
        <time>2015-08-20T09:39:14Z</time>
      </trkpt>
      <trkpt lat="45.513" lon="2.80814">
        <ele>1538.593</ele>
        <time>2015-08-20T09:39:38Z</time>
      </trkpt>
      <trkpt lat="45.5133" lon="2.80813">
        <ele>1543.0422</ele>
        <time>2015-08-20T09:39:57Z</time>
      </trkpt>
      <trkpt lat="45.51332" lon="2.80812">
        <ele>1543.0422</ele>
        <time>2015-08-20T09:40:06Z</time>
      </trkpt>
      <trkpt lat="45.51348" lon="2.80814">
        <ele>1546.7955</ele>
        <time>2015-08-20T09:40:20Z</time>
      </trkpt>
      <trkpt lat="45.5135" lon="2.80814">
        <ele>1546.7955</ele>
        <time>2015-08-20T09:40:21Z</time>
      </trkpt>
      <trkpt lat="45.51368" lon="2.80818">
        <ele>1549.9613</ele>
        <time>2015-08-20T09:40:42Z</time>
      </trkpt>
      <trkpt lat="45.51383" lon="2.80829">
        <ele>1552.5557</ele>
        <time>2015-08-20T09:41:01Z</time>
      </trkpt>
      <trkpt lat="45.51385" lon="2.80826">
        <ele>1552.5557</ele>
        <time>2015-08-20T09:41:15Z</time>
      </trkpt>
      <trkpt lat="45.51386" lon="2.80824">
        <ele>1552.5557</ele>
        <time>2015-08-20T09:41:15Z</time>
      </trkpt>
      <trkpt lat="45.51395" lon="2.80824">
        <ele>1554.9988</ele>
        <time>2015-08-20T09:41:32Z</time>
      </trkpt>
      <trkpt lat="45.51402" lon="2.80827">
        <ele>1554.9988</ele>
        <time>2015-08-20T09:41:48Z</time>
      </trkpt>
      <trkpt lat="45.51408" lon="2.80831">
        <ele>1557.061</ele>
        <time>2015-08-20T09:41:51Z</time>
      </trkpt>
      <trkpt lat="45.51414" lon="2.80832">
        <ele>1557.061</ele>
        <time>2015-08-20T09:42:06Z</time>
      </trkpt>
      <trkpt lat="45.51417" lon="2.80833">
        <ele>1557.061</ele>
        <time>2015-08-20T09:42:22Z</time>
      </trkpt>
      <trkpt lat="45.51425" lon="2.8083">
        <ele>1558.6893</ele>
        <time>2015-08-20T09:42:48Z</time>
      </trkpt>
      <trkpt lat="45.51447" lon="2.80841">
        <ele>1560.0807</ele>
        <time>2015-08-20T09:43:03Z</time>
      </trkpt>
      <trkpt lat="45.51448" lon="2.80841">
        <ele>1560.0807</ele>
        <time>2015-08-20T09:43:13Z</time>
      </trkpt>
      <trkpt lat="45.51449" lon="2.80843">
        <ele>1560.0807</ele>
        <time>2015-08-20T09:43:31Z</time>
      </trkpt>
      <trkpt lat="45.51452" lon="2.80842">
        <ele>1560.0807</ele>
        <time>2015-08-20T09:44:21Z</time>
      </trkpt>
      <trkpt lat="45.51456" lon="2.80843">
        <ele>1560.0807</ele>
        <time>2015-08-20T09:44:32Z</time>
      </trkpt>
      <trkpt lat="45.51458" lon="2.80841">
        <ele>1561.2313</ele>
        <time>2015-08-20T09:44:59Z</time>
      </trkpt>
      <trkpt lat="45.51447" lon="2.80853">
        <ele>1561.9941</ele>
        <time>2015-08-20T09:46:51Z</time>
      </trkpt>
      <trkpt lat="45.51434" lon="2.80865">
        <ele>1562.2919</ele>
        <time>2015-08-20T09:47:00Z</time>
      </trkpt>
      <trkpt lat="45.51433" lon="2.80867">
        <ele>1562.2919</ele>
        <time>2015-08-20T09:47:01Z</time>
      </trkpt>
      <trkpt lat="45.51429" lon="2.80864">
        <ele>1562.2919</ele>
        <time>2015-08-20T09:47:06Z</time>
      </trkpt>
      <trkpt lat="45.51428" lon="2.80863">
        <ele>1562.2919</ele>
        <time>2015-08-20T09:47:12Z</time>
      </trkpt>
      <trkpt lat="45.51427" lon="2.80862">
        <ele>1562.2919</ele>
        <time>2015-08-20T09:47:21Z</time>
      </trkpt>
      <trkpt lat="45.51425" lon="2.80859">
        <ele>1562.27</ele>
        <time>2015-08-20T09:47:32Z</time>
      </trkpt>
      <trkpt lat="45.51423" lon="2.80856">
        <ele>1562.27</ele>
        <time>2015-08-20T09:47:49Z</time>
      </trkpt>
      <trkpt lat="45.51418" lon="2.80854">
        <ele>1562.27</ele>
        <time>2015-08-20T09:48:03Z</time>
      </trkpt>
      <trkpt lat="45.5139" lon="2.80823">
        <ele>1562.1945</ele>
        <time>2015-08-20T09:48:48Z</time>
      </trkpt>
      <trkpt lat="45.5139" lon="2.80836">
        <ele>1562.1945</ele>
        <time>2015-08-20T09:49:07Z</time>
      </trkpt>
      <trkpt lat="45.51403" lon="2.80873">
        <ele>1561.5762</ele>
        <time>2015-08-20T09:49:41Z</time>
      </trkpt>
      <trkpt lat="45.51411" lon="2.80896">
        <ele>1560.7131</ele>
        <time>2015-08-20T09:50:01Z</time>
      </trkpt>
      <trkpt lat="45.51415" lon="2.80908">
        <ele>1559.7092</ele>
        <time>2015-08-20T09:50:23Z</time>
      </trkpt>
      <trkpt lat="45.51427" lon="2.8094">
        <ele>1558.6318</ele>
        <time>2015-08-20T09:50:57Z</time>
      </trkpt>
      <trkpt lat="45.51429" lon="2.80949">
        <ele>1558.6318</ele>
        <time>2015-08-20T09:51:04Z</time>
      </trkpt>
      <trkpt lat="45.51431" lon="2.80955">
        <ele>1557.4425</ele>
        <time>2015-08-20T09:51:06Z</time>
      </trkpt>
      <trkpt lat="45.51437" lon="2.80968">
        <ele>1556.178</ele>
        <time>2015-08-20T09:51:21Z</time>
      </trkpt>
      <trkpt lat="45.51439" lon="2.80974">
        <ele>1556.178</ele>
        <time>2015-08-20T09:51:46Z</time>
      </trkpt>
      <trkpt lat="45.51449" lon="2.80999">
        <ele>1554.9587</ele>
        <time>2015-08-20T09:52:01Z</time>
      </trkpt>
      <trkpt lat="45.51452" lon="2.81013">
        <ele>1553.7518</ele>
        <time>2015-08-20T09:52:30Z</time>
      </trkpt>
      <trkpt lat="45.51467" lon="2.81049">
        <ele>1553.0308</ele>
        <time>2015-08-20T09:53:01Z</time>
      </trkpt>
      <trkpt lat="45.51468" lon="2.81052">
        <ele>1553.0308</ele>
        <time>2015-08-20T09:53:09Z</time>
      </trkpt>
      <trkpt lat="45.51472" lon="2.81065">
        <ele>1552.3678</ele>
        <time>2015-08-20T09:53:17Z</time>
      </trkpt>
      <trkpt lat="45.51488" lon="2.81106">
        <ele>1551.9575</ele>
        <time>2015-08-20T09:54:01Z</time>
      </trkpt>
      <trkpt lat="45.51503" lon="2.81139">
        <ele>1552.3821</ele>
        <time>2015-08-20T09:54:52Z</time>
      </trkpt>
      <trkpt lat="45.5151" lon="2.81142">
        <ele>1552.3821</ele>
        <time>2015-08-20T09:55:00Z</time>
      </trkpt>
      <trkpt lat="45.5151" lon="2.81143">
        <ele>1552.3821</ele>
        <time>2015-08-20T09:55:01Z</time>
      </trkpt>
      <trkpt lat="45.51524" lon="2.81155">
        <ele>1553.285</ele>
        <time>2015-08-20T09:55:50Z</time>
      </trkpt>
      <trkpt lat="45.51537" lon="2.81171">
        <ele>1554.4354</ele>
        <time>2015-08-20T09:56:01Z</time>
      </trkpt>
      <trkpt lat="45.51539" lon="2.81176">
        <ele>1554.4354</ele>
        <time>2015-08-20T09:56:12Z</time>
      </trkpt>
      <trkpt lat="45.5156" lon="2.81179">
        <ele>1556.7853</ele>
        <time>2015-08-20T09:56:58Z</time>
      </trkpt>
      <trkpt lat="45.51569" lon="2.81179">
        <ele>1559.1667</ele>
        <time>2015-08-20T09:57:02Z</time>
      </trkpt>
      <trkpt lat="45.51582" lon="2.81194">
        <ele>1562.2125</ele>
        <time>2015-08-20T09:57:45Z</time>
      </trkpt>
      <trkpt lat="45.5159" lon="2.81202">
        <ele>1566.2902</ele>
        <time>2015-08-20T09:58:56Z</time>
      </trkpt>
      <trkpt lat="45.51594" lon="2.81203">
        <ele>1566.2902</ele>
        <time>2015-08-20T09:59:02Z</time>
      </trkpt>
      <trkpt lat="45.51597" lon="2.81205">
        <ele>1566.2902</ele>
        <time>2015-08-20T09:59:08Z</time>
      </trkpt>
      <trkpt lat="45.51597" lon="2.81206">
        <ele>1566.2902</ele>
        <time>2015-08-20T09:59:11Z</time>
      </trkpt>
      <trkpt lat="45.51598" lon="2.8121">
        <ele>1570.0656</ele>
        <time>2015-08-20T09:59:16Z</time>
      </trkpt>
      <trkpt lat="45.51599" lon="2.81215">
        <ele>1570.0656</ele>
        <time>2015-08-20T09:59:24Z</time>
      </trkpt>
      <trkpt lat="45.516" lon="2.8122">
        <ele>1570.0656</ele>
        <time>2015-08-20T09:59:33Z</time>
      </trkpt>
      <trkpt lat="45.51613" lon="2.81236">
        <ele>1573.5717</ele>
        <time>2015-08-20T09:59:46Z</time>
      </trkpt>
      <trkpt lat="45.51617" lon="2.81242">
        <ele>1573.5717</ele>
        <time>2015-08-20T10:00:00Z</time>
      </trkpt>
      <trkpt lat="45.5162" lon="2.81249">
        <ele>1576.7959</ele>
        <time>2015-08-20T10:00:01Z</time>
      </trkpt>
      <trkpt lat="45.51627" lon="2.81268">
        <ele>1579.7852</ele>
        <time>2015-08-20T10:00:21Z</time>
      </trkpt>
      <trkpt lat="45.51639" lon="2.81291">
        <ele>1582.7996</ele>
        <time>2015-08-20T10:00:46Z</time>
      </trkpt>
      <trkpt lat="45.51642" lon="2.81296">
        <ele>1582.7996</ele>
        <time>2015-08-20T10:00:51Z</time>
      </trkpt>
      <trkpt lat="45.51643" lon="2.81299">
        <ele>1582.7996</ele>
        <time>2015-08-20T10:00:56Z</time>
      </trkpt>
      <trkpt lat="45.51645" lon="2.81303">
        <ele>1585.9934</ele>
        <time>2015-08-20T10:01:01Z</time>
      </trkpt>
      <trkpt lat="45.51645" lon="2.81304">
        <ele>1585.9934</ele>
        <time>2015-08-20T10:01:06Z</time>
      </trkpt>
      <trkpt lat="45.51648" lon="2.81307">
        <ele>1585.9934</ele>
        <time>2015-08-20T10:01:35Z</time>
      </trkpt>
      <trkpt lat="45.51662" lon="2.81328">
        <ele>1589.4658</ele>
        <time>2015-08-20T10:01:45Z</time>
      </trkpt>
      <trkpt lat="45.51663" lon="2.81337">
        <ele>1589.4658</ele>
        <time>2015-08-20T10:01:46Z</time>
      </trkpt>
      <trkpt lat="45.51665" lon="2.8135">
        <ele>1592.6305</ele>
        <time>2015-08-20T10:02:00Z</time>
      </trkpt>
      <trkpt lat="45.51665" lon="2.81351">
        <ele>1592.6305</ele>
        <time>2015-08-20T10:02:01Z</time>
      </trkpt>
      <trkpt lat="45.51665" lon="2.81355">
        <ele>1592.6305</ele>
        <time>2015-08-20T10:02:08Z</time>
      </trkpt>
      <trkpt lat="45.51664" lon="2.81357">
        <ele>1592.6305</ele>
        <time>2015-08-20T10:02:11Z</time>
      </trkpt>
      <trkpt lat="45.51663" lon="2.8136">
        <ele>1592.6305</ele>
        <time>2015-08-20T10:02:16Z</time>
      </trkpt>
      <trkpt lat="45.51663" lon="2.81364">
        <ele>1595.5214</ele>
        <time>2015-08-20T10:02:26Z</time>
      </trkpt>
      <trkpt lat="45.51657" lon="2.81382">
        <ele>1598.156</ele>
        <time>2015-08-20T10:02:41Z</time>
      </trkpt>
      <trkpt lat="45.51653" lon="2.81395">
        <ele>1600.6095</ele>
        <time>2015-08-20T10:03:01Z</time>
      </trkpt>
      <trkpt lat="45.51653" lon="2.81396">
        <ele>1600.6095</ele>
        <time>2015-08-20T10:03:17Z</time>
      </trkpt>
      <trkpt lat="45.51657" lon="2.81415">
        <ele>1603.6864</ele>
        <time>2015-08-20T10:04:36Z</time>
      </trkpt>
      <trkpt lat="45.51659" lon="2.81422">
        <ele>1603.6864</ele>
        <time>2015-08-20T10:04:56Z</time>
      </trkpt>
      <trkpt lat="45.51663" lon="2.81438">
        <ele>1606.5022</ele>
        <time>2015-08-20T10:05:02Z</time>
      </trkpt>
      <trkpt lat="45.51664" lon="2.81439">
        <ele>1606.5022</ele>
        <time>2015-08-20T10:05:08Z</time>
      </trkpt>
      <trkpt lat="45.51668" lon="2.81446">
        <ele>1606.5022</ele>
        <time>2015-08-20T10:05:11Z</time>
      </trkpt>
      <trkpt lat="45.51671" lon="2.81451">
        <ele>1609.016</ele>
        <time>2015-08-20T10:05:16Z</time>
      </trkpt>
      <trkpt lat="45.51673" lon="2.81459">
        <ele>1609.016</ele>
        <time>2015-08-20T10:05:21Z</time>
      </trkpt>
      <trkpt lat="45.51675" lon="2.81472">
        <ele>1611.3352</ele>
        <time>2015-08-20T10:05:54Z</time>
      </trkpt>
      <trkpt lat="45.51684" lon="2.81489">
        <ele>1613.4874</ele>
        <time>2015-08-20T10:06:01Z</time>
      </trkpt>
      <trkpt lat="45.51685" lon="2.81496">
        <ele>1613.4874</ele>
        <time>2015-08-20T10:06:07Z</time>
      </trkpt>
      <trkpt lat="45.51692" lon="2.81513">
        <ele>1615.4846</ele>
        <time>2015-08-20T10:06:21Z</time>
      </trkpt>
      <trkpt lat="45.51698" lon="2.81525">
        <ele>1617.5111</ele>
        <time>2015-08-20T10:06:55Z</time>
      </trkpt>
      <trkpt lat="45.51715" lon="2.81557">
        <ele>1620.4869</ele>
        <time>2015-08-20T10:07:55Z</time>
      </trkpt>
      <trkpt lat="45.51724" lon="2.81568">
        <ele>1623.1724</ele>
        <time>2015-08-20T10:08:01Z</time>
      </trkpt>
      <trkpt lat="45.51726" lon="2.8157">
        <ele>1623.1724</ele>
        <time>2015-08-20T10:08:06Z</time>
      </trkpt>
      <trkpt lat="45.51727" lon="2.81571">
        <ele>1623.1724</ele>
        <time>2015-08-20T10:08:13Z</time>
      </trkpt>
      <trkpt lat="45.51738" lon="2.81596">
        <ele>1625.9615</ele>
        <time>2015-08-20T10:09:01Z</time>
      </trkpt>
      <trkpt lat="45.51753" lon="2.81639">
        <ele>1628.4554</ele>
        <time>2015-08-20T10:09:47Z</time>
      </trkpt>
      <trkpt lat="45.51752" lon="2.81673">
        <ele>1630.6312</ele>
        <time>2015-08-20T10:10:01Z</time>
      </trkpt>
      <trkpt lat="45.51746" lon="2.81708">
        <ele>1632.4686</ele>
        <time>2015-08-20T10:10:46Z</time>
      </trkpt>
      <trkpt lat="45.51746" lon="2.81736">
        <ele>1634.0361</ele>
        <time>2015-08-20T10:11:01Z</time>
      </trkpt>
      <trkpt lat="45.51746" lon="2.81746">
        <ele>1634.0361</ele>
        <time>2015-08-20T10:11:06Z</time>
      </trkpt>
      <trkpt lat="45.51746" lon="2.81751">
        <ele>1635.3407</ele>
        <time>2015-08-20T10:11:11Z</time>
      </trkpt>
      <trkpt lat="45.51748" lon="2.81822">
        <ele>1636.6484</ele>
        <time>2015-08-20T10:12:10Z</time>
      </trkpt>
      <trkpt lat="45.51749" lon="2.81831">
        <ele>1636.6484</ele>
        <time>2015-08-20T10:12:26Z</time>
      </trkpt>
      <trkpt lat="45.5175" lon="2.81855">
        <ele>1639.244</ele>
        <time>2015-08-20T10:13:03Z</time>
      </trkpt>
      <trkpt lat="45.51749" lon="2.81878">
        <ele>1641.489</ele>
        <time>2015-08-20T10:13:38Z</time>
      </trkpt>
      <trkpt lat="45.51739" lon="2.81908">
        <ele>1643.4088</ele>
        <time>2015-08-20T10:13:52Z</time>
      </trkpt>
      <trkpt lat="45.51739" lon="2.8191">
        <ele>1643.4088</ele>
        <time>2015-08-20T10:13:56Z</time>
      </trkpt>
      <trkpt lat="45.51737" lon="2.81915">
        <ele>1643.4088</ele>
        <time>2015-08-20T10:15:29Z</time>
      </trkpt>
      <trkpt lat="45.51737" lon="2.81916">
        <ele>1643.4088</ele>
        <time>2015-08-20T10:15:38Z</time>
      </trkpt>
      <trkpt lat="45.51734" lon="2.81928">
        <ele>1644.8402</ele>
        <time>2015-08-20T10:15:58Z</time>
      </trkpt>
      <trkpt lat="45.51698" lon="2.81931">
        <ele>1645.3164</ele>
        <time>2015-08-20T10:16:53Z</time>
      </trkpt>
      <trkpt lat="45.51696" lon="2.81931">
        <ele>1645.3164</ele>
        <time>2015-08-20T10:16:56Z</time>
      </trkpt>
      <trkpt lat="45.51694" lon="2.81931">
        <ele>1645.3164</ele>
        <time>2015-08-20T10:17:01Z</time>
      </trkpt>
      <trkpt lat="45.51692" lon="2.81932">
        <ele>1645.3164</ele>
        <time>2015-08-20T10:17:10Z</time>
      </trkpt>
      <trkpt lat="45.51686" lon="2.8193">
        <ele>1645.229</ele>
        <time>2015-08-20T10:17:38Z</time>
      </trkpt>
      <trkpt lat="45.51686" lon="2.81938">
        <ele>1645.229</ele>
        <time>2015-08-20T10:17:41Z</time>
      </trkpt>
      <trkpt lat="45.51673" lon="2.81953">
        <ele>1644.5823</ele>
        <time>2015-08-20T10:18:54Z</time>
      </trkpt>
      <trkpt lat="45.51656" lon="2.81966">
        <ele>1643.1362</ele>
        <time>2015-08-20T10:19:00Z</time>
      </trkpt>
      <trkpt lat="45.51646" lon="2.81976">
        <ele>1641.5793</ele>
        <time>2015-08-20T10:19:25Z</time>
      </trkpt>
      <trkpt lat="45.51637" lon="2.81979">
        <ele>1641.5793</ele>
        <time>2015-08-20T10:19:42Z</time>
      </trkpt>
      <trkpt lat="45.51609" lon="2.81996">
        <ele>1639.5979</ele>
        <time>2015-08-20T10:19:53Z</time>
      </trkpt>
      <trkpt lat="45.51609" lon="2.81996">
        <ele>1639.5979</ele>
        <time>2015-08-20T10:19:54Z</time>
      </trkpt>
      <trkpt lat="45.51607" lon="2.81997">
        <ele>1639.5979</ele>
        <time>2015-08-20T10:19:56Z</time>
      </trkpt>
      <trkpt lat="45.51603" lon="2.82003">
        <ele>1639.5979</ele>
        <time>2015-08-20T10:20:01Z</time>
      </trkpt>
      <trkpt lat="45.5158" lon="2.82043">
        <ele>1637.263</ele>
        <time>2015-08-20T10:20:36Z</time>
      </trkpt>
      <trkpt lat="45.51568" lon="2.82066">
        <ele>1634.8142</ele>
        <time>2015-08-20T10:21:03Z</time>
      </trkpt>
      <trkpt lat="45.51567" lon="2.82081">
        <ele>1632.4304</ele>
        <time>2015-08-20T10:21:11Z</time>
      </trkpt>
      <trkpt lat="45.5157" lon="2.82094">
        <ele>1630.0897</ele>
        <time>2015-08-20T10:21:19Z</time>
      </trkpt>
      <trkpt lat="45.51568" lon="2.82099">
        <ele>1630.0897</ele>
        <time>2015-08-20T10:21:21Z</time>
      </trkpt>
      <trkpt lat="45.51558" lon="2.82133">
        <ele>1627.6418</ele>
        <time>2015-08-20T10:21:47Z</time>
      </trkpt>
      <trkpt lat="45.51554" lon="2.82138">
        <ele>1627.6418</ele>
        <time>2015-08-20T10:21:54Z</time>
      </trkpt>
      <trkpt lat="45.51554" lon="2.82138">
        <ele>1627.6418</ele>
        <time>2015-08-20T10:22:00Z</time>
      </trkpt>
      <trkpt lat="45.51547" lon="2.82155">
        <ele>1624.9907</ele>
        <time>2015-08-20T10:22:16Z</time>
      </trkpt>
      <trkpt lat="45.5153" lon="2.82176">
        <ele>1622.1486</ele>
        <time>2015-08-20T10:22:53Z</time>
      </trkpt>
      <trkpt lat="45.51527" lon="2.82181">
        <ele>1622.1486</ele>
        <time>2015-08-20T10:22:56Z</time>
      </trkpt>
      <trkpt lat="45.51525" lon="2.82184">
        <ele>1622.1486</ele>
        <time>2015-08-20T10:23:06Z</time>
      </trkpt>
      <trkpt lat="45.51519" lon="2.82192">
        <ele>1619.0118</ele>
        <time>2015-08-20T10:23:18Z</time>
      </trkpt>
      <trkpt lat="45.51519" lon="2.82191">
        <ele>1619.0118</ele>
        <time>2015-08-20T10:23:23Z</time>
      </trkpt>
      <trkpt lat="45.51498" lon="2.82188">
        <ele>1615.6003</ele>
        <time>2015-08-20T10:23:44Z</time>
      </trkpt>
      <trkpt lat="45.51497" lon="2.82187">
        <ele>1615.6003</ele>
        <time>2015-08-20T10:23:51Z</time>
      </trkpt>
      <trkpt lat="45.51492" lon="2.82171">
        <ele>1612.178</ele>
        <time>2015-08-20T10:23:58Z</time>
      </trkpt>
      <trkpt lat="45.51492" lon="2.82168">
        <ele>1612.178</ele>
        <time>2015-08-20T10:24:03Z</time>
      </trkpt>
      <trkpt lat="45.51495" lon="2.82138">
        <ele>1608.5996</ele>
        <time>2015-08-20T10:24:34Z</time>
      </trkpt>
      <trkpt lat="45.51491" lon="2.82144">
        <ele>1608.5996</ele>
        <time>2015-08-20T10:40:16Z</time>
      </trkpt>
      <trkpt lat="45.5149" lon="2.82147">
        <ele>1608.5996</ele>
        <time>2015-08-20T10:40:21Z</time>
      </trkpt>
      <trkpt lat="45.51489" lon="2.82152">
        <ele>1605.1349</ele>
        <time>2015-08-20T10:40:26Z</time>
      </trkpt>
      <trkpt lat="45.51488" lon="2.82157">
        <ele>1605.1349</ele>
        <time>2015-08-20T10:40:31Z</time>
      </trkpt>
      <trkpt lat="45.51488" lon="2.82163">
        <ele>1605.1349</ele>
        <time>2015-08-20T10:40:36Z</time>
      </trkpt>
      <trkpt lat="45.5149" lon="2.8217">
        <ele>1601.9604</ele>
        <time>2015-08-20T10:40:41Z</time>
      </trkpt>
      <trkpt lat="45.51491" lon="2.82178">
        <ele>1601.9604</ele>
        <time>2015-08-20T10:40:46Z</time>
      </trkpt>
      <trkpt lat="45.51491" lon="2.82185">
        <ele>1598.9365</ele>
        <time>2015-08-20T10:40:51Z</time>
      </trkpt>
      <trkpt lat="45.51493" lon="2.82191">
        <ele>1598.9365</ele>
        <time>2015-08-20T10:40:56Z</time>
      </trkpt>
      <trkpt lat="45.51494" lon="2.82196">
        <ele>1598.9365</ele>
        <time>2015-08-20T10:41:01Z</time>
      </trkpt>
      <trkpt lat="45.51495" lon="2.82198">
        <ele>1596.0768</ele>
        <time>2015-08-20T10:41:06Z</time>
      </trkpt>
      <trkpt lat="45.51496" lon="2.822">
        <ele>1596.0768</ele>
        <time>2015-08-20T10:41:11Z</time>
      </trkpt>
      <trkpt lat="45.51497" lon="2.82204">
        <ele>1596.0768</ele>
        <time>2015-08-20T10:41:16Z</time>
      </trkpt>
      <trkpt lat="45.51501" lon="2.82207">
        <ele>1593.393</ele>
        <time>2015-08-20T10:41:21Z</time>
      </trkpt>
      <trkpt lat="45.51503" lon="2.82213">
        <ele>1593.393</ele>
        <time>2015-08-20T10:41:26Z</time>
      </trkpt>
      <trkpt lat="45.51505" lon="2.82218">
        <ele>1593.393</ele>
        <time>2015-08-20T10:41:31Z</time>
      </trkpt>
      <trkpt lat="45.51504" lon="2.82222">
        <ele>1590.9961</ele>
        <time>2015-08-20T10:41:36Z</time>
      </trkpt>
      <trkpt lat="45.51502" lon="2.82224">
        <ele>1590.9961</ele>
        <time>2015-08-20T10:41:41Z</time>
      </trkpt>
      <trkpt lat="45.515" lon="2.82225">
        <ele>1590.9961</ele>
        <time>2015-08-20T10:41:46Z</time>
      </trkpt>
      <trkpt lat="45.51496" lon="2.82227">
        <ele>1590.9961</ele>
        <time>2015-08-20T10:41:51Z</time>
      </trkpt>
      <trkpt lat="45.51493" lon="2.82229">
        <ele>1588.844</ele>
        <time>2015-08-20T10:41:56Z</time>
      </trkpt>
      <trkpt lat="45.51491" lon="2.82231">
        <ele>1588.844</ele>
        <time>2015-08-20T10:42:01Z</time>
      </trkpt>
      <trkpt lat="45.51489" lon="2.82235">
        <ele>1588.844</ele>
        <time>2015-08-20T10:42:06Z</time>
      </trkpt>
      <trkpt lat="45.51488" lon="2.82238">
        <ele>1588.844</ele>
        <time>2015-08-20T10:42:11Z</time>
      </trkpt>
      <trkpt lat="45.51485" lon="2.82242">
        <ele>1587.069</ele>
        <time>2015-08-20T10:42:16Z</time>
      </trkpt>
      <trkpt lat="45.51483" lon="2.82245">
        <ele>1587.069</ele>
        <time>2015-08-20T10:42:21Z</time>
      </trkpt>
      <trkpt lat="45.5148" lon="2.8225">
        <ele>1587.069</ele>
        <time>2015-08-20T10:42:26Z</time>
      </trkpt>
      <trkpt lat="45.51476" lon="2.82254">
        <ele>1585.663</ele>
        <time>2015-08-20T10:42:31Z</time>
      </trkpt>
      <trkpt lat="45.51474" lon="2.82259">
        <ele>1585.663</ele>
        <time>2015-08-20T10:42:36Z</time>
      </trkpt>
      <trkpt lat="45.51473" lon="2.82263">
        <ele>1585.663</ele>
        <time>2015-08-20T10:42:41Z</time>
      </trkpt>
      <trkpt lat="45.51469" lon="2.82264">
        <ele>1584.6459</ele>
        <time>2015-08-20T10:42:46Z</time>
      </trkpt>
      <trkpt lat="45.51465" lon="2.82266">
        <ele>1584.6459</ele>
        <time>2015-08-20T10:42:51Z</time>
      </trkpt>
      <trkpt lat="45.51462" lon="2.82269">
        <ele>1584.6459</ele>
        <time>2015-08-20T10:42:56Z</time>
      </trkpt>
      <trkpt lat="45.51461" lon="2.82272">
        <ele>1584.0632</ele>
        <time>2015-08-20T10:43:01Z</time>
      </trkpt>
      <trkpt lat="45.51458" lon="2.82275">
        <ele>1584.0632</ele>
        <time>2015-08-20T10:43:06Z</time>
      </trkpt>
      <trkpt lat="45.51457" lon="2.82279">
        <ele>1584.0632</ele>
        <time>2015-08-20T10:43:11Z</time>
      </trkpt>
      <trkpt lat="45.51456" lon="2.82283">
        <ele>1583.8552</ele>
        <time>2015-08-20T10:43:16Z</time>
      </trkpt>
      <trkpt lat="45.51455" lon="2.82288">
        <ele>1583.8552</ele>
        <time>2015-08-20T10:43:21Z</time>
      </trkpt>
      <trkpt lat="45.51452" lon="2.8229">
        <ele>1583.8552</ele>
        <time>2015-08-20T10:43:26Z</time>
      </trkpt>
      <trkpt lat="45.51449" lon="2.82295">
        <ele>1583.9506</ele>
        <time>2015-08-20T10:43:31Z</time>
      </trkpt>
      <trkpt lat="45.51446" lon="2.82299">
        <ele>1583.9506</ele>
        <time>2015-08-20T10:43:36Z</time>
      </trkpt>
      <trkpt lat="45.51443" lon="2.82304">
        <ele>1583.9506</ele>
        <time>2015-08-20T10:43:41Z</time>
      </trkpt>
      <trkpt lat="45.5144" lon="2.82308">
        <ele>1584.3252</ele>
        <time>2015-08-20T10:43:46Z</time>
      </trkpt>
      <trkpt lat="45.51438" lon="2.82308">
        <ele>1584.3252</ele>
        <time>2015-08-20T10:43:51Z</time>
      </trkpt>
      <trkpt lat="45.51438" lon="2.82311">
        <ele>1584.3252</ele>
        <time>2015-08-20T10:43:56Z</time>
      </trkpt>
      <trkpt lat="45.51436" lon="2.82315">
        <ele>1584.3252</ele>
        <time>2015-08-20T10:44:01Z</time>
      </trkpt>
      <trkpt lat="45.51435" lon="2.82319">
        <ele>1585.2441</ele>
        <time>2015-08-20T10:44:06Z</time>
      </trkpt>
      <trkpt lat="45.51435" lon="2.82322">
        <ele>1585.2441</ele>
        <time>2015-08-20T10:44:11Z</time>
      </trkpt>
      <trkpt lat="45.51434" lon="2.82327">
        <ele>1585.2441</ele>
        <time>2015-08-20T10:44:16Z</time>
      </trkpt>
      <trkpt lat="45.51431" lon="2.82334">
        <ele>1586.6774</ele>
        <time>2015-08-20T10:44:21Z</time>
      </trkpt>
      <trkpt lat="45.51429" lon="2.82338">
        <ele>1586.6774</ele>
        <time>2015-08-20T10:44:26Z</time>
      </trkpt>
      <trkpt lat="45.51427" lon="2.82342">
        <ele>1586.6774</ele>
        <time>2015-08-20T10:44:31Z</time>
      </trkpt>
      <trkpt lat="45.51425" lon="2.82346">
        <ele>1588.61</ele>
        <time>2015-08-20T10:44:36Z</time>
      </trkpt>
      <trkpt lat="45.51423" lon="2.82351">
        <ele>1588.61</ele>
        <time>2015-08-20T10:44:41Z</time>
      </trkpt>
      <trkpt lat="45.51421" lon="2.82355">
        <ele>1588.61</ele>
        <time>2015-08-20T10:44:46Z</time>
      </trkpt>
      <trkpt lat="45.51417" lon="2.82362">
        <ele>1590.8823</ele>
        <time>2015-08-20T10:44:51Z</time>
      </trkpt>
      <trkpt lat="45.51414" lon="2.82367">
        <ele>1590.8823</ele>
        <time>2015-08-20T10:44:56Z</time>
      </trkpt>
      <trkpt lat="45.51412" lon="2.82369">
        <ele>1590.8823</ele>
        <time>2015-08-20T10:45:01Z</time>
      </trkpt>
      <trkpt lat="45.51409" lon="2.82373">
        <ele>1593.4608</ele>
        <time>2015-08-20T10:45:06Z</time>
      </trkpt>
      <trkpt lat="45.51408" lon="2.82376">
        <ele>1593.4608</ele>
        <time>2015-08-20T10:45:11Z</time>
      </trkpt>
      <trkpt lat="45.51405" lon="2.8238">
        <ele>1593.4608</ele>
        <time>2015-08-20T10:45:16Z</time>
      </trkpt>
      <trkpt lat="45.51405" lon="2.82384">
        <ele>1596.2701</ele>
        <time>2015-08-20T10:45:21Z</time>
      </trkpt>
      <trkpt lat="45.51404" lon="2.82385">
        <ele>1596.2701</ele>
        <time>2015-08-20T10:45:26Z</time>
      </trkpt>
      <trkpt lat="45.51405" lon="2.82386">
        <ele>1596.2701</ele>
        <time>2015-08-20T10:45:31Z</time>
      </trkpt>
      <trkpt lat="45.51408" lon="2.8239">
        <ele>1596.2701</ele>
        <time>2015-08-20T10:45:36Z</time>
      </trkpt>
      <trkpt lat="45.51409" lon="2.82394">
        <ele>1599.1533</ele>
        <time>2015-08-20T10:45:41Z</time>
      </trkpt>
      <trkpt lat="45.51412" lon="2.82398">
        <ele>1599.1533</ele>
        <time>2015-08-20T10:45:46Z</time>
      </trkpt>
      <trkpt lat="45.51415" lon="2.82402">
        <ele>1599.1533</ele>
        <time>2015-08-20T10:45:51Z</time>
      </trkpt>
      <trkpt lat="45.51419" lon="2.82405">
        <ele>1602.008</ele>
        <time>2015-08-20T10:45:56Z</time>
      </trkpt>
      <trkpt lat="45.51422" lon="2.82408">
        <ele>1602.008</ele>
        <time>2015-08-20T10:46:01Z</time>
      </trkpt>
      <trkpt lat="45.51426" lon="2.82412">
        <ele>1602.008</ele>
        <time>2015-08-20T10:46:06Z</time>
      </trkpt>
      <trkpt lat="45.51432" lon="2.82416">
        <ele>1604.8259</ele>
        <time>2015-08-20T10:46:11Z</time>
      </trkpt>
      <trkpt lat="45.51435" lon="2.8242">
        <ele>1604.8259</ele>
        <time>2015-08-20T10:46:16Z</time>
      </trkpt>
      <trkpt lat="45.51438" lon="2.82423">
        <ele>1604.8259</ele>
        <time>2015-08-20T10:46:21Z</time>
      </trkpt>
      <trkpt lat="45.5144" lon="2.82426">
        <ele>1607.6139</ele>
        <time>2015-08-20T10:46:26Z</time>
      </trkpt>
      <trkpt lat="45.51442" lon="2.82431">
        <ele>1607.6139</ele>
        <time>2015-08-20T10:46:31Z</time>
      </trkpt>
      <trkpt lat="45.51446" lon="2.82433">
        <ele>1607.6139</ele>
        <time>2015-08-20T10:46:36Z</time>
      </trkpt>
      <trkpt lat="45.51449" lon="2.82432">
        <ele>1610.3496</ele>
        <time>2015-08-20T10:46:41Z</time>
      </trkpt>
      <trkpt lat="45.51448" lon="2.82432">
        <ele>1610.3496</ele>
        <time>2015-08-20T10:46:46Z</time>
      </trkpt>
      <trkpt lat="45.51446" lon="2.82434">
        <ele>1610.3496</ele>
        <time>2015-08-20T10:46:56Z</time>
      </trkpt>
      <trkpt lat="45.5145" lon="2.82438">
        <ele>1610.3496</ele>
        <time>2015-08-20T10:47:01Z</time>
      </trkpt>
      <trkpt lat="45.51453" lon="2.82442">
        <ele>1612.9407</ele>
        <time>2015-08-20T10:47:06Z</time>
      </trkpt>
      <trkpt lat="45.51455" lon="2.82447">
        <ele>1612.9407</ele>
        <time>2015-08-20T10:47:11Z</time>
      </trkpt>
      <trkpt lat="45.51458" lon="2.82452">
        <ele>1612.9407</ele>
        <time>2015-08-20T10:47:16Z</time>
      </trkpt>
      <trkpt lat="45.51461" lon="2.82457">
        <ele>1615.4891</ele>
        <time>2015-08-20T10:47:21Z</time>
      </trkpt>
      <trkpt lat="45.51465" lon="2.82463">
        <ele>1615.4891</ele>
        <time>2015-08-20T10:47:26Z</time>
      </trkpt>
      <trkpt lat="45.51469" lon="2.82467">
        <ele>1617.9028</ele>
        <time>2015-08-20T10:47:31Z</time>
      </trkpt>
      <trkpt lat="45.51474" lon="2.82471">
        <ele>1617.9028</ele>
        <time>2015-08-20T10:47:36Z</time>
      </trkpt>
      <trkpt lat="45.51479" lon="2.82474">
        <ele>1620.1687</ele>
        <time>2015-08-20T10:47:41Z</time>
      </trkpt>
      <trkpt lat="45.51484" lon="2.82479">
        <ele>1620.1687</ele>
        <time>2015-08-20T10:47:46Z</time>
      </trkpt>
      <trkpt lat="45.51485" lon="2.82483">
        <ele>1622.3904</ele>
        <time>2015-08-20T10:47:51Z</time>
      </trkpt>
      <trkpt lat="45.51488" lon="2.82487">
        <ele>1622.3904</ele>
        <time>2015-08-20T10:47:56Z</time>
      </trkpt>
      <trkpt lat="45.51494" lon="2.82488">
        <ele>1624.6069</ele>
        <time>2015-08-20T10:48:01Z</time>
      </trkpt>
      <trkpt lat="45.515" lon="2.82489">
        <ele>1624.6069</ele>
        <time>2015-08-20T10:48:06Z</time>
      </trkpt>
      <trkpt lat="45.51507" lon="2.82492">
        <ele>1626.7969</ele>
        <time>2015-08-20T10:48:11Z</time>
      </trkpt>
      <trkpt lat="45.51513" lon="2.82494">
        <ele>1626.7969</ele>
        <time>2015-08-20T10:48:16Z</time>
      </trkpt>
      <trkpt lat="45.51519" lon="2.82496">
        <ele>1629.0271</ele>
        <time>2015-08-20T10:48:21Z</time>
      </trkpt>
      <trkpt lat="45.51522" lon="2.82499">
        <ele>1629.0271</ele>
        <time>2015-08-20T10:48:26Z</time>
      </trkpt>
      <trkpt lat="45.51527" lon="2.82502">
        <ele>1631.3309</ele>
        <time>2015-08-20T10:48:31Z</time>
      </trkpt>
      <trkpt lat="45.51529" lon="2.82506">
        <ele>1631.3309</ele>
        <time>2015-08-20T10:48:36Z</time>
      </trkpt>
      <trkpt lat="45.51531" lon="2.82509">
        <ele>1631.3309</ele>
        <time>2015-08-20T10:48:41Z</time>
      </trkpt>
      <trkpt lat="45.51534" lon="2.82513">
        <ele>1633.7678</ele>
        <time>2015-08-20T10:48:46Z</time>
      </trkpt>
      <trkpt lat="45.51536" lon="2.82519">
        <ele>1633.7678</ele>
        <time>2015-08-20T10:48:51Z</time>
      </trkpt>
      <trkpt lat="45.51539" lon="2.8252">
        <ele>1633.7678</ele>
        <time>2015-08-20T10:48:56Z</time>
      </trkpt>
      <trkpt lat="45.51547" lon="2.82518">
        <ele>1636.1624</ele>
        <time>2015-08-20T10:49:01Z</time>
      </trkpt>
      <trkpt lat="45.51552" lon="2.82521">
        <ele>1636.1624</ele>
        <time>2015-08-20T10:49:06Z</time>
      </trkpt>
      <trkpt lat="45.51553" lon="2.82526">
        <ele>1636.1624</ele>
        <time>2015-08-20T10:49:11Z</time>
      </trkpt>
      <trkpt lat="45.51555" lon="2.8253">
        <ele>1638.338</ele>
        <time>2015-08-20T10:49:16Z</time>
      </trkpt>
      <trkpt lat="45.51559" lon="2.82535">
        <ele>1638.338</ele>
        <time>2015-08-20T10:49:21Z</time>
      </trkpt>
      <trkpt lat="45.51564" lon="2.82539">
        <ele>1640.3335</ele>
        <time>2015-08-20T10:49:26Z</time>
      </trkpt>
      <trkpt lat="45.51569" lon="2.82543">
        <ele>1640.3335</ele>
        <time>2015-08-20T10:49:31Z</time>
      </trkpt>
      <trkpt lat="45.51572" lon="2.82547">
        <ele>1642.2434</ele>
        <time>2015-08-20T10:49:36Z</time>
      </trkpt>
      <trkpt lat="45.51575" lon="2.82551">
        <ele>1642.2434</ele>
        <time>2015-08-20T10:49:41Z</time>
      </trkpt>
      <trkpt lat="45.51578" lon="2.82556">
        <ele>1642.2434</ele>
        <time>2015-08-20T10:49:46Z</time>
      </trkpt>
      <trkpt lat="45.51579" lon="2.82561">
        <ele>1644.0836</ele>
        <time>2015-08-20T10:49:51Z</time>
      </trkpt>
      <trkpt lat="45.5158" lon="2.82566">
        <ele>1644.0836</ele>
        <time>2015-08-20T10:49:56Z</time>
      </trkpt>
      <trkpt lat="45.51582" lon="2.82572">
        <ele>1644.0836</ele>
        <time>2015-08-20T10:50:01Z</time>
      </trkpt>
      <trkpt lat="45.51583" lon="2.82577">
        <ele>1646.0566</ele>
        <time>2015-08-20T10:50:06Z</time>
      </trkpt>
      <trkpt lat="45.51585" lon="2.82583">
        <ele>1646.0566</ele>
        <time>2015-08-20T10:50:11Z</time>
      </trkpt>
      <trkpt lat="45.51587" lon="2.82589">
        <ele>1647.9175</ele>
        <time>2015-08-20T10:50:16Z</time>
      </trkpt>
      <trkpt lat="45.51591" lon="2.82595">
        <ele>1647.9175</ele>
        <time>2015-08-20T10:50:21Z</time>
      </trkpt>
      <trkpt lat="45.51593" lon="2.82601">
        <ele>1649.8146</ele>
        <time>2015-08-20T10:50:26Z</time>
      </trkpt>
      <trkpt lat="45.51594" lon="2.82607">
        <ele>1649.8146</ele>
        <time>2015-08-20T10:50:31Z</time>
      </trkpt>
      <trkpt lat="45.51597" lon="2.82613">
        <ele>1651.6549</ele>
        <time>2015-08-20T10:50:36Z</time>
      </trkpt>
      <trkpt lat="45.51599" lon="2.82618">
        <ele>1651.6549</ele>
        <time>2015-08-20T10:50:41Z</time>
      </trkpt>
      <trkpt lat="45.51599" lon="2.82624">
        <ele>1651.6549</ele>
        <time>2015-08-20T10:50:46Z</time>
      </trkpt>
      <trkpt lat="45.51602" lon="2.82629">
        <ele>1653.6554</ele>
        <time>2015-08-20T10:50:51Z</time>
      </trkpt>
      <trkpt lat="45.516" lon="2.82632">
        <ele>1653.6554</ele>
        <time>2015-08-20T10:50:56Z</time>
      </trkpt>
      <trkpt lat="45.51601" lon="2.82638">
        <ele>1653.6554</ele>
        <time>2015-08-20T10:51:01Z</time>
      </trkpt>
      <trkpt lat="45.51608" lon="2.82643">
        <ele>1655.7427</ele>
        <time>2015-08-20T10:51:06Z</time>
      </trkpt>
      <trkpt lat="45.51609" lon="2.8265">
        <ele>1655.7427</ele>
        <time>2015-08-20T10:51:11Z</time>
      </trkpt>
      <trkpt lat="45.51608" lon="2.82657">
        <ele>1657.7626</ele>
        <time>2015-08-20T10:51:16Z</time>
      </trkpt>
      <trkpt lat="45.51611" lon="2.82662">
        <ele>1657.7626</ele>
        <time>2015-08-20T10:51:21Z</time>
      </trkpt>
      <trkpt lat="45.51608" lon="2.82667">
        <ele>1657.7626</ele>
        <time>2015-08-20T10:51:26Z</time>
      </trkpt>
      <trkpt lat="45.51611" lon="2.82672">
        <ele>1659.8319</ele>
        <time>2015-08-20T10:51:31Z</time>
      </trkpt>
      <trkpt lat="45.51613" lon="2.82677">
        <ele>1659.8319</ele>
        <time>2015-08-20T10:51:36Z</time>
      </trkpt>
      <trkpt lat="45.51614" lon="2.82684">
        <ele>1661.958</ele>
        <time>2015-08-20T10:51:41Z</time>
      </trkpt>
      <trkpt lat="45.51614" lon="2.82691">
        <ele>1661.958</ele>
        <time>2015-08-20T10:51:46Z</time>
      </trkpt>
      <trkpt lat="45.51613" lon="2.82697">
        <ele>1664.0181</ele>
        <time>2015-08-20T10:51:51Z</time>
      </trkpt>
      <trkpt lat="45.51614" lon="2.82703">
        <ele>1664.0181</ele>
        <time>2015-08-20T10:51:56Z</time>
      </trkpt>
      <trkpt lat="45.51618" lon="2.82708">
        <ele>1666.1149</ele>
        <time>2015-08-20T10:52:01Z</time>
      </trkpt>
      <trkpt lat="45.5162" lon="2.82713">
        <ele>1666.1149</ele>
        <time>2015-08-20T10:52:06Z</time>
      </trkpt>
      <trkpt lat="45.51621" lon="2.82719">
        <ele>1666.1149</ele>
        <time>2015-08-20T10:52:11Z</time>
      </trkpt>
      <trkpt lat="45.51624" lon="2.82723">
        <ele>1668.1852</ele>
        <time>2015-08-20T10:52:16Z</time>
      </trkpt>
      <trkpt lat="45.51626" lon="2.82728">
        <ele>1668.1852</ele>
        <time>2015-08-20T10:52:21Z</time>
      </trkpt>
      <trkpt lat="45.51629" lon="2.82733">
        <ele>1668.1852</ele>
        <time>2015-08-20T10:52:26Z</time>
      </trkpt>
      <trkpt lat="45.51632" lon="2.82738">
        <ele>1670.0985</ele>
        <time>2015-08-20T10:52:31Z</time>
      </trkpt>
      <trkpt lat="45.51631" lon="2.82745">
        <ele>1670.0985</ele>
        <time>2015-08-20T10:52:36Z</time>
      </trkpt>
      <trkpt lat="45.5163" lon="2.8275">
        <ele>1670.0985</ele>
        <time>2015-08-20T10:52:41Z</time>
      </trkpt>
      <trkpt lat="45.51631" lon="2.82756">
        <ele>1671.9077</ele>
        <time>2015-08-20T10:52:46Z</time>
      </trkpt>
      <trkpt lat="45.51631" lon="2.82762">
        <ele>1671.9077</ele>
        <time>2015-08-20T10:52:51Z</time>
      </trkpt>
      <trkpt lat="45.51632" lon="2.82767">
        <ele>1671.9077</ele>
        <time>2015-08-20T10:52:56Z</time>
      </trkpt>
      <trkpt lat="45.51633" lon="2.82773">
        <ele>1673.7051</ele>
        <time>2015-08-20T10:53:01Z</time>
      </trkpt>
      <trkpt lat="45.51635" lon="2.8278">
        <ele>1673.7051</ele>
        <time>2015-08-20T10:53:06Z</time>
      </trkpt>
      <trkpt lat="45.51636" lon="2.82785">
        <ele>1673.7051</ele>
        <time>2015-08-20T10:53:11Z</time>
      </trkpt>
      <trkpt lat="45.51636" lon="2.82791">
        <ele>1675.5048</ele>
        <time>2015-08-20T10:53:16Z</time>
      </trkpt>
      <trkpt lat="45.51638" lon="2.82796">
        <ele>1675.5048</ele>
        <time>2015-08-20T10:53:21Z</time>
      </trkpt>
      <trkpt lat="45.51638" lon="2.82802">
        <ele>1675.5048</ele>
        <time>2015-08-20T10:53:26Z</time>
      </trkpt>
      <trkpt lat="45.51638" lon="2.82807">
        <ele>1677.3195</ele>
        <time>2015-08-20T10:53:31Z</time>
      </trkpt>
      <trkpt lat="45.51643" lon="2.82811">
        <ele>1677.3195</ele>
        <time>2015-08-20T10:53:36Z</time>
      </trkpt>
      <trkpt lat="45.51644" lon="2.82817">
        <ele>1678.9453</ele>
        <time>2015-08-20T10:53:41Z</time>
      </trkpt>
      <trkpt lat="45.51645" lon="2.82821">
        <ele>1678.9453</ele>
        <time>2015-08-20T10:53:46Z</time>
      </trkpt>
      <trkpt lat="45.51648" lon="2.82826">
        <ele>1678.9453</ele>
        <time>2015-08-20T10:53:51Z</time>
      </trkpt>
      <trkpt lat="45.51651" lon="2.82832">
        <ele>1680.3956</ele>
        <time>2015-08-20T10:53:56Z</time>
      </trkpt>
      <trkpt lat="45.51654" lon="2.82838">
        <ele>1680.3956</ele>
        <time>2015-08-20T10:54:01Z</time>
      </trkpt>
      <trkpt lat="45.51654" lon="2.82844">
        <ele>1681.7986</ele>
        <time>2015-08-20T10:54:06Z</time>
      </trkpt>
      <trkpt lat="45.51659" lon="2.82849">
        <ele>1681.7986</ele>
        <time>2015-08-20T10:54:11Z</time>
      </trkpt>
      <trkpt lat="45.51661" lon="2.82854">
        <ele>1683.2302</ele>
        <time>2015-08-20T10:54:16Z</time>
      </trkpt>
      <trkpt lat="45.51668" lon="2.82856">
        <ele>1683.2302</ele>
        <time>2015-08-20T10:54:21Z</time>
      </trkpt>
      <trkpt lat="45.51671" lon="2.8286">
        <ele>1684.8472</ele>
        <time>2015-08-20T10:54:26Z</time>
      </trkpt>
      <trkpt lat="45.51673" lon="2.82866">
        <ele>1684.8472</ele>
        <time>2015-08-20T10:54:31Z</time>
      </trkpt>
      <trkpt lat="45.51673" lon="2.82871">
        <ele>1684.8472</ele>
        <time>2015-08-20T10:54:36Z</time>
      </trkpt>
      <trkpt lat="45.51674" lon="2.82877">
        <ele>1686.7223</ele>
        <time>2015-08-20T10:54:41Z</time>
      </trkpt>
      <trkpt lat="45.51676" lon="2.82883">
        <ele>1686.7223</ele>
        <time>2015-08-20T10:54:46Z</time>
      </trkpt>
      <trkpt lat="45.51678" lon="2.82888">
        <ele>1686.7223</ele>
        <time>2015-08-20T10:54:51Z</time>
      </trkpt>
      <trkpt lat="45.51678" lon="2.82894">
        <ele>1688.7063</ele>
        <time>2015-08-20T10:54:56Z</time>
      </trkpt>
      <trkpt lat="45.51679" lon="2.829">
        <ele>1688.7063</ele>
        <time>2015-08-20T10:55:01Z</time>
      </trkpt>
      <trkpt lat="45.5168" lon="2.82907">
        <ele>1690.6317</ele>
        <time>2015-08-20T10:55:06Z</time>
      </trkpt>
      <trkpt lat="45.51682" lon="2.82914">
        <ele>1690.6317</ele>
        <time>2015-08-20T10:55:11Z</time>
      </trkpt>
      <trkpt lat="45.51683" lon="2.82921">
        <ele>1692.43</ele>
        <time>2015-08-20T10:55:16Z</time>
      </trkpt>
      <trkpt lat="45.51683" lon="2.82929">
        <ele>1692.43</ele>
        <time>2015-08-20T10:55:21Z</time>
      </trkpt>
      <trkpt lat="45.51683" lon="2.82935">
        <ele>1694.0095</ele>
        <time>2015-08-20T10:55:26Z</time>
      </trkpt>
      <trkpt lat="45.51686" lon="2.82941">
        <ele>1694.0095</ele>
        <time>2015-08-20T10:55:31Z</time>
      </trkpt>
      <trkpt lat="45.5169" lon="2.82944">
        <ele>1695.3435</ele>
        <time>2015-08-20T10:55:36Z</time>
      </trkpt>
      <trkpt lat="45.51694" lon="2.82947">
        <ele>1695.3435</ele>
        <time>2015-08-20T10:55:41Z</time>
      </trkpt>
      <trkpt lat="45.51698" lon="2.82949">
        <ele>1695.3435</ele>
        <time>2015-08-20T10:55:46Z</time>
      </trkpt>
      <trkpt lat="45.51702" lon="2.82951">
        <ele>1696.5233</ele>
        <time>2015-08-20T10:55:51Z</time>
      </trkpt>
      <trkpt lat="45.51705" lon="2.82952">
        <ele>1696.5233</ele>
        <time>2015-08-20T10:55:56Z</time>
      </trkpt>
      <trkpt lat="45.51708" lon="2.82951">
        <ele>1696.5233</ele>
        <time>2015-08-20T10:56:01Z</time>
      </trkpt>
      <trkpt lat="45.51711" lon="2.8295">
        <ele>1697.6483</ele>
        <time>2015-08-20T10:56:06Z</time>
      </trkpt>
      <trkpt lat="45.51715" lon="2.82947">
        <ele>1697.6483</ele>
        <time>2015-08-20T10:56:11Z</time>
      </trkpt>
      <trkpt lat="45.51719" lon="2.82946">
        <ele>1697.6483</ele>
        <time>2015-08-20T10:56:16Z</time>
      </trkpt>
      <trkpt lat="45.51722" lon="2.82943">
        <ele>1698.7676</ele>
        <time>2015-08-20T10:56:21Z</time>
      </trkpt>
      <trkpt lat="45.51725" lon="2.8294">
        <ele>1698.7676</ele>
        <time>2015-08-20T10:56:26Z</time>
      </trkpt>
      <trkpt lat="45.51727" lon="2.82936">
        <ele>1698.7676</ele>
        <time>2015-08-20T10:56:31Z</time>
      </trkpt>
      <trkpt lat="45.51731" lon="2.82933">
        <ele>1699.9558</ele>
        <time>2015-08-20T10:56:36Z</time>
      </trkpt>
      <trkpt lat="45.51734" lon="2.8293">
        <ele>1699.9558</ele>
        <time>2015-08-20T10:56:41Z</time>
      </trkpt>
      <trkpt lat="45.51737" lon="2.82926">
        <ele>1699.9558</ele>
        <time>2015-08-20T10:56:46Z</time>
      </trkpt>
      <trkpt lat="45.51741" lon="2.82923">
        <ele>1701.1661</ele>
        <time>2015-08-20T10:56:51Z</time>
      </trkpt>
      <trkpt lat="45.51745" lon="2.8292">
        <ele>1701.1661</ele>
        <time>2015-08-20T10:56:56Z</time>
      </trkpt>
      <trkpt lat="45.51749" lon="2.82917">
        <ele>1701.1661</ele>
        <time>2015-08-20T10:57:01Z</time>
      </trkpt>
      <trkpt lat="45.51753" lon="2.82913">
        <ele>1702.4277</ele>
        <time>2015-08-20T10:57:06Z</time>
      </trkpt>
      <trkpt lat="45.51755" lon="2.82909">
        <ele>1702.4277</ele>
        <time>2015-08-20T10:57:11Z</time>
      </trkpt>
      <trkpt lat="45.51757" lon="2.82905">
        <ele>1702.4277</ele>
        <time>2015-08-20T10:57:16Z</time>
      </trkpt>
      <trkpt lat="45.5176" lon="2.82901">
        <ele>1703.7239</ele>
        <time>2015-08-20T10:57:21Z</time>
      </trkpt>
      <trkpt lat="45.51765" lon="2.82898">
        <ele>1703.7239</ele>
        <time>2015-08-20T10:57:26Z</time>
      </trkpt>
      <trkpt lat="45.5177" lon="2.82895">
        <ele>1704.9528</ele>
        <time>2015-08-20T10:57:31Z</time>
      </trkpt>
      <trkpt lat="45.51775" lon="2.82892">
        <ele>1704.9528</ele>
        <time>2015-08-20T10:57:36Z</time>
      </trkpt>
      <trkpt lat="45.51779" lon="2.82889">
        <ele>1706.1066</ele>
        <time>2015-08-20T10:57:41Z</time>
      </trkpt>
      <trkpt lat="45.51783" lon="2.82888">
        <ele>1706.1066</ele>
        <time>2015-08-20T10:57:46Z</time>
      </trkpt>
      <trkpt lat="45.51786" lon="2.82886">
        <ele>1706.1066</ele>
        <time>2015-08-20T10:57:51Z</time>
      </trkpt>
      <trkpt lat="45.5179" lon="2.82883">
        <ele>1707.3657</ele>
        <time>2015-08-20T10:57:56Z</time>
      </trkpt>
      <trkpt lat="45.51795" lon="2.82881">
        <ele>1707.3657</ele>
        <time>2015-08-20T10:58:01Z</time>
      </trkpt>
      <trkpt lat="45.51799" lon="2.82879">
        <ele>1708.5654</ele>
        <time>2015-08-20T10:58:06Z</time>
      </trkpt>
      <trkpt lat="45.51802" lon="2.82874">
        <ele>1708.5654</ele>
        <time>2015-08-20T10:58:11Z</time>
      </trkpt>
      <trkpt lat="45.51806" lon="2.82871">
        <ele>1708.5654</ele>
        <time>2015-08-20T10:58:16Z</time>
      </trkpt>
      <trkpt lat="45.5181" lon="2.82868">
        <ele>1709.784</ele>
        <time>2015-08-20T10:58:21Z</time>
      </trkpt>
      <trkpt lat="45.51814" lon="2.82865">
        <ele>1709.784</ele>
        <time>2015-08-20T10:58:26Z</time>
      </trkpt>
      <trkpt lat="45.51816" lon="2.8286">
        <ele>1709.784</ele>
        <time>2015-08-20T10:58:31Z</time>
      </trkpt>
      <trkpt lat="45.51828" lon="2.82859">
        <ele>1709.1779</ele>
        <time>2015-08-20T10:58:39Z</time>
      </trkpt>
      <trkpt lat="45.51829" lon="2.82851">
        <ele>1709.1779</ele>
        <time>2015-08-20T10:58:44Z</time>
      </trkpt>
      <trkpt lat="45.51832" lon="2.82846">
        <ele>1717.49</ele>
        <time>2015-08-20T10:58:49Z</time>
      </trkpt>
      <trkpt lat="45.51837" lon="2.82841">
        <ele>1717.49</ele>
        <time>2015-08-20T10:58:54Z</time>
      </trkpt>
      <trkpt lat="45.51841" lon="2.82836">
        <ele>1725.9191</ele>
        <time>2015-08-20T10:58:59Z</time>
      </trkpt>
      <trkpt lat="45.51846" lon="2.82831">
        <ele>1725.9191</ele>
        <time>2015-08-20T10:59:04Z</time>
      </trkpt>
      <trkpt lat="45.5185" lon="2.82827">
        <ele>1734.251</ele>
        <time>2015-08-20T10:59:09Z</time>
      </trkpt>
      <trkpt lat="45.51855" lon="2.82822">
        <ele>1734.251</ele>
        <time>2015-08-20T10:59:14Z</time>
      </trkpt>
      <trkpt lat="45.51859" lon="2.82816">
        <ele>1742.1434</ele>
        <time>2015-08-20T10:59:19Z</time>
      </trkpt>
      <trkpt lat="45.51863" lon="2.82812">
        <ele>1742.1434</ele>
        <time>2015-08-20T10:59:24Z</time>
      </trkpt>
      <trkpt lat="45.51868" lon="2.82808">
        <ele>1749.345</ele>
        <time>2015-08-20T10:59:29Z</time>
      </trkpt>
      <trkpt lat="45.51872" lon="2.82802">
        <ele>1749.345</ele>
        <time>2015-08-20T10:59:34Z</time>
      </trkpt>
      <trkpt lat="45.51877" lon="2.82799">
        <ele>1755.6023</ele>
        <time>2015-08-20T10:59:39Z</time>
      </trkpt>
      <trkpt lat="45.5188" lon="2.82794">
        <ele>1755.6023</ele>
        <time>2015-08-20T10:59:44Z</time>
      </trkpt>
      <trkpt lat="45.51884" lon="2.8279">
        <ele>1760.7063</ele>
        <time>2015-08-20T10:59:49Z</time>
      </trkpt>
      <trkpt lat="45.51889" lon="2.82786">
        <ele>1760.7063</ele>
        <time>2015-08-20T10:59:54Z</time>
      </trkpt>
      <trkpt lat="45.51893" lon="2.82782">
        <ele>1764.5264</ele>
        <time>2015-08-20T10:59:59Z</time>
      </trkpt>
      <trkpt lat="45.51899" lon="2.82778">
        <ele>1764.5264</ele>
        <time>2015-08-20T11:00:04Z</time>
      </trkpt>
      <trkpt lat="45.51904" lon="2.82776">
        <ele>1767.0118</ele>
        <time>2015-08-20T11:00:09Z</time>
      </trkpt>
      <trkpt lat="45.5191" lon="2.82772">
        <ele>1767.0118</ele>
        <time>2015-08-20T11:00:14Z</time>
      </trkpt>
      <trkpt lat="45.51915" lon="2.82768">
        <ele>1768.2572</ele>
        <time>2015-08-20T11:00:19Z</time>
      </trkpt>
      <trkpt lat="45.5192" lon="2.82765">
        <ele>1768.2572</ele>
        <time>2015-08-20T11:00:24Z</time>
      </trkpt>
      <trkpt lat="45.51925" lon="2.82762">
        <ele>1768.3441</ele>
        <time>2015-08-20T11:00:29Z</time>
      </trkpt>
      <trkpt lat="45.51929" lon="2.82759">
        <ele>1768.3441</ele>
        <time>2015-08-20T11:00:34Z</time>
      </trkpt>
      <trkpt lat="45.51934" lon="2.82756">
        <ele>1767.5885</ele>
        <time>2015-08-20T11:00:39Z</time>
      </trkpt>
      <trkpt lat="45.51939" lon="2.82754">
        <ele>1767.5885</ele>
        <time>2015-08-20T11:00:44Z</time>
      </trkpt>
      <trkpt lat="45.51944" lon="2.82751">
        <ele>1766.1606</ele>
        <time>2015-08-20T11:00:49Z</time>
      </trkpt>
      <trkpt lat="45.51949" lon="2.82751">
        <ele>1766.1606</ele>
        <time>2015-08-20T11:00:54Z</time>
      </trkpt>
      <trkpt lat="45.51955" lon="2.82751">
        <ele>1764.226</ele>
        <time>2015-08-20T11:00:59Z</time>
      </trkpt>
      <trkpt lat="45.51958" lon="2.8275">
        <ele>1764.226</ele>
        <time>2015-08-20T11:01:04Z</time>
      </trkpt>
      <trkpt lat="45.51957" lon="2.8275">
        <ele>1764.226</ele>
        <time>2015-08-20T11:01:09Z</time>
      </trkpt>
      <trkpt lat="45.51961" lon="2.82753">
        <ele>1764.226</ele>
        <time>2015-08-20T11:01:14Z</time>
      </trkpt>
      <trkpt lat="45.51965" lon="2.82752">
        <ele>1762.3424</ele>
        <time>2015-08-20T11:01:19Z</time>
      </trkpt>
      <trkpt lat="45.51968" lon="2.82752">
        <ele>1762.3424</ele>
        <time>2015-08-20T11:01:24Z</time>
      </trkpt>
      <trkpt lat="45.51969" lon="2.82746">
        <ele>1762.3424</ele>
        <time>2015-08-20T11:01:29Z</time>
      </trkpt>
      <trkpt lat="45.51967" lon="2.82741">
        <ele>1760.7635</ele>
        <time>2015-08-20T11:01:34Z</time>
      </trkpt>
      <trkpt lat="45.51966" lon="2.82736">
        <ele>1760.7635</ele>
        <time>2015-08-20T11:01:39Z</time>
      </trkpt>
      <trkpt lat="45.51966" lon="2.82728">
        <ele>1759.354</ele>
        <time>2015-08-20T11:01:44Z</time>
      </trkpt>
      <trkpt lat="45.51974" lon="2.82717">
        <ele>1713.3788</ele>
        <time>2015-08-20T11:01:56Z</time>
      </trkpt>
      <trkpt lat="45.51978" lon="2.82711">
        <ele>1713.3788</ele>
        <time>2015-08-20T11:02:01Z</time>
      </trkpt>
      <trkpt lat="45.51978" lon="2.82702">
        <ele>1722.2076</ele>
        <time>2015-08-20T11:02:06Z</time>
      </trkpt>
      <trkpt lat="45.51985" lon="2.82681">
        <ele>1714.079</ele>
        <time>2015-08-20T11:02:20Z</time>
      </trkpt>
      <trkpt lat="45.5199" lon="2.82678">
        <ele>1714.079</ele>
        <time>2015-08-20T11:02:25Z</time>
      </trkpt>
      <trkpt lat="45.51995" lon="2.82675">
        <ele>1722.5643</ele>
        <time>2015-08-20T11:02:30Z</time>
      </trkpt>
      <trkpt lat="45.51999" lon="2.82672">
        <ele>1722.5643</ele>
        <time>2015-08-20T11:02:35Z</time>
      </trkpt>
      <trkpt lat="45.52003" lon="2.8267">
        <ele>1731.2034</ele>
        <time>2015-08-20T11:02:40Z</time>
      </trkpt>
      <trkpt lat="45.52006" lon="2.82666">
        <ele>1731.2034</ele>
        <time>2015-08-20T11:02:45Z</time>
      </trkpt>
      <trkpt lat="45.52009" lon="2.82661">
        <ele>1731.2034</ele>
        <time>2015-08-20T11:02:50Z</time>
      </trkpt>
      <trkpt lat="45.52009" lon="2.82654">
        <ele>1739.7341</ele>
        <time>2015-08-20T11:02:55Z</time>
      </trkpt>
      <trkpt lat="45.52008" lon="2.82649">
        <ele>1739.7341</ele>
        <time>2015-08-20T11:03:00Z</time>
      </trkpt>
      <trkpt lat="45.52007" lon="2.82644">
        <ele>1739.7341</ele>
        <time>2015-08-20T11:03:05Z</time>
      </trkpt>
      <trkpt lat="45.52006" lon="2.82641">
        <ele>1747.9567</ele>
        <time>2015-08-20T11:03:10Z</time>
      </trkpt>
      <trkpt lat="45.52004" lon="2.82634">
        <ele>1747.9567</ele>
        <time>2015-08-20T11:03:15Z</time>
      </trkpt>
      <trkpt lat="45.52009" lon="2.82628">
        <ele>1755.6917</ele>
        <time>2015-08-20T11:03:20Z</time>
      </trkpt>
      <trkpt lat="45.52012" lon="2.82623">
        <ele>1755.6917</ele>
        <time>2015-08-20T11:03:25Z</time>
      </trkpt>
      <trkpt lat="45.52013" lon="2.82616">
        <ele>1762.5892</ele>
        <time>2015-08-20T11:03:30Z</time>
      </trkpt>
      <trkpt lat="45.52014" lon="2.82609">
        <ele>1762.5892</ele>
        <time>2015-08-20T11:03:35Z</time>
      </trkpt>
      <trkpt lat="45.52014" lon="2.82603">
        <ele>1768.5403</ele>
        <time>2015-08-20T11:03:40Z</time>
      </trkpt>
      <trkpt lat="45.52009" lon="2.82597">
        <ele>1768.5403</ele>
        <time>2015-08-20T11:03:45Z</time>
      </trkpt>
      <trkpt lat="45.52007" lon="2.8259">
        <ele>1773.3828</ele>
        <time>2015-08-20T11:03:50Z</time>
      </trkpt>
      <trkpt lat="45.52008" lon="2.82583">
        <ele>1773.3828</ele>
        <time>2015-08-20T11:03:55Z</time>
      </trkpt>
      <trkpt lat="45.52009" lon="2.82574">
        <ele>1777.1075</ele>
        <time>2015-08-20T11:04:00Z</time>
      </trkpt>
      <trkpt lat="45.5201" lon="2.82564">
        <ele>1777.1075</ele>
        <time>2015-08-20T11:04:05Z</time>
      </trkpt>
      <trkpt lat="45.52013" lon="2.82558">
        <ele>1779.7255</ele>
        <time>2015-08-20T11:04:10Z</time>
      </trkpt>
      <trkpt lat="45.52017" lon="2.82553">
        <ele>1779.7255</ele>
        <time>2015-08-20T11:04:15Z</time>
      </trkpt>
      <trkpt lat="45.5202" lon="2.82546">
        <ele>1781.3707</ele>
        <time>2015-08-20T11:04:20Z</time>
      </trkpt>
      <trkpt lat="45.52022" lon="2.82543">
        <ele>1781.3707</ele>
        <time>2015-08-20T11:04:25Z</time>
      </trkpt>
      <trkpt lat="45.52023" lon="2.82536">
        <ele>1781.3707</ele>
        <time>2015-08-20T11:04:30Z</time>
      </trkpt>
      <trkpt lat="45.52025" lon="2.82531">
        <ele>1782.2682</ele>
        <time>2015-08-20T11:04:35Z</time>
      </trkpt>
      <trkpt lat="45.52027" lon="2.82525">
        <ele>1782.2682</ele>
        <time>2015-08-20T11:04:40Z</time>
      </trkpt>
      <trkpt lat="45.52029" lon="2.82519">
        <ele>1782.4688</ele>
        <time>2015-08-20T11:04:45Z</time>
      </trkpt>
      <trkpt lat="45.52031" lon="2.82513">
        <ele>1782.4688</ele>
        <time>2015-08-20T11:04:50Z</time>
      </trkpt>
      <trkpt lat="45.52032" lon="2.82507">
        <ele>1782.4688</ele>
        <time>2015-08-20T11:04:55Z</time>
      </trkpt>
      <trkpt lat="45.52031" lon="2.82499">
        <ele>1782.2787</ele>
        <time>2015-08-20T11:05:00Z</time>
      </trkpt>
      <trkpt lat="45.52032" lon="2.82491">
        <ele>1782.2787</ele>
        <time>2015-08-20T11:05:05Z</time>
      </trkpt>
      <trkpt lat="45.52032" lon="2.82484">
        <ele>1781.6901</ele>
        <time>2015-08-20T11:05:10Z</time>
      </trkpt>
      <trkpt lat="45.52034" lon="2.82478">
        <ele>1781.6901</ele>
        <time>2015-08-20T11:05:15Z</time>
      </trkpt>
      <trkpt lat="45.52036" lon="2.82471">
        <ele>1780.8994</ele>
        <time>2015-08-20T11:05:20Z</time>
      </trkpt>
      <trkpt lat="45.52036" lon="2.82466">
        <ele>1780.8994</ele>
        <time>2015-08-20T11:05:25Z</time>
      </trkpt>
      <trkpt lat="45.52037" lon="2.82461">
        <ele>1780.8994</ele>
        <time>2015-08-20T11:05:30Z</time>
      </trkpt>
      <trkpt lat="45.5204" lon="2.82456">
        <ele>1780.084</ele>
        <time>2015-08-20T11:05:35Z</time>
      </trkpt>
      <trkpt lat="45.52044" lon="2.8245">
        <ele>1780.084</ele>
        <time>2015-08-20T11:05:40Z</time>
      </trkpt>
      <trkpt lat="45.52044" lon="2.82443">
        <ele>1779.2103</ele>
        <time>2015-08-20T11:05:45Z</time>
      </trkpt>
      <trkpt lat="45.52045" lon="2.82437">
        <ele>1779.2103</ele>
        <time>2015-08-20T11:05:50Z</time>
      </trkpt>
      <trkpt lat="45.52047" lon="2.82432">
        <ele>1779.2103</ele>
        <time>2015-08-20T11:05:55Z</time>
      </trkpt>
      <trkpt lat="45.52045" lon="2.82425">
        <ele>1778.472</ele>
        <time>2015-08-20T11:06:00Z</time>
      </trkpt>
      <trkpt lat="45.52046" lon="2.82411">
        <ele>1736.0839</ele>
        <time>2015-08-20T11:06:13Z</time>
      </trkpt>
      <trkpt lat="45.52048" lon="2.82403">
        <ele>1736.0839</ele>
        <time>2015-08-20T11:06:18Z</time>
      </trkpt>
      <trkpt lat="45.52046" lon="2.82398">
        <ele>1744.6794</ele>
        <time>2015-08-20T11:06:23Z</time>
      </trkpt>
      <trkpt lat="45.52046" lon="2.82393">
        <ele>1744.6794</ele>
        <time>2015-08-20T11:06:28Z</time>
      </trkpt>
      <trkpt lat="45.52047" lon="2.82385">
        <ele>1753.4294</ele>
        <time>2015-08-20T11:06:33Z</time>
      </trkpt>
      <trkpt lat="45.5205" lon="2.82379">
        <ele>1753.4294</ele>
        <time>2015-08-20T11:06:38Z</time>
      </trkpt>
      <trkpt lat="45.52052" lon="2.82373">
        <ele>1762.0948</ele>
        <time>2015-08-20T11:06:43Z</time>
      </trkpt>
      <trkpt lat="45.52054" lon="2.82367">
        <ele>1762.0948</ele>
        <time>2015-08-20T11:06:48Z</time>
      </trkpt>
      <trkpt lat="45.52057" lon="2.82361">
        <ele>1770.3079</ele>
        <time>2015-08-20T11:06:53Z</time>
      </trkpt>
      <trkpt lat="45.52059" lon="2.82355">
        <ele>1770.3079</ele>
        <time>2015-08-20T11:06:58Z</time>
      </trkpt>
      <trkpt lat="45.52063" lon="2.8235">
        <ele>1777.9213</ele>
        <time>2015-08-20T11:07:03Z</time>
      </trkpt>
      <trkpt lat="45.52066" lon="2.82344">
        <ele>1777.9213</ele>
        <time>2015-08-20T11:07:08Z</time>
      </trkpt>
      <trkpt lat="45.52069" lon="2.82338">
        <ele>1784.6764</ele>
        <time>2015-08-20T11:07:13Z</time>
      </trkpt>
      <trkpt lat="45.52071" lon="2.82334">
        <ele>1784.6764</ele>
        <time>2015-08-20T11:07:18Z</time>
      </trkpt>
      <trkpt lat="45.52072" lon="2.82331">
        <ele>1784.6764</ele>
        <time>2015-08-20T11:07:23Z</time>
      </trkpt>
      <trkpt lat="45.52076" lon="2.82325">
        <ele>1790.6771</ele>
        <time>2015-08-20T11:07:28Z</time>
      </trkpt>
      <trkpt lat="45.5208" lon="2.8232">
        <ele>1790.6771</ele>
        <time>2015-08-20T11:07:33Z</time>
      </trkpt>
      <trkpt lat="45.52084" lon="2.82315">
        <ele>1795.557</ele>
        <time>2015-08-20T11:07:38Z</time>
      </trkpt>
      <trkpt lat="45.52087" lon="2.8231">
        <ele>1795.557</ele>
        <time>2015-08-20T11:07:43Z</time>
      </trkpt>
      <trkpt lat="45.52089" lon="2.82304">
        <ele>1799.3225</ele>
        <time>2015-08-20T11:07:48Z</time>
      </trkpt>
      <trkpt lat="45.52092" lon="2.82299">
        <ele>1799.3225</ele>
        <time>2015-08-20T11:07:53Z</time>
      </trkpt>
      <trkpt lat="45.52097" lon="2.82293">
        <ele>1801.9672</ele>
        <time>2015-08-20T11:07:58Z</time>
      </trkpt>
      <trkpt lat="45.52101" lon="2.82288">
        <ele>1801.9672</ele>
        <time>2015-08-20T11:08:03Z</time>
      </trkpt>
      <trkpt lat="45.52106" lon="2.82283">
        <ele>1803.5929</ele>
        <time>2015-08-20T11:08:08Z</time>
      </trkpt>
      <trkpt lat="45.52111" lon="2.82279">
        <ele>1803.5929</ele>
        <time>2015-08-20T11:08:13Z</time>
      </trkpt>
      <trkpt lat="45.52118" lon="2.82275">
        <ele>1804.0792</ele>
        <time>2015-08-20T11:08:18Z</time>
      </trkpt>
      <trkpt lat="45.52124" lon="2.82276">
        <ele>1804.0792</ele>
        <time>2015-08-20T11:08:23Z</time>
      </trkpt>
      <trkpt lat="45.52129" lon="2.82277">
        <ele>1803.5314</ele>
        <time>2015-08-20T11:08:28Z</time>
      </trkpt>
      <trkpt lat="45.52134" lon="2.82277">
        <ele>1803.5314</ele>
        <time>2015-08-20T11:08:33Z</time>
      </trkpt>
      <trkpt lat="45.52139" lon="2.82277">
        <ele>1802.0453</ele>
        <time>2015-08-20T11:08:38Z</time>
      </trkpt>
      <trkpt lat="45.52145" lon="2.82278">
        <ele>1802.0453</ele>
        <time>2015-08-20T11:08:43Z</time>
      </trkpt>
      <trkpt lat="45.5215" lon="2.82279">
        <ele>1800.1239</ele>
        <time>2015-08-20T11:08:48Z</time>
      </trkpt>
      <trkpt lat="45.52154" lon="2.8228">
        <ele>1800.1239</ele>
        <time>2015-08-20T11:08:53Z</time>
      </trkpt>
      <trkpt lat="45.52158" lon="2.82282">
        <ele>1800.1239</ele>
        <time>2015-08-20T11:08:58Z</time>
      </trkpt>
      <trkpt lat="45.52163" lon="2.82283">
        <ele>1798.1096</ele>
        <time>2015-08-20T11:09:03Z</time>
      </trkpt>
      <trkpt lat="45.52169" lon="2.82285">
        <ele>1798.1096</ele>
        <time>2015-08-20T11:09:08Z</time>
      </trkpt>
      <trkpt lat="45.52175" lon="2.82284">
        <ele>1795.8864</ele>
        <time>2015-08-20T11:09:13Z</time>
      </trkpt>
      <trkpt lat="45.52182" lon="2.82284">
        <ele>1795.8864</ele>
        <time>2015-08-20T11:09:18Z</time>
      </trkpt>
      <trkpt lat="45.52187" lon="2.82284">
        <ele>1793.7036</ele>
        <time>2015-08-20T11:09:23Z</time>
      </trkpt>
      <trkpt lat="45.52193" lon="2.82286">
        <ele>1793.7036</ele>
        <time>2015-08-20T11:09:28Z</time>
      </trkpt>
      <trkpt lat="45.52199" lon="2.82288">
        <ele>1791.3887</ele>
        <time>2015-08-20T11:09:33Z</time>
      </trkpt>
      <trkpt lat="45.52205" lon="2.82288">
        <ele>1791.3887</ele>
        <time>2015-08-20T11:09:38Z</time>
      </trkpt>
      <trkpt lat="45.52209" lon="2.82284">
        <ele>1789.212</ele>
        <time>2015-08-20T11:09:43Z</time>
      </trkpt>
      <trkpt lat="45.52215" lon="2.82283">
        <ele>1789.212</ele>
        <time>2015-08-20T11:09:48Z</time>
      </trkpt>
      <trkpt lat="45.52221" lon="2.8228">
        <ele>1786.8054</ele>
        <time>2015-08-20T11:09:53Z</time>
      </trkpt>
      <trkpt lat="45.52224" lon="2.82279">
        <ele>1786.8054</ele>
        <time>2015-08-20T11:09:58Z</time>
      </trkpt>
      <trkpt lat="45.52229" lon="2.82279">
        <ele>1786.8054</ele>
        <time>2015-08-20T11:10:03Z</time>
      </trkpt>
      <trkpt lat="45.52233" lon="2.82277">
        <ele>1784.1548</ele>
        <time>2015-08-20T11:10:08Z</time>
      </trkpt>
      <trkpt lat="45.52239" lon="2.82277">
        <ele>1784.1548</ele>
        <time>2015-08-20T11:10:13Z</time>
      </trkpt>
      <trkpt lat="45.52243" lon="2.82276">
        <ele>1781.6552</ele>
        <time>2015-08-20T11:10:18Z</time>
      </trkpt>
      <trkpt lat="45.52248" lon="2.82272">
        <ele>1781.6552</ele>
        <time>2015-08-20T11:10:23Z</time>
      </trkpt>
      <trkpt lat="45.52252" lon="2.82268">
        <ele>1779.283</ele>
        <time>2015-08-20T11:10:28Z</time>
      </trkpt>
      <trkpt lat="45.52255" lon="2.82264">
        <ele>1779.283</ele>
        <time>2015-08-20T11:10:33Z</time>
      </trkpt>
      <trkpt lat="45.52258" lon="2.82259">
        <ele>1779.283</ele>
        <time>2015-08-20T11:10:38Z</time>
      </trkpt>
      <trkpt lat="45.5226" lon="2.82256">
        <ele>1776.9991</ele>
        <time>2015-08-20T11:10:43Z</time>
      </trkpt>
      <trkpt lat="45.52263" lon="2.82254">
        <ele>1776.9991</ele>
        <time>2015-08-20T11:10:48Z</time>
      </trkpt>
      <trkpt lat="45.52266" lon="2.82251">
        <ele>1776.9991</ele>
        <time>2015-08-20T11:10:53Z</time>
      </trkpt>
      <trkpt lat="45.52271" lon="2.82247">
        <ele>1774.8091</ele>
        <time>2015-08-20T11:10:58Z</time>
      </trkpt>
      <trkpt lat="45.52275" lon="2.82246">
        <ele>1774.8091</ele>
        <time>2015-08-20T11:11:03Z</time>
      </trkpt>
      <trkpt lat="45.52279" lon="2.82244">
        <ele>1774.8091</ele>
        <time>2015-08-20T11:11:08Z</time>
      </trkpt>
      <trkpt lat="45.52283" lon="2.82242">
        <ele>1772.6312</ele>
        <time>2015-08-20T11:11:13Z</time>
      </trkpt>
      <trkpt lat="45.52285" lon="2.82239">
        <ele>1772.6312</ele>
        <time>2015-08-20T11:11:18Z</time>
      </trkpt>
      <trkpt lat="45.52288" lon="2.82234">
        <ele>1772.6312</ele>
        <time>2015-08-20T11:11:23Z</time>
      </trkpt>
      <trkpt lat="45.52288" lon="2.82228">
        <ele>1770.6859</ele>
        <time>2015-08-20T11:11:28Z</time>
      </trkpt>
      <trkpt lat="45.52292" lon="2.82222">
        <ele>1770.6859</ele>
        <time>2015-08-20T11:11:33Z</time>
      </trkpt>
      <trkpt lat="45.52294" lon="2.82218">
        <ele>1770.6859</ele>
        <time>2015-08-20T11:11:38Z</time>
      </trkpt>
      <trkpt lat="45.52296" lon="2.82213">
        <ele>1768.9781</ele>
        <time>2015-08-20T11:11:43Z</time>
      </trkpt>
      <trkpt lat="45.52297" lon="2.82207">
        <ele>1768.9781</ele>
        <time>2015-08-20T11:11:48Z</time>
      </trkpt>
      <trkpt lat="45.52296" lon="2.82196">
        <ele>1767.3333</ele>
        <time>2015-08-20T11:11:53Z</time>
      </trkpt>
      <trkpt lat="45.52297" lon="2.82189">
        <ele>1767.3333</ele>
        <time>2015-08-20T11:11:58Z</time>
      </trkpt>
      <trkpt lat="45.523" lon="2.82184">
        <ele>1765.8285</ele>
        <time>2015-08-20T11:12:03Z</time>
      </trkpt>
      <trkpt lat="45.52299" lon="2.82177">
        <ele>1765.8285</ele>
        <time>2015-08-20T11:12:08Z</time>
      </trkpt>
      <trkpt lat="45.52301" lon="2.8217">
        <ele>1764.3983</ele>
        <time>2015-08-20T11:12:13Z</time>
      </trkpt>
      <trkpt lat="45.52302" lon="2.82164">
        <ele>1764.3983</ele>
        <time>2015-08-20T11:12:18Z</time>
      </trkpt>
      <trkpt lat="45.52303" lon="2.8216">
        <ele>1764.3983</ele>
        <time>2015-08-20T11:12:23Z</time>
      </trkpt>
      <trkpt lat="45.52303" lon="2.82154">
        <ele>1763.0394</ele>
        <time>2015-08-20T11:12:28Z</time>
      </trkpt>
      <trkpt lat="45.52305" lon="2.82147">
        <ele>1763.0394</ele>
        <time>2015-08-20T11:12:33Z</time>
      </trkpt>
      <trkpt lat="45.52307" lon="2.82143">
        <ele>1763.0394</ele>
        <time>2015-08-20T11:12:38Z</time>
      </trkpt>
      <trkpt lat="45.52307" lon="2.82137">
        <ele>1761.8342</ele>
        <time>2015-08-20T11:12:43Z</time>
      </trkpt>
      <trkpt lat="45.52303" lon="2.82129">
        <ele>1761.8342</ele>
        <time>2015-08-20T11:12:48Z</time>
      </trkpt>
      <trkpt lat="45.52302" lon="2.82121">
        <ele>1760.652</ele>
        <time>2015-08-20T11:12:53Z</time>
      </trkpt>
      <trkpt lat="45.52303" lon="2.82114">
        <ele>1760.652</ele>
        <time>2015-08-20T11:12:58Z</time>
      </trkpt>
      <trkpt lat="45.52304" lon="2.8211">
        <ele>1760.652</ele>
        <time>2015-08-20T11:13:03Z</time>
      </trkpt>
      <trkpt lat="45.52304" lon="2.82106">
        <ele>1759.5677</ele>
        <time>2015-08-20T11:13:08Z</time>
      </trkpt>
      <trkpt lat="45.52305" lon="2.82099">
        <ele>1759.5677</ele>
        <time>2015-08-20T11:13:13Z</time>
      </trkpt>
      <trkpt lat="45.523" lon="2.82093">
        <ele>1758.5264</ele>
        <time>2015-08-20T11:13:18Z</time>
      </trkpt>
      <trkpt lat="45.52299" lon="2.82086">
        <ele>1758.5264</ele>
        <time>2015-08-20T11:13:23Z</time>
      </trkpt>
      <trkpt lat="45.52301" lon="2.8208">
        <ele>1757.5192</ele>
        <time>2015-08-20T11:13:28Z</time>
      </trkpt>
      <trkpt lat="45.523" lon="2.82073">
        <ele>1757.5192</ele>
        <time>2015-08-20T11:13:33Z</time>
      </trkpt>
      <trkpt lat="45.52301" lon="2.82065">
        <ele>1756.5813</ele>
        <time>2015-08-20T11:13:38Z</time>
      </trkpt>
      <trkpt lat="45.52301" lon="2.82057">
        <ele>1756.5813</ele>
        <time>2015-08-20T11:13:43Z</time>
      </trkpt>
      <trkpt lat="45.52301" lon="2.8205">
        <ele>1755.6599</ele>
        <time>2015-08-20T11:13:48Z</time>
      </trkpt>
      <trkpt lat="45.52303" lon="2.82043">
        <ele>1755.6599</ele>
        <time>2015-08-20T11:13:53Z</time>
      </trkpt>
      <trkpt lat="45.52303" lon="2.82037">
        <ele>1754.821</ele>
        <time>2015-08-20T11:13:58Z</time>
      </trkpt>
      <trkpt lat="45.52305" lon="2.82031">
        <ele>1754.821</ele>
        <time>2015-08-20T11:14:03Z</time>
      </trkpt>
      <trkpt lat="45.52307" lon="2.82028">
        <ele>1754.821</ele>
        <time>2015-08-20T11:14:08Z</time>
      </trkpt>
      <trkpt lat="45.52308" lon="2.82024">
        <ele>1754.1123</ele>
        <time>2015-08-20T11:14:13Z</time>
      </trkpt>
      <trkpt lat="45.52308" lon="2.82016">
        <ele>1754.1123</ele>
        <time>2015-08-20T11:14:18Z</time>
      </trkpt>
      <trkpt lat="45.52305" lon="2.82007">
        <ele>1753.4745</ele>
        <time>2015-08-20T11:14:23Z</time>
      </trkpt>
      <trkpt lat="45.52305" lon="2.81999">
        <ele>1753.4745</ele>
        <time>2015-08-20T11:14:28Z</time>
      </trkpt>
      <trkpt lat="45.52306" lon="2.81991">
        <ele>1752.9104</ele>
        <time>2015-08-20T11:14:33Z</time>
      </trkpt>
      <trkpt lat="45.52308" lon="2.81982">
        <ele>1752.9104</ele>
        <time>2015-08-20T11:14:38Z</time>
      </trkpt>
      <trkpt lat="45.52308" lon="2.81975">
        <ele>1752.4514</ele>
        <time>2015-08-20T11:14:43Z</time>
      </trkpt>
      <trkpt lat="45.52308" lon="2.81967">
        <ele>1752.4514</ele>
        <time>2015-08-20T11:14:48Z</time>
      </trkpt>
      <trkpt lat="45.52306" lon="2.81959">
        <ele>1752.126</ele>
        <time>2015-08-20T11:14:53Z</time>
      </trkpt>
      <trkpt lat="45.52307" lon="2.81953">
        <ele>1752.126</ele>
        <time>2015-08-20T11:14:58Z</time>
      </trkpt>
      <trkpt lat="45.52308" lon="2.81946">
        <ele>1751.8245</ele>
        <time>2015-08-20T11:15:03Z</time>
      </trkpt>
      <trkpt lat="45.52308" lon="2.8194">
        <ele>1751.8245</ele>
        <time>2015-08-20T11:15:08Z</time>
      </trkpt>
      <trkpt lat="45.5231" lon="2.81934">
        <ele>1751.8245</ele>
        <time>2015-08-20T11:15:13Z</time>
      </trkpt>
      <trkpt lat="45.52312" lon="2.81928">
        <ele>1751.6544</ele>
        <time>2015-08-20T11:15:18Z</time>
      </trkpt>
      <trkpt lat="45.5231" lon="2.81921">
        <ele>1751.6544</ele>
        <time>2015-08-20T11:15:23Z</time>
      </trkpt>
      <trkpt lat="45.52305" lon="2.81916">
        <ele>1751.4738</ele>
        <time>2015-08-20T11:15:28Z</time>
      </trkpt>
      <trkpt lat="45.523" lon="2.81914">
        <ele>1751.4738</ele>
        <time>2015-08-20T11:15:33Z</time>
      </trkpt>
      <trkpt lat="45.52297" lon="2.81913">
        <ele>1751.4738</ele>
        <time>2015-08-20T11:15:38Z</time>
      </trkpt>
      <trkpt lat="45.52293" lon="2.8191">
        <ele>1751.4974</ele>
        <time>2015-08-20T11:15:43Z</time>
      </trkpt>
      <trkpt lat="45.5229" lon="2.81905">
        <ele>1751.4974</ele>
        <time>2015-08-20T11:15:48Z</time>
      </trkpt>
      <trkpt lat="45.52287" lon="2.81901">
        <ele>1751.6665</ele>
        <time>2015-08-20T11:15:53Z</time>
      </trkpt>
      <trkpt lat="45.52286" lon="2.81898">
        <ele>1751.6665</ele>
        <time>2015-08-20T11:15:58Z</time>
      </trkpt>
      <trkpt lat="45.52282" lon="2.81893">
        <ele>1751.6665</ele>
        <time>2015-08-20T11:16:08Z</time>
      </trkpt>
      <trkpt lat="45.52279" lon="2.81887">
        <ele>1751.9707</ele>
        <time>2015-08-20T11:16:13Z</time>
      </trkpt>
      <trkpt lat="45.52277" lon="2.81883">
        <ele>1751.9707</ele>
        <time>2015-08-20T11:16:18Z</time>
      </trkpt>
      <trkpt lat="45.52273" lon="2.81879">
        <ele>1751.9707</ele>
        <time>2015-08-20T11:16:23Z</time>
      </trkpt>
      <trkpt lat="45.52269" lon="2.81875">
        <ele>1752.2942</ele>
        <time>2015-08-20T11:16:28Z</time>
      </trkpt>
      <trkpt lat="45.52265" lon="2.81871">
        <ele>1752.2942</ele>
        <time>2015-08-20T11:16:33Z</time>
      </trkpt>
      <trkpt lat="45.52261" lon="2.81867">
        <ele>1752.5604</ele>
        <time>2015-08-20T11:16:38Z</time>
      </trkpt>
      <trkpt lat="45.52256" lon="2.81863">
        <ele>1752.5604</ele>
        <time>2015-08-20T11:16:43Z</time>
      </trkpt>
      <trkpt lat="45.52252" lon="2.81861">
        <ele>1752.8645</ele>
        <time>2015-08-20T11:16:48Z</time>
      </trkpt>
      <trkpt lat="45.52249" lon="2.81857">
        <ele>1752.8645</ele>
        <time>2015-08-20T11:16:53Z</time>
      </trkpt>
      <trkpt lat="45.52245" lon="2.81853">
        <ele>1753.2185</ele>
        <time>2015-08-20T11:16:58Z</time>
      </trkpt>
      <trkpt lat="45.52241" lon="2.81848">
        <ele>1753.2185</ele>
        <time>2015-08-20T11:17:03Z</time>
      </trkpt>
      <trkpt lat="45.52237" lon="2.81845">
        <ele>1753.6033</ele>
        <time>2015-08-20T11:17:08Z</time>
      </trkpt>
      <trkpt lat="45.52234" lon="2.81841">
        <ele>1753.6033</ele>
        <time>2015-08-20T11:17:13Z</time>
      </trkpt>
      <trkpt lat="45.5223" lon="2.81839">
        <ele>1753.6033</ele>
        <time>2015-08-20T11:17:18Z</time>
      </trkpt>
      <trkpt lat="45.52227" lon="2.81837">
        <ele>1754.0762</ele>
        <time>2015-08-20T11:17:23Z</time>
      </trkpt>
      <trkpt lat="45.52225" lon="2.81834">
        <ele>1754.0762</ele>
        <time>2015-08-20T11:17:28Z</time>
      </trkpt>
      <trkpt lat="45.52226" lon="2.81833">
        <ele>1754.0762</ele>
        <time>2015-08-20T11:17:33Z</time>
      </trkpt>
      <trkpt lat="45.52223" lon="2.8183">
        <ele>1754.0762</ele>
        <time>2015-08-20T11:17:58Z</time>
      </trkpt>
      <trkpt lat="45.52219" lon="2.81827">
        <ele>1754.5101</ele>
        <time>2015-08-20T11:18:03Z</time>
      </trkpt>
      <trkpt lat="45.52215" lon="2.81821">
        <ele>1754.5101</ele>
        <time>2015-08-20T11:18:08Z</time>
      </trkpt>
      <trkpt lat="45.52214" lon="2.81821">
        <ele>1754.5101</ele>
        <time>2015-08-20T11:18:13Z</time>
      </trkpt>
      <trkpt lat="45.52214" lon="2.81818">
        <ele>1754.5101</ele>
        <time>2015-08-20T11:18:18Z</time>
      </trkpt>
      <trkpt lat="45.52212" lon="2.81815">
        <ele>1755.0569</ele>
        <time>2015-08-20T11:18:23Z</time>
      </trkpt>
      <trkpt lat="45.52211" lon="2.81813">
        <ele>1755.0569</ele>
        <time>2015-08-20T11:18:28Z</time>
      </trkpt>
      <trkpt lat="45.52208" lon="2.81811">
        <ele>1755.0569</ele>
        <time>2015-08-20T11:18:33Z</time>
      </trkpt>
      <trkpt lat="45.52205" lon="2.81809">
        <ele>1755.0569</ele>
        <time>2015-08-20T11:18:38Z</time>
      </trkpt>
      <trkpt lat="45.52203" lon="2.81807">
        <ele>1755.8551</ele>
        <time>2015-08-20T11:18:43Z</time>
      </trkpt>
      <trkpt lat="45.52201" lon="2.81805">
        <ele>1755.8551</ele>
        <time>2015-08-20T11:18:48Z</time>
      </trkpt>
      <trkpt lat="45.52199" lon="2.81803">
        <ele>1755.8551</ele>
        <time>2015-08-20T11:18:53Z</time>
      </trkpt>
      <trkpt lat="45.52197" lon="2.818">
        <ele>1755.8551</ele>
        <time>2015-08-20T11:18:58Z</time>
      </trkpt>
      <trkpt lat="45.52195" lon="2.81797">
        <ele>1756.8239</ele>
        <time>2015-08-20T11:19:03Z</time>
      </trkpt>
      <trkpt lat="45.52193" lon="2.81793">
        <ele>1756.8239</ele>
        <time>2015-08-20T11:19:08Z</time>
      </trkpt>
      <trkpt lat="45.52192" lon="2.81789">
        <ele>1756.8239</ele>
        <time>2015-08-20T11:19:13Z</time>
      </trkpt>
      <trkpt lat="45.52191" lon="2.81786">
        <ele>1756.8239</ele>
        <time>2015-08-20T11:19:18Z</time>
      </trkpt>
      <trkpt lat="45.52188" lon="2.81783">
        <ele>1757.9915</ele>
        <time>2015-08-20T11:19:23Z</time>
      </trkpt>
      <trkpt lat="45.52187" lon="2.81779">
        <ele>1757.9915</ele>
        <time>2015-08-20T11:19:28Z</time>
      </trkpt>
      <trkpt lat="45.52186" lon="2.81776">
        <ele>1757.9915</ele>
        <time>2015-08-20T11:19:33Z</time>
      </trkpt>
      <trkpt lat="45.52185" lon="2.81772">
        <ele>1757.9915</ele>
        <time>2015-08-20T11:19:38Z</time>
      </trkpt>
      <trkpt lat="45.52181" lon="2.8177">
        <ele>1759.3102</ele>
        <time>2015-08-20T11:19:43Z</time>
      </trkpt>
      <trkpt lat="45.52177" lon="2.81769">
        <ele>1759.3102</ele>
        <time>2015-08-20T11:19:48Z</time>
      </trkpt>
      <trkpt lat="45.52177" lon="2.81768">
        <ele>1759.3102</ele>
        <time>2015-08-20T11:19:53Z</time>
      </trkpt>
      <trkpt lat="45.52176" lon="2.81767">
        <ele>1759.3102</ele>
        <time>2015-08-20T11:20:08Z</time>
      </trkpt>
      <trkpt lat="45.52175" lon="2.81765">
        <ele>1759.3102</ele>
        <time>2015-08-20T11:20:13Z</time>
      </trkpt>
      <trkpt lat="45.52175" lon="2.81765">
        <ele>1759.3102</ele>
        <time>2015-08-20T11:20:18Z</time>
      </trkpt>
      <trkpt lat="45.52178" lon="2.81766">
        <ele>1760.8976</ele>
        <time>2015-08-20T11:20:43Z</time>
      </trkpt>
      <trkpt lat="45.52182" lon="2.81768">
        <ele>1760.8976</ele>
        <time>2015-08-20T11:20:48Z</time>
      </trkpt>
      <trkpt lat="45.52187" lon="2.81769">
        <ele>1762.3763</ele>
        <time>2015-08-20T11:20:53Z</time>
      </trkpt>
      <trkpt lat="45.5219" lon="2.8177">
        <ele>1762.3763</ele>
        <time>2015-08-20T11:20:58Z</time>
      </trkpt>
      <trkpt lat="45.52189" lon="2.81773">
        <ele>1762.3763</ele>
        <time>2015-08-20T11:21:03Z</time>
      </trkpt>
      <trkpt lat="45.52191" lon="2.81774">
        <ele>1762.3763</ele>
        <time>2015-08-20T11:21:08Z</time>
      </trkpt>
      <trkpt lat="45.52184" lon="2.81775">
        <ele>1765.0851</ele>
        <time>2015-08-20T11:27:28Z</time>
      </trkpt>
      <trkpt lat="45.52184" lon="2.81774">
        <ele>1765.0851</ele>
        <time>2015-08-20T11:27:33Z</time>
      </trkpt>
      <trkpt lat="45.52183" lon="2.81778">
        <ele>1765.0851</ele>
        <time>2015-08-20T11:27:58Z</time>
      </trkpt>
      <trkpt lat="45.52184" lon="2.81782">
        <ele>1765.0851</ele>
        <time>2015-08-20T11:28:03Z</time>
      </trkpt>
      <trkpt lat="45.52185" lon="2.81786">
        <ele>1767.3702</ele>
        <time>2015-08-20T11:28:08Z</time>
      </trkpt>
      <trkpt lat="45.52185" lon="2.81787">
        <ele>1767.3702</ele>
        <time>2015-08-20T11:28:13Z</time>
      </trkpt>
      <trkpt lat="45.52185" lon="2.81787">
        <ele>1767.3702</ele>
        <time>2015-08-20T11:28:18Z</time>
      </trkpt>
      <trkpt lat="45.52192" lon="2.81791">
        <ele>1769.2312</ele>
        <time>2015-08-20T11:28:28Z</time>
      </trkpt>
      <trkpt lat="45.52191" lon="2.81792">
        <ele>1769.2312</ele>
        <time>2015-08-20T11:28:33Z</time>
      </trkpt>
      <trkpt lat="45.52192" lon="2.81797">
        <ele>1769.2312</ele>
        <time>2015-08-20T11:28:38Z</time>
      </trkpt>
      <trkpt lat="45.52194" lon="2.81802">
        <ele>1769.2312</ele>
        <time>2015-08-20T11:28:43Z</time>
      </trkpt>
      <trkpt lat="45.52196" lon="2.81804">
        <ele>1770.712</ele>
        <time>2015-08-20T11:28:48Z</time>
      </trkpt>
      <trkpt lat="45.52198" lon="2.81808">
        <ele>1770.712</ele>
        <time>2015-08-20T11:28:53Z</time>
      </trkpt>
      <trkpt lat="45.52201" lon="2.8181">
        <ele>1770.712</ele>
        <time>2015-08-20T11:28:58Z</time>
      </trkpt>
      <trkpt lat="45.52205" lon="2.81814">
        <ele>1771.7379</ele>
        <time>2015-08-20T11:29:03Z</time>
      </trkpt>
      <trkpt lat="45.52206" lon="2.81817">
        <ele>1771.7379</ele>
        <time>2015-08-20T11:29:08Z</time>
      </trkpt>
      <trkpt lat="45.52209" lon="2.81821">
        <ele>1771.7379</ele>
        <time>2015-08-20T11:29:13Z</time>
      </trkpt>
      <trkpt lat="45.52211" lon="2.81825">
        <ele>1772.3424</ele>
        <time>2015-08-20T11:29:18Z</time>
      </trkpt>
      <trkpt lat="45.52211" lon="2.81825">
        <ele>1772.3424</ele>
        <time>2015-08-20T11:29:23Z</time>
      </trkpt>
      <trkpt lat="45.52216" lon="2.8183">
        <ele>1772.3424</ele>
        <time>2015-08-20T11:29:33Z</time>
      </trkpt>
      <trkpt lat="45.52217" lon="2.81831">
        <ele>1772.3424</ele>
        <time>2015-08-20T11:29:38Z</time>
      </trkpt>
      <trkpt lat="45.52217" lon="2.81831">
        <ele>1772.3424</ele>
        <time>2015-08-20T11:29:43Z</time>
      </trkpt>
      <trkpt lat="45.52223" lon="2.81831">
        <ele>1772.4125</ele>
        <time>2015-08-20T11:29:58Z</time>
      </trkpt>
      <trkpt lat="45.52217" lon="2.81827">
        <ele>1772.4125</ele>
        <time>2015-08-20T11:31:33Z</time>
      </trkpt>
      <trkpt lat="45.52222" lon="2.81833">
        <ele>1771.8303</ele>
        <time>2015-08-20T11:32:43Z</time>
      </trkpt>
      <trkpt lat="45.52225" lon="2.81837">
        <ele>1771.8303</ele>
        <time>2015-08-20T11:32:48Z</time>
      </trkpt>
      <trkpt lat="45.52228" lon="2.81839">
        <ele>1771.8303</ele>
        <time>2015-08-20T11:32:53Z</time>
      </trkpt>
      <trkpt lat="45.52232" lon="2.81842">
        <ele>1770.9667</ele>
        <time>2015-08-20T11:32:58Z</time>
      </trkpt>
      <trkpt lat="45.52237" lon="2.81845">
        <ele>1770.9667</ele>
        <time>2015-08-20T11:33:03Z</time>
      </trkpt>
      <trkpt lat="45.52241" lon="2.81851">
        <ele>1769.9474</ele>
        <time>2015-08-20T11:33:08Z</time>
      </trkpt>
      <trkpt lat="45.52245" lon="2.81855">
        <ele>1769.9474</ele>
        <time>2015-08-20T11:33:13Z</time>
      </trkpt>
      <trkpt lat="45.52248" lon="2.81859">
        <ele>1769.9474</ele>
        <time>2015-08-20T11:33:18Z</time>
      </trkpt>
      <trkpt lat="45.52251" lon="2.81862">
        <ele>1768.7299</ele>
        <time>2015-08-20T11:33:23Z</time>
      </trkpt>
      <trkpt lat="45.52255" lon="2.81866">
        <ele>1768.7299</ele>
        <time>2015-08-20T11:33:28Z</time>
      </trkpt>
      <trkpt lat="45.5226" lon="2.81869">
        <ele>1767.4633</ele>
        <time>2015-08-20T11:33:33Z</time>
      </trkpt>
      <trkpt lat="45.52265" lon="2.81874">
        <ele>1767.4633</ele>
        <time>2015-08-20T11:33:38Z</time>
      </trkpt>
      <trkpt lat="45.52269" lon="2.81879">
        <ele>1766.2422</ele>
        <time>2015-08-20T11:33:43Z</time>
      </trkpt>
      <trkpt lat="45.52273" lon="2.81884">
        <ele>1766.2422</ele>
        <time>2015-08-20T11:33:48Z</time>
      </trkpt>
      <trkpt lat="45.52279" lon="2.81888">
        <ele>1765.1107</ele>
        <time>2015-08-20T11:33:53Z</time>
      </trkpt>
      <trkpt lat="45.52282" lon="2.81893">
        <ele>1765.1107</ele>
        <time>2015-08-20T11:33:58Z</time>
      </trkpt>
      <trkpt lat="45.52285" lon="2.81897">
        <ele>1764.0084</ele>
        <time>2015-08-20T11:34:03Z</time>
      </trkpt>
      <trkpt lat="45.52289" lon="2.819">
        <ele>1764.0084</ele>
        <time>2015-08-20T11:34:08Z</time>
      </trkpt>
      <trkpt lat="45.52293" lon="2.81909">
        <ele>1762.8651</ele>
        <time>2015-08-20T11:34:13Z</time>
      </trkpt>
      <trkpt lat="45.52297" lon="2.81913">
        <ele>1762.8651</ele>
        <time>2015-08-20T11:34:18Z</time>
      </trkpt>
      <trkpt lat="45.52302" lon="2.81915">
        <ele>1761.7166</ele>
        <time>2015-08-20T11:34:23Z</time>
      </trkpt>
      <trkpt lat="45.52305" lon="2.8192">
        <ele>1761.7166</ele>
        <time>2015-08-20T11:34:28Z</time>
      </trkpt>
      <trkpt lat="45.52305" lon="2.81927">
        <ele>1760.5239</ele>
        <time>2015-08-20T11:34:33Z</time>
      </trkpt>
      <trkpt lat="45.52307" lon="2.81933">
        <ele>1760.5239</ele>
        <time>2015-08-20T11:34:38Z</time>
      </trkpt>
      <trkpt lat="45.52307" lon="2.81941">
        <ele>1759.2225</ele>
        <time>2015-08-20T11:34:43Z</time>
      </trkpt>
      <trkpt lat="45.52306" lon="2.81948">
        <ele>1759.2225</ele>
        <time>2015-08-20T11:34:48Z</time>
      </trkpt>
      <trkpt lat="45.52305" lon="2.81957">
        <ele>1757.8966</ele>
        <time>2015-08-20T11:34:53Z</time>
      </trkpt>
      <trkpt lat="45.52305" lon="2.81967">
        <ele>1757.8966</ele>
        <time>2015-08-20T11:34:58Z</time>
      </trkpt>
      <trkpt lat="45.52306" lon="2.81975">
        <ele>1756.3938</ele>
        <time>2015-08-20T11:35:03Z</time>
      </trkpt>
      <trkpt lat="45.52309" lon="2.81984">
        <ele>1756.3938</ele>
        <time>2015-08-20T11:35:08Z</time>
      </trkpt>
      <trkpt lat="45.52309" lon="2.81993">
        <ele>1754.7751</ele>
        <time>2015-08-20T11:35:13Z</time>
      </trkpt>
      <trkpt lat="45.5231" lon="2.82002">
        <ele>1754.7751</ele>
        <time>2015-08-20T11:35:18Z</time>
      </trkpt>
      <trkpt lat="45.52311" lon="2.82012">
        <ele>1753.1262</ele>
        <time>2015-08-20T11:35:23Z</time>
      </trkpt>
      <trkpt lat="45.52311" lon="2.82021">
        <ele>1753.1262</ele>
        <time>2015-08-20T11:35:28Z</time>
      </trkpt>
      <trkpt lat="45.52309" lon="2.8203">
        <ele>1751.555</ele>
        <time>2015-08-20T11:35:33Z</time>
      </trkpt>
      <trkpt lat="45.52304" lon="2.82036">
        <ele>1751.555</ele>
        <time>2015-08-20T11:35:38Z</time>
      </trkpt>
      <trkpt lat="45.52302" lon="2.82046">
        <ele>1750.0319</ele>
        <time>2015-08-20T11:35:43Z</time>
      </trkpt>
      <trkpt lat="45.52302" lon="2.82054">
        <ele>1750.0319</ele>
        <time>2015-08-20T11:35:48Z</time>
      </trkpt>
      <trkpt lat="45.52302" lon="2.82063">
        <ele>1748.5862</ele>
        <time>2015-08-20T11:35:53Z</time>
      </trkpt>
      <trkpt lat="45.52304" lon="2.82071">
        <ele>1748.5862</ele>
        <time>2015-08-20T11:35:58Z</time>
      </trkpt>
      <trkpt lat="45.52302" lon="2.8208">
        <ele>1747.3031</ele>
        <time>2015-08-20T11:36:03Z</time>
      </trkpt>
      <trkpt lat="45.523" lon="2.82087">
        <ele>1747.3031</ele>
        <time>2015-08-20T11:36:08Z</time>
      </trkpt>
      <trkpt lat="45.52302" lon="2.82094">
        <ele>1746.2462</ele>
        <time>2015-08-20T11:36:13Z</time>
      </trkpt>
      <trkpt lat="45.52303" lon="2.82101">
        <ele>1746.2462</ele>
        <time>2015-08-20T11:36:18Z</time>
      </trkpt>
      <trkpt lat="45.52302" lon="2.82106">
        <ele>1746.2462</ele>
        <time>2015-08-20T11:36:23Z</time>
      </trkpt>
      <trkpt lat="45.52301" lon="2.8211">
        <ele>1745.3151</ele>
        <time>2015-08-20T11:36:28Z</time>
      </trkpt>
      <trkpt lat="45.523" lon="2.82114">
        <ele>1745.3151</ele>
        <time>2015-08-20T11:36:33Z</time>
      </trkpt>
      <trkpt lat="45.52299" lon="2.82122">
        <ele>1745.3151</ele>
        <time>2015-08-20T11:36:38Z</time>
      </trkpt>
      <trkpt lat="45.52303" lon="2.82128">
        <ele>1744.4738</ele>
        <time>2015-08-20T11:36:43Z</time>
      </trkpt>
      <trkpt lat="45.52303" lon="2.82134">
        <ele>1744.4738</ele>
        <time>2015-08-20T11:36:48Z</time>
      </trkpt>
      <trkpt lat="45.52302" lon="2.8214">
        <ele>1744.4738</ele>
        <time>2015-08-20T11:36:53Z</time>
      </trkpt>
      <trkpt lat="45.52301" lon="2.8215">
        <ele>1743.8762</ele>
        <time>2015-08-20T11:36:58Z</time>
      </trkpt>
      <trkpt lat="45.52299" lon="2.82157">
        <ele>1743.8762</ele>
        <time>2015-08-20T11:37:03Z</time>
      </trkpt>
      <trkpt lat="45.52298" lon="2.82164">
        <ele>1743.5345</ele>
        <time>2015-08-20T11:37:08Z</time>
      </trkpt>
      <trkpt lat="45.52296" lon="2.8217">
        <ele>1743.5345</ele>
        <time>2015-08-20T11:37:13Z</time>
      </trkpt>
      <trkpt lat="45.52295" lon="2.82176">
        <ele>1743.3868</ele>
        <time>2015-08-20T11:37:18Z</time>
      </trkpt>
      <trkpt lat="45.52294" lon="2.82184">
        <ele>1743.3868</ele>
        <time>2015-08-20T11:37:23Z</time>
      </trkpt>
      <trkpt lat="45.52294" lon="2.82191">
        <ele>1743.3461</ele>
        <time>2015-08-20T11:37:28Z</time>
      </trkpt>
      <trkpt lat="45.52293" lon="2.82199">
        <ele>1743.3461</ele>
        <time>2015-08-20T11:37:33Z</time>
      </trkpt>
      <trkpt lat="45.52293" lon="2.82206">
        <ele>1743.447</ele>
        <time>2015-08-20T11:37:38Z</time>
      </trkpt>
      <trkpt lat="45.52292" lon="2.82212">
        <ele>1743.447</ele>
        <time>2015-08-20T11:37:43Z</time>
      </trkpt>
      <trkpt lat="45.52291" lon="2.82218">
        <ele>1743.447</ele>
        <time>2015-08-20T11:37:48Z</time>
      </trkpt>
      <trkpt lat="45.52289" lon="2.82225">
        <ele>1743.5625</ele>
        <time>2015-08-20T11:37:53Z</time>
      </trkpt>
      <trkpt lat="45.52287" lon="2.82231">
        <ele>1743.5625</ele>
        <time>2015-08-20T11:37:58Z</time>
      </trkpt>
      <trkpt lat="45.52283" lon="2.82236">
        <ele>1743.5314</ele>
        <time>2015-08-20T11:38:03Z</time>
      </trkpt>
      <trkpt lat="45.52279" lon="2.82242">
        <ele>1743.5314</ele>
        <time>2015-08-20T11:38:08Z</time>
      </trkpt>
      <trkpt lat="45.52274" lon="2.82248">
        <ele>1743.3777</ele>
        <time>2015-08-20T11:38:13Z</time>
      </trkpt>
      <trkpt lat="45.52269" lon="2.82251">
        <ele>1743.3777</ele>
        <time>2015-08-20T11:38:18Z</time>
      </trkpt>
      <trkpt lat="45.52264" lon="2.82252">
        <ele>1743.1818</ele>
        <time>2015-08-20T11:38:23Z</time>
      </trkpt>
      <trkpt lat="45.52258" lon="2.82253">
        <ele>1743.1818</ele>
        <time>2015-08-20T11:38:28Z</time>
      </trkpt>
      <trkpt lat="45.52254" lon="2.82255">
        <ele>1742.9893</ele>
        <time>2015-08-20T11:38:33Z</time>
      </trkpt>
      <trkpt lat="45.52251" lon="2.82259">
        <ele>1742.9893</ele>
        <time>2015-08-20T11:38:38Z</time>
      </trkpt>
      <trkpt lat="45.52247" lon="2.82265">
        <ele>1742.7415</ele>
        <time>2015-08-20T11:38:43Z</time>
      </trkpt>
      <trkpt lat="45.52247" lon="2.82272">
        <ele>1742.7415</ele>
        <time>2015-08-20T11:38:48Z</time>
      </trkpt>
      <trkpt lat="45.52244" lon="2.82277">
        <ele>1742.3265</ele>
        <time>2015-08-20T11:38:53Z</time>
      </trkpt>
      <trkpt lat="45.52239" lon="2.82281">
        <ele>1742.3265</ele>
        <time>2015-08-20T11:38:58Z</time>
      </trkpt>
      <trkpt lat="45.52233" lon="2.8228">
        <ele>1741.9583</ele>
        <time>2015-08-20T11:39:03Z</time>
      </trkpt>
      <trkpt lat="45.52228" lon="2.82278">
        <ele>1741.9583</ele>
        <time>2015-08-20T11:39:08Z</time>
      </trkpt>
      <trkpt lat="45.52223" lon="2.82279">
        <ele>1741.5753</ele>
        <time>2015-08-20T11:39:13Z</time>
      </trkpt>
      <trkpt lat="45.52218" lon="2.82281">
        <ele>1741.5753</ele>
        <time>2015-08-20T11:39:18Z</time>
      </trkpt>
      <trkpt lat="45.52213" lon="2.82286">
        <ele>1741.2214</ele>
        <time>2015-08-20T11:39:23Z</time>
      </trkpt>
      <trkpt lat="45.52207" lon="2.82284">
        <ele>1741.2214</ele>
        <time>2015-08-20T11:39:28Z</time>
      </trkpt>
      <trkpt lat="45.522" lon="2.82286">
        <ele>1740.9231</ele>
        <time>2015-08-20T11:39:33Z</time>
      </trkpt>
      <trkpt lat="45.52194" lon="2.82287">
        <ele>1740.9231</ele>
        <time>2015-08-20T11:39:38Z</time>
      </trkpt>
      <trkpt lat="45.52189" lon="2.82287">
        <ele>1740.7186</ele>
        <time>2015-08-20T11:39:43Z</time>
      </trkpt>
      <trkpt lat="45.52183" lon="2.82286">
        <ele>1740.7186</ele>
        <time>2015-08-20T11:39:48Z</time>
      </trkpt>
      <trkpt lat="45.52176" lon="2.82288">
        <ele>1740.557</ele>
        <time>2015-08-20T11:39:53Z</time>
      </trkpt>
      <trkpt lat="45.5217" lon="2.8229">
        <ele>1740.557</ele>
        <time>2015-08-20T11:39:58Z</time>
      </trkpt>
      <trkpt lat="45.52163" lon="2.82288">
        <ele>1740.5636</ele>
        <time>2015-08-20T11:40:03Z</time>
      </trkpt>
      <trkpt lat="45.52158" lon="2.82288">
        <ele>1740.5636</ele>
        <time>2015-08-20T11:40:08Z</time>
      </trkpt>
      <trkpt lat="45.52152" lon="2.82287">
        <ele>1740.7681</ele>
        <time>2015-08-20T11:40:13Z</time>
      </trkpt>
      <trkpt lat="45.52145" lon="2.82284">
        <ele>1740.7681</ele>
        <time>2015-08-20T11:40:18Z</time>
      </trkpt>
      <trkpt lat="45.5214" lon="2.82285">
        <ele>1741.0381</ele>
        <time>2015-08-20T11:40:23Z</time>
      </trkpt>
      <trkpt lat="45.52136" lon="2.82284">
        <ele>1741.0381</ele>
        <time>2015-08-20T11:40:28Z</time>
      </trkpt>
      <trkpt lat="45.52128" lon="2.82284">
        <ele>1741.3668</ele>
        <time>2015-08-20T11:40:33Z</time>
      </trkpt>
      <trkpt lat="45.52123" lon="2.82283">
        <ele>1741.3668</ele>
        <time>2015-08-20T11:40:38Z</time>
      </trkpt>
      <trkpt lat="45.52116" lon="2.82278">
        <ele>1741.8915</ele>
        <time>2015-08-20T11:40:43Z</time>
      </trkpt>
      <trkpt lat="45.5211" lon="2.82277">
        <ele>1741.8915</ele>
        <time>2015-08-20T11:40:48Z</time>
      </trkpt>
      <trkpt lat="45.52106" lon="2.82282">
        <ele>1742.5804</ele>
        <time>2015-08-20T11:40:53Z</time>
      </trkpt>
      <trkpt lat="45.521" lon="2.82286">
        <ele>1742.5804</ele>
        <time>2015-08-20T11:40:58Z</time>
      </trkpt>
      <trkpt lat="45.52095" lon="2.82291">
        <ele>1743.6053</ele>
        <time>2015-08-20T11:41:03Z</time>
      </trkpt>
      <trkpt lat="45.5209" lon="2.82295">
        <ele>1743.6053</ele>
        <time>2015-08-20T11:41:08Z</time>
      </trkpt>
      <trkpt lat="45.52087" lon="2.82297">
        <ele>1744.606</ele>
        <time>2015-08-20T11:41:13Z</time>
      </trkpt>
      <trkpt lat="45.52083" lon="2.82303">
        <ele>1744.606</ele>
        <time>2015-08-20T11:41:18Z</time>
      </trkpt>
      <trkpt lat="45.5208" lon="2.82311">
        <ele>1745.5077</ele>
        <time>2015-08-20T11:41:23Z</time>
      </trkpt>
      <trkpt lat="45.52076" lon="2.82318">
        <ele>1745.5077</ele>
        <time>2015-08-20T11:41:28Z</time>
      </trkpt>
      <trkpt lat="45.52046" lon="2.82363">
        <ele>1746.069</ele>
        <time>2015-08-20T11:42:04Z</time>
      </trkpt>
      <trkpt lat="45.52043" lon="2.82371">
        <ele>1746.069</ele>
        <time>2015-08-20T11:42:09Z</time>
      </trkpt>
      <trkpt lat="45.52035" lon="2.82448">
        <ele>1744.9429</ele>
        <time>2015-08-20T11:43:03Z</time>
      </trkpt>
      <trkpt lat="45.52033" lon="2.82461">
        <ele>1744.9429</ele>
        <time>2015-08-20T11:43:08Z</time>
      </trkpt>
      <trkpt lat="45.52032" lon="2.82467">
        <ele>1743.4514</ele>
        <time>2015-08-20T11:43:17Z</time>
      </trkpt>
      <trkpt lat="45.52032" lon="2.82468">
        <ele>1743.4514</ele>
        <time>2015-08-20T11:43:26Z</time>
      </trkpt>
      <trkpt lat="45.52017" lon="2.82548">
        <ele>1741.0193</ele>
        <time>2015-08-20T11:44:13Z</time>
      </trkpt>
      <trkpt lat="45.51999" lon="2.82643">
        <ele>1737.7499</ele>
        <time>2015-08-20T11:45:08Z</time>
      </trkpt>
      <trkpt lat="45.52004" lon="2.82651">
        <ele>1737.7499</ele>
        <time>2015-08-20T11:45:13Z</time>
      </trkpt>
      <trkpt lat="45.52006" lon="2.82658">
        <ele>1734.52</ele>
        <time>2015-08-20T11:45:18Z</time>
      </trkpt>
      <trkpt lat="45.52001" lon="2.82666">
        <ele>1734.52</ele>
        <time>2015-08-20T11:45:23Z</time>
      </trkpt>
      <trkpt lat="45.51996" lon="2.82668">
        <ele>1731.5795</ele>
        <time>2015-08-20T11:45:32Z</time>
      </trkpt>
      <trkpt lat="45.51982" lon="2.8268">
        <ele>1728.8854</ele>
        <time>2015-08-20T11:46:06Z</time>
      </trkpt>
      <trkpt lat="45.51967" lon="2.82719">
        <ele>1726.4404</ele>
        <time>2015-08-20T11:46:08Z</time>
      </trkpt>
      <trkpt lat="45.51965" lon="2.8273">
        <ele>1726.4404</ele>
        <time>2015-08-20T11:46:13Z</time>
      </trkpt>
      <trkpt lat="45.51956" lon="2.82755">
        <ele>1723.8716</ele>
        <time>2015-08-20T11:46:39Z</time>
      </trkpt>
      <trkpt lat="45.5192" lon="2.82762">
        <ele>1721.9431</ele>
        <time>2015-08-20T11:47:06Z</time>
      </trkpt>
      <trkpt lat="45.51914" lon="2.82765">
        <ele>1721.9431</ele>
        <time>2015-08-20T11:47:08Z</time>
      </trkpt>
      <trkpt lat="45.51904" lon="2.82775">
        <ele>1720.2517</ele>
        <time>2015-08-20T11:47:34Z</time>
      </trkpt>
      <trkpt lat="45.51875" lon="2.82794">
        <ele>1718.7544</ele>
        <time>2015-08-20T11:48:07Z</time>
      </trkpt>
      <trkpt lat="45.51847" lon="2.82816">
        <ele>1717.3676</ele>
        <time>2015-08-20T11:48:08Z</time>
      </trkpt>
      <trkpt lat="45.51831" lon="2.82834">
        <ele>1715.9553</ele>
        <time>2015-08-20T11:48:28Z</time>
      </trkpt>
      <trkpt lat="45.51831" lon="2.82832">
        <ele>1715.9553</ele>
        <time>2015-08-20T11:48:33Z</time>
      </trkpt>
      <trkpt lat="45.51829" lon="2.82834">
        <ele>1715.9553</ele>
        <time>2015-08-20T11:48:58Z</time>
      </trkpt>
      <trkpt lat="45.51827" lon="2.82836">
        <ele>1715.9553</ele>
        <time>2015-08-20T11:49:09Z</time>
      </trkpt>
      <trkpt lat="45.51813" lon="2.82852">
        <ele>1714.8966</ele>
        <time>2015-08-20T11:49:17Z</time>
      </trkpt>
      <trkpt lat="45.51803" lon="2.8287">
        <ele>1714.0222</ele>
        <time>2015-08-20T11:49:28Z</time>
      </trkpt>
      <trkpt lat="45.518" lon="2.82874">
        <ele>1714.0222</ele>
        <time>2015-08-20T11:49:33Z</time>
      </trkpt>
      <trkpt lat="45.51792" lon="2.82877">
        <ele>1713.204</ele>
        <time>2015-08-20T11:49:38Z</time>
      </trkpt>
      <trkpt lat="45.51743" lon="2.82915">
        <ele>1711.3859</ele>
        <time>2015-08-20T11:50:28Z</time>
      </trkpt>
      <trkpt lat="45.51739" lon="2.82918">
        <ele>1711.3859</ele>
        <time>2015-08-20T11:50:33Z</time>
      </trkpt>
      <trkpt lat="45.51733" lon="2.8292">
        <ele>1709.5233</ele>
        <time>2015-08-20T11:50:38Z</time>
      </trkpt>
      <trkpt lat="45.51695" lon="2.82952">
        <ele>1706.2104</ele>
        <time>2015-08-20T11:51:23Z</time>
      </trkpt>
      <trkpt lat="45.5169" lon="2.82948">
        <ele>1706.2104</ele>
        <time>2015-08-20T11:51:28Z</time>
      </trkpt>
      <trkpt lat="45.51686" lon="2.82946">
        <ele>1702.9872</ele>
        <time>2015-08-20T11:51:33Z</time>
      </trkpt>
      <trkpt lat="45.51681" lon="2.82939">
        <ele>1702.9872</ele>
        <time>2015-08-20T11:51:38Z</time>
      </trkpt>
      <trkpt lat="45.51681" lon="2.82933">
        <ele>1699.7385</ele>
        <time>2015-08-20T11:51:43Z</time>
      </trkpt>
      <trkpt lat="45.5168" lon="2.82925">
        <ele>1699.7385</ele>
        <time>2015-08-20T11:51:48Z</time>
      </trkpt>
      <trkpt lat="45.51678" lon="2.82922">
        <ele>1699.7385</ele>
        <time>2015-08-20T11:52:31Z</time>
      </trkpt>
      <trkpt lat="45.51669" lon="2.82864">
        <ele>1695.3776</ele>
        <time>2015-08-20T11:52:38Z</time>
      </trkpt>
      <trkpt lat="45.51669" lon="2.82864">
        <ele>1695.3776</ele>
        <time>2015-08-20T11:52:43Z</time>
      </trkpt>
      <trkpt lat="45.51668" lon="2.82859">
        <ele>1695.3776</ele>
        <time>2015-08-20T11:53:10Z</time>
      </trkpt>
      <trkpt lat="45.51668" lon="2.82858">
        <ele>1695.3776</ele>
        <time>2015-08-20T11:53:13Z</time>
      </trkpt>
      <trkpt lat="45.51666" lon="2.82852">
        <ele>1691.5951</ele>
        <time>2015-08-20T11:53:18Z</time>
      </trkpt>
      <trkpt lat="45.51664" lon="2.82849">
        <ele>1691.5951</ele>
        <time>2015-08-20T11:53:23Z</time>
      </trkpt>
      <trkpt lat="45.51662" lon="2.82846">
        <ele>1691.5951</ele>
        <time>2015-08-20T11:53:28Z</time>
      </trkpt>
      <trkpt lat="45.51659" lon="2.82843">
        <ele>1688.1837</ele>
        <time>2015-08-20T11:53:33Z</time>
      </trkpt>
      <trkpt lat="45.51658" lon="2.82839">
        <ele>1688.1837</ele>
        <time>2015-08-20T11:53:38Z</time>
      </trkpt>
      <trkpt lat="45.51645" lon="2.82812">
        <ele>1685.1226</ele>
        <time>2015-08-20T11:54:04Z</time>
      </trkpt>
      <trkpt lat="45.51636" lon="2.82776">
        <ele>1682.2906</ele>
        <time>2015-08-20T11:54:26Z</time>
      </trkpt>
      <trkpt lat="45.51636" lon="2.82772">
        <ele>1682.2906</ele>
        <time>2015-08-20T11:54:28Z</time>
      </trkpt>
      <trkpt lat="45.51633" lon="2.82764">
        <ele>1679.7622</ele>
        <time>2015-08-20T11:54:33Z</time>
      </trkpt>
      <trkpt lat="45.5163" lon="2.82755">
        <ele>1679.7622</ele>
        <time>2015-08-20T11:54:38Z</time>
      </trkpt>
      <trkpt lat="45.5163" lon="2.82747">
        <ele>1677.4752</ele>
        <time>2015-08-20T11:54:43Z</time>
      </trkpt>
      <trkpt lat="45.5163" lon="2.8274">
        <ele>1677.4752</ele>
        <time>2015-08-20T11:54:48Z</time>
      </trkpt>
      <trkpt lat="45.51627" lon="2.82735">
        <ele>1675.4293</ele>
        <time>2015-08-20T11:54:53Z</time>
      </trkpt>
      <trkpt lat="45.51625" lon="2.82726">
        <ele>1675.4293</ele>
        <time>2015-08-20T11:54:58Z</time>
      </trkpt>
      <trkpt lat="45.51624" lon="2.82718">
        <ele>1673.5654</ele>
        <time>2015-08-20T11:55:03Z</time>
      </trkpt>
      <trkpt lat="45.51619" lon="2.8271">
        <ele>1673.5654</ele>
        <time>2015-08-20T11:55:08Z</time>
      </trkpt>
      <trkpt lat="45.51615" lon="2.82699">
        <ele>1671.8715</ele>
        <time>2015-08-20T11:55:13Z</time>
      </trkpt>
      <trkpt lat="45.51614" lon="2.82691">
        <ele>1671.8715</ele>
        <time>2015-08-20T11:55:24Z</time>
      </trkpt>
      <trkpt lat="45.5161" lon="2.82657">
        <ele>1670.0763</ele>
        <time>2015-08-20T11:55:38Z</time>
      </trkpt>
      <trkpt lat="45.51587" lon="2.82567">
        <ele>1667.4242</ele>
        <time>2015-08-20T11:56:38Z</time>
      </trkpt>
      <trkpt lat="45.51582" lon="2.82558">
        <ele>1667.4242</ele>
        <time>2015-08-20T11:56:43Z</time>
      </trkpt>
      <trkpt lat="45.51554" lon="2.82518">
        <ele>1664.1254</ele>
        <time>2015-08-20T11:57:20Z</time>
      </trkpt>
      <trkpt lat="45.51549" lon="2.82513">
        <ele>1664.1254</ele>
        <time>2015-08-20T11:57:23Z</time>
      </trkpt>
      <trkpt lat="45.51544" lon="2.82511">
        <ele>1661.0248</ele>
        <time>2015-08-20T11:57:28Z</time>
      </trkpt>
      <trkpt lat="45.51535" lon="2.82504">
        <ele>1658.1984</ele>
        <time>2015-08-20T11:57:33Z</time>
      </trkpt>
      <trkpt lat="45.51531" lon="2.82499">
        <ele>1658.1984</ele>
        <time>2015-08-20T11:57:38Z</time>
      </trkpt>
      <trkpt lat="45.51526" lon="2.82497">
        <ele>1655.6002</ele>
        <time>2015-08-20T11:57:43Z</time>
      </trkpt>
      <trkpt lat="45.51522" lon="2.82494">
        <ele>1655.6002</ele>
        <time>2015-08-20T11:57:48Z</time>
      </trkpt>
      <trkpt lat="45.51518" lon="2.82491">
        <ele>1653.1008</ele>
        <time>2015-08-20T11:57:53Z</time>
      </trkpt>
      <trkpt lat="45.51514" lon="2.82489">
        <ele>1653.1008</ele>
        <time>2015-08-20T11:57:58Z</time>
      </trkpt>
      <trkpt lat="45.51465" lon="2.82451">
        <ele>1648.5476</ele>
        <time>2015-08-20T11:58:43Z</time>
      </trkpt>
      <trkpt lat="45.51462" lon="2.82447">
        <ele>1648.5476</ele>
        <time>2015-08-20T11:58:48Z</time>
      </trkpt>
      <trkpt lat="45.51414" lon="2.82394">
        <ele>1642.56</ele>
        <time>2015-08-20T11:59:43Z</time>
      </trkpt>
      <trkpt lat="45.5141" lon="2.82391">
        <ele>1642.56</ele>
        <time>2015-08-20T11:59:48Z</time>
      </trkpt>
      <trkpt lat="45.51408" lon="2.82389">
        <ele>1642.56</ele>
        <time>2015-08-20T11:59:53Z</time>
      </trkpt>
      <trkpt lat="45.51407" lon="2.82386">
        <ele>1642.56</ele>
        <time>2015-08-20T11:59:58Z</time>
      </trkpt>
      <trkpt lat="45.51406" lon="2.82384">
        <ele>1636.7683</ele>
        <time>2015-08-20T12:00:11Z</time>
      </trkpt>
      <trkpt lat="45.51395" lon="2.8237">
        <ele>1631.3993</ele>
        <time>2015-08-20T12:00:27Z</time>
      </trkpt>
      <trkpt lat="45.51388" lon="2.82357">
        <ele>1626.9502</ele>
        <time>2015-08-20T12:02:08Z</time>
      </trkpt>
      <trkpt lat="45.51382" lon="2.82351">
        <ele>1626.9502</ele>
        <time>2015-08-20T12:02:13Z</time>
      </trkpt>
      <trkpt lat="45.51376" lon="2.82345">
        <ele>1622.9852</ele>
        <time>2015-08-20T12:02:19Z</time>
      </trkpt>
      <trkpt lat="45.51373" lon="2.82343">
        <ele>1622.9852</ele>
        <time>2015-08-20T12:02:35Z</time>
      </trkpt>
      <trkpt lat="45.5137" lon="2.82328">
        <ele>1619.2866</ele>
        <time>2015-08-20T12:02:48Z</time>
      </trkpt>
      <trkpt lat="45.51365" lon="2.82288">
        <ele>1616.0696</ele>
        <time>2015-08-20T12:03:53Z</time>
      </trkpt>
      <trkpt lat="45.51363" lon="2.82278">
        <ele>1616.0696</ele>
        <time>2015-08-20T12:03:58Z</time>
      </trkpt>
      <trkpt lat="45.51361" lon="2.82266">
        <ele>1613.1714</ele>
        <time>2015-08-20T12:04:03Z</time>
      </trkpt>
      <trkpt lat="45.51361" lon="2.8226">
        <ele>1613.1714</ele>
        <time>2015-08-20T12:04:08Z</time>
      </trkpt>
      <trkpt lat="45.5136" lon="2.82247">
        <ele>1610.5991</ele>
        <time>2015-08-20T12:04:13Z</time>
      </trkpt>
      <trkpt lat="45.5136" lon="2.82235">
        <ele>1608.3435</ele>
        <time>2015-08-20T12:04:38Z</time>
      </trkpt>
      <trkpt lat="45.51338" lon="2.8218">
        <ele>1605.9338</ele>
        <time>2015-08-20T12:04:52Z</time>
      </trkpt>
      <trkpt lat="45.51334" lon="2.8217">
        <ele>1605.9338</ele>
        <time>2015-08-20T12:04:58Z</time>
      </trkpt>
      <trkpt lat="45.51331" lon="2.82163">
        <ele>1603.5541</ele>
        <time>2015-08-20T12:05:03Z</time>
      </trkpt>
      <trkpt lat="45.51327" lon="2.82156">
        <ele>1603.5541</ele>
        <time>2015-08-20T12:05:08Z</time>
      </trkpt>
      <trkpt lat="45.51326" lon="2.8215">
        <ele>1601.2446</ele>
        <time>2015-08-20T12:05:13Z</time>
      </trkpt>
      <trkpt lat="45.51276" lon="2.82113">
        <ele>1597.7599</ele>
        <time>2015-08-20T12:05:58Z</time>
      </trkpt>
      <trkpt lat="45.51265" lon="2.82108">
        <ele>1594.6008</ele>
        <time>2015-08-20T12:06:09Z</time>
      </trkpt>
      <trkpt lat="45.51245" lon="2.82095">
        <ele>1591.3267</ele>
        <time>2015-08-20T12:06:23Z</time>
      </trkpt>
      <trkpt lat="45.51215" lon="2.82077">
        <ele>1587.9042</ele>
        <time>2015-08-20T12:06:48Z</time>
      </trkpt>
      <trkpt lat="45.51208" lon="2.82072">
        <ele>1587.9042</ele>
        <time>2015-08-20T12:06:55Z</time>
      </trkpt>
      <trkpt lat="45.51204" lon="2.82069">
        <ele>1584.7494</ele>
        <time>2015-08-20T12:06:58Z</time>
      </trkpt>
      <trkpt lat="45.51196" lon="2.82065">
        <ele>1584.7494</ele>
        <time>2015-08-20T12:07:03Z</time>
      </trkpt>
      <trkpt lat="45.5119" lon="2.82064">
        <ele>1581.8723</ele>
        <time>2015-08-20T12:07:08Z</time>
      </trkpt>
      <trkpt lat="45.51183" lon="2.82062">
        <ele>1581.8723</ele>
        <time>2015-08-20T12:07:13Z</time>
      </trkpt>
      <trkpt lat="45.51178" lon="2.82065">
        <ele>1579.1805</ele>
        <time>2015-08-20T12:07:18Z</time>
      </trkpt>
      <trkpt lat="45.51174" lon="2.82063">
        <ele>1579.1805</ele>
        <time>2015-08-20T12:07:23Z</time>
      </trkpt>
      <trkpt lat="45.51138" lon="2.82028">
        <ele>1576.458</ele>
        <time>2015-08-20T12:07:56Z</time>
      </trkpt>
      <trkpt lat="45.51137" lon="2.82027">
        <ele>1576.458</ele>
        <time>2015-08-20T12:08:00Z</time>
      </trkpt>
      <trkpt lat="45.51131" lon="2.8202">
        <ele>1574.0956</ele>
        <time>2015-08-20T12:08:04Z</time>
      </trkpt>
      <trkpt lat="45.51118" lon="2.82014">
        <ele>1571.9352</ele>
        <time>2015-08-20T12:08:13Z</time>
      </trkpt>
      <trkpt lat="45.51071" lon="2.81983">
        <ele>1569.0952</ele>
        <time>2015-08-20T12:08:58Z</time>
      </trkpt>
      <trkpt lat="45.51064" lon="2.8198">
        <ele>1569.0952</ele>
        <time>2015-08-20T12:09:11Z</time>
      </trkpt>
      <trkpt lat="45.51036" lon="2.81991">
        <ele>1566.6482</ele>
        <time>2015-08-20T12:09:43Z</time>
      </trkpt>
      <trkpt lat="45.51034" lon="2.81983">
        <ele>1566.6482</ele>
        <time>2015-08-20T12:09:58Z</time>
      </trkpt>
      <trkpt lat="45.51035" lon="2.81977">
        <ele>1565.0969</ele>
        <time>2015-08-20T12:10:03Z</time>
      </trkpt>
      <trkpt lat="45.51032" lon="2.81972">
        <ele>1565.0969</ele>
        <time>2015-08-20T12:10:08Z</time>
      </trkpt>
      <trkpt lat="45.51028" lon="2.81969">
        <ele>1564.0255</ele>
        <time>2015-08-20T12:10:13Z</time>
      </trkpt>
      <trkpt lat="45.51026" lon="2.8197">
        <ele>1564.0255</ele>
        <time>2015-08-20T12:10:18Z</time>
      </trkpt>
      <trkpt lat="45.51026" lon="2.81968">
        <ele>1564.0255</ele>
        <time>2015-08-20T12:10:23Z</time>
      </trkpt>
      <trkpt lat="45.51023" lon="2.81969">
        <ele>1564.0255</ele>
        <time>2015-08-20T12:10:28Z</time>
      </trkpt>
      <trkpt lat="45.51007" lon="2.81974">
        <ele>1563.3788</ele>
        <time>2015-08-20T12:10:43Z</time>
      </trkpt>
      <trkpt lat="45.51001" lon="2.81975">
        <ele>1563.3788</ele>
        <time>2015-08-20T12:10:49Z</time>
      </trkpt>
      <trkpt lat="45.50996" lon="2.81973">
        <ele>1562.9027</ele>
        <time>2015-08-20T12:11:00Z</time>
      </trkpt>
      <trkpt lat="45.50954" lon="2.8197">
        <ele>1562.2172</ele>
        <time>2015-08-20T12:11:33Z</time>
      </trkpt>
      <trkpt lat="45.50937" lon="2.81968">
        <ele>1561.6481</ele>
        <time>2015-08-20T12:11:44Z</time>
      </trkpt>
      <trkpt lat="45.50922" lon="2.81969">
        <ele>1561.1226</ele>
        <time>2015-08-20T12:12:05Z</time>
      </trkpt>
      <trkpt lat="45.50917" lon="2.81966">
        <ele>1561.1226</ele>
        <time>2015-08-20T12:12:33Z</time>
      </trkpt>
      <trkpt lat="45.50913" lon="2.81955">
        <ele>1560.8032</ele>
        <time>2015-08-20T12:12:48Z</time>
      </trkpt>
      <trkpt lat="45.50918" lon="2.81966">
        <ele>1560.7975</ele>
        <time>2015-08-20T12:13:58Z</time>
      </trkpt>
      <trkpt lat="45.50917" lon="2.81966">
        <ele>1560.7975</ele>
        <time>2015-08-20T12:14:03Z</time>
      </trkpt>
      <trkpt lat="45.50915" lon="2.81967">
        <ele>1560.7975</ele>
        <time>2015-08-20T12:22:23Z</time>
      </trkpt>
      <trkpt lat="45.50918" lon="2.81972">
        <ele>1560.7975</ele>
        <time>2015-08-20T12:22:28Z</time>
      </trkpt>
      <trkpt lat="45.5092" lon="2.81973">
        <ele>1561.4198</ele>
        <time>2015-08-20T12:22:33Z</time>
      </trkpt>
      <trkpt lat="45.50915" lon="2.81971">
        <ele>1561.4198</ele>
        <time>2015-08-20T12:22:38Z</time>
      </trkpt>
      <trkpt lat="45.50915" lon="2.81981">
        <ele>1562.0381</ele>
        <time>2015-08-20T12:22:43Z</time>
      </trkpt>
      <trkpt lat="45.50915" lon="2.81989">
        <ele>1562.0381</ele>
        <time>2015-08-20T12:22:48Z</time>
      </trkpt>
      <trkpt lat="45.50912" lon="2.81993">
        <ele>1562.6283</ele>
        <time>2015-08-20T12:22:53Z</time>
      </trkpt>
      <trkpt lat="45.50908" lon="2.81998">
        <ele>1562.6283</ele>
        <time>2015-08-20T12:22:58Z</time>
      </trkpt>
      <trkpt lat="45.50906" lon="2.82009">
        <ele>1563.241</ele>
        <time>2015-08-20T12:23:03Z</time>
      </trkpt>
      <trkpt lat="45.50903" lon="2.82009">
        <ele>1563.241</ele>
        <time>2015-08-20T12:23:08Z</time>
      </trkpt>
      <trkpt lat="45.50902" lon="2.82006">
        <ele>1563.241</ele>
        <time>2015-08-20T12:23:13Z</time>
      </trkpt>
      <trkpt lat="45.509" lon="2.82">
        <ele>1563.6488</ele>
        <time>2015-08-20T12:23:18Z</time>
      </trkpt>
      <trkpt lat="45.50897" lon="2.82002">
        <ele>1563.6488</ele>
        <time>2015-08-20T12:23:23Z</time>
      </trkpt>
      <trkpt lat="45.50895" lon="2.82006">
        <ele>1563.6488</ele>
        <time>2015-08-20T12:23:28Z</time>
      </trkpt>
      <trkpt lat="45.50892" lon="2.8201">
        <ele>1564.0891</ele>
        <time>2015-08-20T12:23:33Z</time>
      </trkpt>
      <trkpt lat="45.50887" lon="2.82014">
        <ele>1564.0891</ele>
        <time>2015-08-20T12:23:38Z</time>
      </trkpt>
      <trkpt lat="45.50887" lon="2.82013">
        <ele>1564.0891</ele>
        <time>2015-08-20T12:23:43Z</time>
      </trkpt>
      <trkpt lat="45.50884" lon="2.8201">
        <ele>1564.4932</ele>
        <time>2015-08-20T12:23:53Z</time>
      </trkpt>
      <trkpt lat="45.50885" lon="2.82011">
        <ele>1564.4932</ele>
        <time>2015-08-20T12:23:58Z</time>
      </trkpt>
      <trkpt lat="45.50886" lon="2.82012">
        <ele>1564.4932</ele>
        <time>2015-08-20T12:24:03Z</time>
      </trkpt>
      <trkpt lat="45.50887" lon="2.82013">
        <ele>1564.4932</ele>
        <time>2015-08-20T12:24:08Z</time>
      </trkpt>
      <trkpt lat="45.50879" lon="2.82015">
        <ele>1564.7982</ele>
        <time>2015-08-20T12:24:15Z</time>
      </trkpt>
      <trkpt lat="45.50877" lon="2.82016">
        <ele>1564.7982</ele>
        <time>2015-08-20T12:24:25Z</time>
      </trkpt>
      <trkpt lat="45.50867" lon="2.82014">
        <ele>1564.8019</ele>
        <time>2015-08-20T12:24:42Z</time>
      </trkpt>
      <trkpt lat="45.50854" lon="2.82014">
        <ele>1564.7361</ele>
        <time>2015-08-20T12:25:25Z</time>
      </trkpt>
      <trkpt lat="45.50841" lon="2.8202">
        <ele>1564.3259</ele>
        <time>2015-08-20T12:25:53Z</time>
      </trkpt>
      <trkpt lat="45.50835" lon="2.8202">
        <ele>1564.3259</ele>
        <time>2015-08-20T12:26:12Z</time>
      </trkpt>
      <trkpt lat="45.50792" lon="2.82003">
        <ele>1562.8568</ele>
        <time>2015-08-20T12:26:48Z</time>
      </trkpt>
      <trkpt lat="45.5074" lon="2.81987">
        <ele>1559.8428</ele>
        <time>2015-08-20T12:27:48Z</time>
      </trkpt>
      <trkpt lat="45.50725" lon="2.81982">
        <ele>1556.7115</ele>
        <time>2015-08-20T12:27:54Z</time>
      </trkpt>
      <trkpt lat="45.50693" lon="2.81972">
        <ele>1552.4951</ele>
        <time>2015-08-20T12:28:34Z</time>
      </trkpt>
      <trkpt lat="45.50658" lon="2.81979">
        <ele>1547.7551</ele>
        <time>2015-08-20T12:28:53Z</time>
      </trkpt>
      <trkpt lat="45.50629" lon="2.81984">
        <ele>1542.4519</ele>
        <time>2015-08-20T12:29:23Z</time>
      </trkpt>
      <trkpt lat="45.50622" lon="2.81981">
        <ele>1542.4519</ele>
        <time>2015-08-20T12:29:28Z</time>
      </trkpt>
      <trkpt lat="45.50614" lon="2.81984">
        <ele>1537.1841</ele>
        <time>2015-08-20T12:29:44Z</time>
      </trkpt>
      <trkpt lat="45.50601" lon="2.81997">
        <ele>1531.4257</ele>
        <time>2015-08-20T12:30:09Z</time>
      </trkpt>
      <trkpt lat="45.50532" lon="2.82">
        <ele>1523.8259</ele>
        <time>2015-08-20T12:30:54Z</time>
      </trkpt>
      <trkpt lat="45.50526" lon="2.82005">
        <ele>1523.8259</ele>
        <time>2015-08-20T12:31:08Z</time>
      </trkpt>
      <trkpt lat="45.50468" lon="2.82034">
        <ele>1514.3925</ele>
        <time>2015-08-20T12:31:53Z</time>
      </trkpt>
      <trkpt lat="45.50391" lon="2.82054">
        <ele>1502.8201</ele>
        <time>2015-08-20T12:32:57Z</time>
      </trkpt>
      <trkpt lat="45.50364" lon="2.8206">
        <ele>1491.2675</ele>
        <time>2015-08-20T12:33:13Z</time>
      </trkpt>
      <trkpt lat="45.50328" lon="2.82068">
        <ele>1479.6161</ele>
        <time>2015-08-20T12:33:50Z</time>
      </trkpt>
      <trkpt lat="45.50327" lon="2.82068">
        <ele>1479.6161</ele>
        <time>2015-08-20T12:33:55Z</time>
      </trkpt>
      <trkpt lat="45.50321" lon="2.82066">
        <ele>1479.6161</ele>
        <time>2015-08-20T12:34:00Z</time>
      </trkpt>
      <trkpt lat="45.50319" lon="2.82066">
        <ele>1468.7505</ele>
        <time>2015-08-20T12:34:03Z</time>
      </trkpt>
      <trkpt lat="45.50311" lon="2.82066">
        <ele>1468.7505</ele>
        <time>2015-08-20T12:34:08Z</time>
      </trkpt>
      <trkpt lat="45.50267" lon="2.82087">
        <ele>1457.5133</ele>
        <time>2015-08-20T12:34:51Z</time>
      </trkpt>
      <trkpt lat="45.50267" lon="2.82088">
        <ele>1457.5133</ele>
        <time>2015-08-20T12:34:53Z</time>
      </trkpt>
      <trkpt lat="45.50241" lon="2.82098">
        <ele>1446.8219</ele>
        <time>2015-08-20T12:35:18Z</time>
      </trkpt>
      <trkpt lat="45.50208" lon="2.82081">
        <ele>1436.5006</ele>
        <time>2015-08-20T12:35:47Z</time>
      </trkpt>
      <trkpt lat="45.50198" lon="2.82083">
        <ele>1426.919</ele>
        <time>2015-08-20T12:35:55Z</time>
      </trkpt>
      <trkpt lat="45.5019" lon="2.82085">
        <ele>1426.919</ele>
        <time>2015-08-20T12:36:13Z</time>
      </trkpt>
      <trkpt lat="45.50163" lon="2.82093">
        <ele>1417.0762</ele>
        <time>2015-08-20T12:36:22Z</time>
      </trkpt>
      <trkpt lat="45.50132" lon="2.82098">
        <ele>1407.5007</ele>
        <time>2015-08-20T12:36:48Z</time>
      </trkpt>
      <trkpt lat="45.50126" lon="2.821">
        <ele>1407.5007</ele>
        <time>2015-08-20T12:37:00Z</time>
      </trkpt>
      <trkpt lat="45.50083" lon="2.82119">
        <ele>1397.8453</ele>
        <time>2015-08-20T12:37:43Z</time>
      </trkpt>
      <trkpt lat="45.50065" lon="2.82129">
        <ele>1388.8688</ele>
        <time>2015-08-20T12:37:53Z</time>
      </trkpt>
      <trkpt lat="45.50059" lon="2.82133">
        <ele>1388.8688</ele>
        <time>2015-08-20T12:37:58Z</time>
      </trkpt>
      <trkpt lat="45.50045" lon="2.82147">
        <ele>1380.6228</ele>
        <time>2015-08-20T12:38:13Z</time>
      </trkpt>
      <trkpt lat="45.50025" lon="2.82199">
        <ele>1372.4614</ele>
        <time>2015-08-20T12:38:53Z</time>
      </trkpt>
      <trkpt lat="45.50014" lon="2.82228">
        <ele>1364.7506</ele>
        <time>2015-08-20T12:39:16Z</time>
      </trkpt>
      <trkpt lat="45.50011" lon="2.82231">
        <ele>1364.7506</ele>
        <time>2015-08-20T12:39:35Z</time>
      </trkpt>
      <trkpt lat="45.49993" lon="2.82248">
        <ele>1357.698</ele>
        <time>2015-08-20T12:39:38Z</time>
      </trkpt>
      <trkpt lat="45.49943" lon="2.8231">
        <ele>1350.5714</ele>
        <time>2015-08-20T12:40:38Z</time>
      </trkpt>
      <trkpt lat="45.49929" lon="2.82319">
        <ele>1344.1475</ele>
        <time>2015-08-20T12:40:53Z</time>
      </trkpt>
      <trkpt lat="45.49922" lon="2.82323">
        <ele>1344.1475</ele>
        <time>2015-08-20T12:40:58Z</time>
      </trkpt>
      <trkpt lat="45.49865" lon="2.82327">
        <ele>1338.2786</ele>
        <time>2015-08-20T12:42:11Z</time>
      </trkpt>
      <trkpt lat="45.4984" lon="2.8231">
        <ele>1333.3738</ele>
        <time>2015-08-20T12:42:23Z</time>
      </trkpt>
      <trkpt lat="45.49806" lon="2.82291">
        <ele>1329.3909</ele>
        <time>2015-08-20T12:42:59Z</time>
      </trkpt>
      <trkpt lat="45.49766" lon="2.82284">
        <ele>1326.3455</ele>
        <time>2015-08-20T12:43:43Z</time>
      </trkpt>
      <trkpt lat="45.49762" lon="2.82285">
        <ele>1326.3455</ele>
        <time>2015-08-20T12:43:48Z</time>
      </trkpt>
      <trkpt lat="45.49758" lon="2.82287">
        <ele>1326.3455</ele>
        <time>2015-08-20T12:43:53Z</time>
      </trkpt>
      <trkpt lat="45.49754" lon="2.82284">
        <ele>1324.1337</ele>
        <time>2015-08-20T12:43:58Z</time>
      </trkpt>
      <trkpt lat="45.4975" lon="2.82279">
        <ele>1324.1337</ele>
        <time>2015-08-20T12:44:03Z</time>
      </trkpt>
      <trkpt lat="45.49748" lon="2.82269">
        <ele>1322.7142</ele>
        <time>2015-08-20T12:44:09Z</time>
      </trkpt>
      <trkpt lat="45.49747" lon="2.82265">
        <ele>1322.7142</ele>
        <time>2015-08-20T12:44:13Z</time>
      </trkpt>
      <trkpt lat="45.49747" lon="2.82257">
        <ele>1322.7142</ele>
        <time>2015-08-20T12:44:18Z</time>
      </trkpt>
      <trkpt lat="45.49747" lon="2.82252">
        <ele>1321.9312</ele>
        <time>2015-08-20T12:44:27Z</time>
      </trkpt>
      <trkpt lat="45.49736" lon="2.82203">
        <ele>1321.8684</ele>
        <time>2015-08-20T12:45:00Z</time>
      </trkpt>
      <trkpt lat="45.49733" lon="2.82195">
        <ele>1321.8684</ele>
        <time>2015-08-20T12:45:54Z</time>
      </trkpt>
      <trkpt lat="45.49712" lon="2.82158">
        <ele>1322.7892</ele>
        <time>2015-08-20T12:46:09Z</time>
      </trkpt>
      <trkpt lat="45.49707" lon="2.82147">
        <ele>1324.1125</ele>
        <time>2015-08-20T12:46:23Z</time>
      </trkpt>
      <trkpt lat="45.49684" lon="2.82123">
        <ele>1325.732</ele>
        <time>2015-08-20T12:46:58Z</time>
      </trkpt>
      <trkpt lat="45.49681" lon="2.82123">
        <ele>1325.732</ele>
        <time>2015-08-20T12:47:05Z</time>
      </trkpt>
      <trkpt lat="45.49677" lon="2.82128">
        <ele>1325.732</ele>
        <time>2015-08-20T12:47:23Z</time>
      </trkpt>
      <trkpt lat="45.49675" lon="2.82136">
        <ele>1327.735</ele>
        <time>2015-08-20T12:47:28Z</time>
      </trkpt>
      <trkpt lat="45.49672" lon="2.82143">
        <ele>1327.735</ele>
        <time>2015-08-20T12:47:33Z</time>
      </trkpt>
      <trkpt lat="45.49656" lon="2.82181">
        <ele>1329.9136</ele>
        <time>2015-08-20T12:48:01Z</time>
      </trkpt>
      <trkpt lat="45.49656" lon="2.82183">
        <ele>1329.9136</ele>
        <time>2015-08-20T12:48:03Z</time>
      </trkpt>
      <trkpt lat="45.49651" lon="2.82193">
        <ele>1332.1754</ele>
        <time>2015-08-20T12:48:08Z</time>
      </trkpt>
      <trkpt lat="45.49605" lon="2.82236">
        <ele>1334.1901</ele>
        <time>2015-08-20T12:49:04Z</time>
      </trkpt>
      <trkpt lat="45.49601" lon="2.82235">
        <ele>1334.1901</ele>
        <time>2015-08-20T12:49:08Z</time>
      </trkpt>
      <trkpt lat="45.49594" lon="2.82234">
        <ele>1336.3295</ele>
        <time>2015-08-20T12:49:13Z</time>
      </trkpt>
      <trkpt lat="45.4959" lon="2.82232">
        <ele>1336.3295</ele>
        <time>2015-08-20T12:49:33Z</time>
      </trkpt>
      <trkpt lat="45.49574" lon="2.82222">
        <ele>1338.5781</ele>
        <time>2015-08-20T12:49:50Z</time>
      </trkpt>
      <trkpt lat="45.49546" lon="2.82208">
        <ele>1341.1088</ele>
        <time>2015-08-20T12:50:06Z</time>
      </trkpt>
      <trkpt lat="45.49546" lon="2.82207">
        <ele>1341.1088</ele>
        <time>2015-08-20T12:50:08Z</time>
      </trkpt>
      <trkpt lat="45.49546" lon="2.82207">
        <ele>1341.1088</ele>
        <time>2015-08-20T12:50:13Z</time>
      </trkpt>
      <trkpt lat="45.49545" lon="2.82208">
        <ele>1341.1088</ele>
        <time>2015-08-20T12:50:24Z</time>
      </trkpt>
      <trkpt lat="45.49545" lon="2.82208">
        <ele>1341.1088</ele>
        <time>2015-08-20T12:50:28Z</time>
      </trkpt>
      <trkpt lat="45.49521" lon="2.82211">
        <ele>1344.0668</ele>
        <time>2015-08-20T12:51:06Z</time>
      </trkpt>
      <trkpt lat="45.49519" lon="2.82211">
        <ele>1344.0668</ele>
        <time>2015-08-20T12:51:08Z</time>
      </trkpt>
      <trkpt lat="45.49514" lon="2.82211">
        <ele>1344.0668</ele>
        <time>2015-08-20T12:51:17Z</time>
      </trkpt>
      <trkpt lat="45.49509" lon="2.8221">
        <ele>1347.0242</ele>
        <time>2015-08-20T12:51:21Z</time>
      </trkpt>
      <trkpt lat="45.49504" lon="2.82208">
        <ele>1347.0242</ele>
        <time>2015-08-20T12:51:23Z</time>
      </trkpt>
      <trkpt lat="45.49497" lon="2.82205">
        <ele>1349.9447</ele>
        <time>2015-08-20T12:51:36Z</time>
      </trkpt>
      <trkpt lat="45.49494" lon="2.82207">
        <ele>1349.9447</ele>
        <time>2015-08-20T12:51:48Z</time>
      </trkpt>
      <trkpt lat="45.49486" lon="2.82215">
        <ele>1352.9542</ele>
        <time>2015-08-20T12:52:05Z</time>
      </trkpt>
      <trkpt lat="45.49476" lon="2.82227">
        <ele>1355.8525</ele>
        <time>2015-08-20T12:52:10Z</time>
      </trkpt>
      <trkpt lat="45.49473" lon="2.82234">
        <ele>1355.8525</ele>
        <time>2015-08-20T12:52:13Z</time>
      </trkpt>
      <trkpt lat="45.49469" lon="2.82239">
        <ele>1358.6133</ele>
        <time>2015-08-20T12:52:25Z</time>
      </trkpt>
      <trkpt lat="45.49463" lon="2.82246">
        <ele>1358.6133</ele>
        <time>2015-08-20T12:52:28Z</time>
      </trkpt>
      <trkpt lat="45.4946" lon="2.82248">
        <ele>1361.2565</ele>
        <time>2015-08-20T12:52:33Z</time>
      </trkpt>
      <trkpt lat="45.49459" lon="2.8225">
        <ele>1361.2565</ele>
        <time>2015-08-20T12:52:38Z</time>
      </trkpt>
      <trkpt lat="45.49455" lon="2.82256">
        <ele>1361.2565</ele>
        <time>2015-08-20T12:52:43Z</time>
      </trkpt>
      <trkpt lat="45.49452" lon="2.82261">
        <ele>1363.8014</ele>
        <time>2015-08-20T12:52:48Z</time>
      </trkpt>
      <trkpt lat="45.49447" lon="2.82265">
        <ele>1363.8014</ele>
        <time>2015-08-20T12:52:53Z</time>
      </trkpt>
      <trkpt lat="45.49441" lon="2.82267">
        <ele>1366.2523</ele>
        <time>2015-08-20T12:52:58Z</time>
      </trkpt>
      <trkpt lat="45.49433" lon="2.82266">
        <ele>1366.2523</ele>
        <time>2015-08-20T12:53:06Z</time>
      </trkpt>
      <trkpt lat="45.49431" lon="2.82266">
        <ele>1368.5421</ele>
        <time>2015-08-20T12:53:08Z</time>
      </trkpt>
      <trkpt lat="45.49425" lon="2.82265">
        <ele>1368.5421</ele>
        <time>2015-08-20T12:53:13Z</time>
      </trkpt>
      <trkpt lat="45.49419" lon="2.82266">
        <ele>1370.6383</ele>
        <time>2015-08-20T12:53:18Z</time>
      </trkpt>
      <trkpt lat="45.4941" lon="2.82263">
        <ele>1370.6383</ele>
        <time>2015-08-20T12:53:27Z</time>
      </trkpt>
      <trkpt lat="45.49391" lon="2.82262">
        <ele>1372.4832</ele>
        <time>2015-08-20T12:53:48Z</time>
      </trkpt>
      <trkpt lat="45.49384" lon="2.82259">
        <ele>1372.4832</ele>
        <time>2015-08-20T12:54:01Z</time>
      </trkpt>
      <trkpt lat="45.4938" lon="2.82252">
        <ele>1374.2839</ele>
        <time>2015-08-20T12:56:07Z</time>
      </trkpt>
      <trkpt lat="45.4938" lon="2.82252">
        <ele>1374.2839</ele>
        <time>2015-08-20T12:56:08Z</time>
      </trkpt>
      <trkpt lat="45.49378" lon="2.82245">
        <ele>1374.2839</ele>
        <time>2015-08-20T12:56:15Z</time>
      </trkpt>
      <trkpt lat="45.49378" lon="2.82232">
        <ele>1375.9308</ele>
        <time>2015-08-20T12:56:23Z</time>
      </trkpt>
      <trkpt lat="45.49378" lon="2.82225">
        <ele>1375.9308</ele>
        <time>2015-08-20T12:56:28Z</time>
      </trkpt>
      <trkpt lat="45.49377" lon="2.82217">
        <ele>1377.582</ele>
        <time>2015-08-20T12:56:33Z</time>
      </trkpt>
      <trkpt lat="45.49377" lon="2.82209">
        <ele>1377.582</ele>
        <time>2015-08-20T12:56:38Z</time>
      </trkpt>
      <trkpt lat="45.49376" lon="2.82205">
        <ele>1377.582</ele>
        <time>2015-08-20T12:56:47Z</time>
      </trkpt>
      <trkpt lat="45.49373" lon="2.82164">
        <ele>1378.9818</ele>
        <time>2015-08-20T12:57:04Z</time>
      </trkpt>
      <trkpt lat="45.49375" lon="2.82156">
        <ele>1378.9818</ele>
        <time>2015-08-20T12:57:08Z</time>
      </trkpt>
      <trkpt lat="45.49376" lon="2.82153">
        <ele>1378.9818</ele>
        <time>2015-08-20T12:57:27Z</time>
      </trkpt>
      <trkpt lat="45.49376" lon="2.82112">
        <ele>1380.1102</ele>
        <time>2015-08-20T12:57:34Z</time>
      </trkpt>
      <trkpt lat="45.49375" lon="2.82106">
        <ele>1380.1102</ele>
        <time>2015-08-20T12:57:38Z</time>
      </trkpt>
      <trkpt lat="45.49377" lon="2.821">
        <ele>1381.1664</ele>
        <time>2015-08-20T12:57:43Z</time>
      </trkpt>
      <trkpt lat="45.49376" lon="2.82092">
        <ele>1381.1664</ele>
        <time>2015-08-20T12:57:48Z</time>
      </trkpt>
      <trkpt lat="45.49379" lon="2.82058">
        <ele>1382.2057</ele>
        <time>2015-08-20T12:58:08Z</time>
      </trkpt>
      <trkpt lat="45.49383" lon="2.82047">
        <ele>1382.2057</ele>
        <time>2015-08-20T12:58:16Z</time>
      </trkpt>
      <trkpt lat="45.49386" lon="2.82041">
        <ele>1382.9777</ele>
        <time>2015-08-20T12:58:18Z</time>
      </trkpt>
      <trkpt lat="45.49405" lon="2.81989">
        <ele>1383.0494</ele>
        <time>2015-08-20T12:59:00Z</time>
      </trkpt>
      <trkpt lat="45.4941" lon="2.8197">
        <ele>1382.9591</ele>
        <time>2015-08-20T12:59:03Z</time>
      </trkpt>
      <trkpt lat="45.49411" lon="2.81966">
        <ele>1382.9591</ele>
        <time>2015-08-20T12:59:09Z</time>
      </trkpt>
      <trkpt lat="45.49411" lon="2.81962">
        <ele>1382.9591</ele>
        <time>2015-08-20T12:59:13Z</time>
      </trkpt>
      <trkpt lat="45.49411" lon="2.81956">
        <ele>1382.875</ele>
        <time>2015-08-20T12:59:18Z</time>
      </trkpt>
      <trkpt lat="45.49411" lon="2.81948">
        <ele>1382.875</ele>
        <time>2015-08-20T12:59:23Z</time>
      </trkpt>
      <trkpt lat="45.49418" lon="2.81912">
        <ele>1382.6216</ele>
        <time>2015-08-20T12:59:43Z</time>
      </trkpt>
      <trkpt lat="45.49424" lon="2.81899">
        <ele>1382.2102</ele>
        <time>2015-08-20T12:59:52Z</time>
      </trkpt>
      <trkpt lat="45.49426" lon="2.81894">
        <ele>1382.2102</ele>
        <time>2015-08-20T13:00:04Z</time>
      </trkpt>
      <trkpt lat="45.49438" lon="2.81855">
        <ele>1381.7821</ele>
        <time>2015-08-20T13:00:27Z</time>
      </trkpt>
      <trkpt lat="45.49441" lon="2.81845">
        <ele>1381.7821</ele>
        <time>2015-08-20T13:00:28Z</time>
      </trkpt>
      <trkpt lat="45.49446" lon="2.81834">
        <ele>1381.3385</ele>
        <time>2015-08-20T13:00:33Z</time>
      </trkpt>
      <trkpt lat="45.49449" lon="2.81827">
        <ele>1381.3385</ele>
        <time>2015-08-20T13:00:45Z</time>
      </trkpt>
      <trkpt lat="45.49457" lon="2.81814">
        <ele>1380.8954</ele>
        <time>2015-08-20T13:00:48Z</time>
      </trkpt>
      <trkpt lat="45.49465" lon="2.8179">
        <ele>1380.2806</ele>
        <time>2015-08-20T13:01:05Z</time>
      </trkpt>
      <trkpt lat="45.49467" lon="2.81782">
        <ele>1380.2806</ele>
        <time>2015-08-20T13:01:08Z</time>
      </trkpt>
      <trkpt lat="45.49467" lon="2.81779">
        <ele>1380.2806</ele>
        <time>2015-08-20T13:01:23Z</time>
      </trkpt>
      <trkpt lat="45.49515" lon="2.81724">
        <ele>1379.7533</ele>
        <time>2015-08-20T13:02:08Z</time>
      </trkpt>
      <trkpt lat="45.49521" lon="2.8172">
        <ele>1379.7533</ele>
        <time>2015-08-20T13:02:13Z</time>
      </trkpt>
      <trkpt lat="45.49525" lon="2.81716">
        <ele>1379.222</ele>
        <time>2015-08-20T13:02:18Z</time>
      </trkpt>
      <trkpt lat="45.4953" lon="2.8171">
        <ele>1379.222</ele>
        <time>2015-08-20T13:02:23Z</time>
      </trkpt>
      <trkpt lat="45.49534" lon="2.81706">
        <ele>1378.6311</ele>
        <time>2015-08-20T13:02:28Z</time>
      </trkpt>
      <trkpt lat="45.49535" lon="2.81703">
        <ele>1378.6311</ele>
        <time>2015-08-20T13:02:33Z</time>
      </trkpt>
      <trkpt lat="45.49534" lon="2.81698">
        <ele>1378.6311</ele>
        <time>2015-08-20T13:02:46Z</time>
      </trkpt>
      <trkpt lat="45.49517" lon="2.81664">
        <ele>1377.8285</ele>
        <time>2015-08-20T13:03:07Z</time>
      </trkpt>
      <trkpt lat="45.49516" lon="2.81663">
        <ele>1377.8285</ele>
        <time>2015-08-20T13:03:08Z</time>
      </trkpt>
      <trkpt lat="45.49504" lon="2.81626">
        <ele>1376.8472</ele>
        <time>2015-08-20T13:03:45Z</time>
      </trkpt>
      <trkpt lat="45.49506" lon="2.81618">
        <ele>1376.8472</ele>
        <time>2015-08-20T13:04:18Z</time>
      </trkpt>
      <trkpt lat="45.49509" lon="2.81614">
        <ele>1375.7179</ele>
        <time>2015-08-20T13:04:23Z</time>
      </trkpt>
      <trkpt lat="45.4951" lon="2.8161">
        <ele>1375.7179</ele>
        <time>2015-08-20T13:04:28Z</time>
      </trkpt>
      <trkpt lat="45.49489" lon="2.81567">
        <ele>1374.254</ele>
        <time>2015-08-20T13:04:59Z</time>
      </trkpt>
      <trkpt lat="45.49487" lon="2.81565">
        <ele>1374.254</ele>
        <time>2015-08-20T13:05:03Z</time>
      </trkpt>
      <trkpt lat="45.49486" lon="2.81564">
        <ele>1374.254</ele>
        <time>2015-08-20T13:05:08Z</time>
      </trkpt>
      <trkpt lat="45.49484" lon="2.8156">
        <ele>1374.254</ele>
        <time>2015-08-20T13:05:33Z</time>
      </trkpt>
      <trkpt lat="45.4948" lon="2.81551">
        <ele>1372.5427</ele>
        <time>2015-08-20T13:05:39Z</time>
      </trkpt>
      <trkpt lat="45.49478" lon="2.81547">
        <ele>1372.5427</ele>
        <time>2015-08-20T13:05:43Z</time>
      </trkpt>
      <trkpt lat="45.4947" lon="2.81524">
        <ele>1370.7379</ele>
        <time>2015-08-20T13:05:58Z</time>
      </trkpt>
      <trkpt lat="45.49463" lon="2.81507">
        <ele>1368.9822</ele>
        <time>2015-08-20T13:06:08Z</time>
      </trkpt>
      <trkpt lat="45.4946" lon="2.81498">
        <ele>1368.9822</ele>
        <time>2015-08-20T13:06:15Z</time>
      </trkpt>
      <trkpt lat="45.4946" lon="2.81497">
        <ele>1368.9822</ele>
        <time>2015-08-20T13:06:21Z</time>
      </trkpt>
      <trkpt lat="45.49456" lon="2.81486">
        <ele>1367.2493</ele>
        <time>2015-08-20T13:06:23Z</time>
      </trkpt>
      <trkpt lat="45.49439" lon="2.81449">
        <ele>1365.4713</ele>
        <time>2015-08-20T13:06:48Z</time>
      </trkpt>
      <trkpt lat="45.49436" lon="2.81435">
        <ele>1363.7589</ele>
        <time>2015-08-20T13:07:00Z</time>
      </trkpt>
      <trkpt lat="45.49427" lon="2.8141">
        <ele>1361.9257</ele>
        <time>2015-08-20T13:07:11Z</time>
      </trkpt>
      <trkpt lat="45.49427" lon="2.81409">
        <ele>1361.9257</ele>
        <time>2015-08-20T13:07:13Z</time>
      </trkpt>
      <trkpt lat="45.49425" lon="2.81401">
        <ele>1361.9257</ele>
        <time>2015-08-20T13:07:18Z</time>
      </trkpt>
      <trkpt lat="45.49423" lon="2.81391">
        <ele>1359.9867</ele>
        <time>2015-08-20T13:07:23Z</time>
      </trkpt>
      <trkpt lat="45.49421" lon="2.81384">
        <ele>1359.9867</ele>
        <time>2015-08-20T13:07:28Z</time>
      </trkpt>
      <trkpt lat="45.49412" lon="2.81377">
        <ele>1357.9276</ele>
        <time>2015-08-20T13:07:37Z</time>
      </trkpt>
      <trkpt lat="45.49411" lon="2.81377">
        <ele>1357.9276</ele>
        <time>2015-08-20T13:07:38Z</time>
      </trkpt>
      <trkpt lat="45.49407" lon="2.8137">
        <ele>1357.9276</ele>
        <time>2015-08-20T13:07:43Z</time>
      </trkpt>
      <trkpt lat="45.49401" lon="2.8132">
        <ele>1355.1873</ele>
        <time>2015-08-20T13:08:10Z</time>
      </trkpt>
      <trkpt lat="45.49399" lon="2.81314">
        <ele>1355.1873</ele>
        <time>2015-08-20T13:08:13Z</time>
      </trkpt>
      <trkpt lat="45.49376" lon="2.81216">
        <ele>1351.911</ele>
        <time>2015-08-20T13:09:18Z</time>
      </trkpt>
      <trkpt lat="45.4936" lon="2.81182">
        <ele>1349.0271</ele>
        <time>2015-08-20T13:10:09Z</time>
      </trkpt>
      <trkpt lat="45.49331" lon="2.8112">
        <ele>1346.7749</ele>
        <time>2015-08-20T13:10:15Z</time>
      </trkpt>
      <trkpt lat="45.4933" lon="2.81117">
        <ele>1346.7749</ele>
        <time>2015-08-20T13:10:25Z</time>
      </trkpt>
      <trkpt lat="45.49308" lon="2.81076">
        <ele>1345.1581</ele>
        <time>2015-08-20T13:10:58Z</time>
      </trkpt>
      <trkpt lat="45.49305" lon="2.8107">
        <ele>1345.1581</ele>
        <time>2015-08-20T13:11:23Z</time>
      </trkpt>
      <trkpt lat="45.49302" lon="2.81065">
        <ele>1344.0195</ele>
        <time>2015-08-20T13:11:28Z</time>
      </trkpt>
      <trkpt lat="45.493" lon="2.81061">
        <ele>1344.0195</ele>
        <time>2015-08-20T13:11:33Z</time>
      </trkpt>
      <trkpt lat="45.49294" lon="2.81042">
        <ele>1343.0538</ele>
        <time>2015-08-20T13:11:48Z</time>
      </trkpt>
      <trkpt lat="45.4929" lon="2.81034">
        <ele>1343.0538</ele>
        <time>2015-08-20T13:11:55Z</time>
      </trkpt>
      <trkpt lat="45.49289" lon="2.81033">
        <ele>1343.0538</ele>
        <time>2015-08-20T13:12:04Z</time>
      </trkpt>
      <trkpt lat="45.49189" lon="2.80904">
        <ele>1341.66</ele>
        <time>2015-08-20T13:14:01Z</time>
      </trkpt>
      <trkpt lat="45.49189" lon="2.80903">
        <ele>1341.66</ele>
        <time>2015-08-20T13:14:08Z</time>
      </trkpt>
      <trkpt lat="45.49128" lon="2.80873">
        <ele>1339.715</ele>
        <time>2015-08-20T13:14:58Z</time>
      </trkpt>
      <trkpt lat="45.49101" lon="2.8086">
        <ele>1337.4518</ele>
        <time>2015-08-20T13:15:28Z</time>
      </trkpt>
      <trkpt lat="45.491" lon="2.8086">
        <ele>1337.4518</ele>
        <time>2015-08-20T13:15:29Z</time>
      </trkpt>
      <trkpt lat="45.49076" lon="2.80852">
        <ele>1335.0869</ele>
        <time>2015-08-20T13:16:00Z</time>
      </trkpt>
      <trkpt lat="45.49076" lon="2.8085">
        <ele>1335.0869</ele>
        <time>2015-08-20T13:16:03Z</time>
      </trkpt>
      <trkpt lat="45.49057" lon="2.80825">
        <ele>1332.245</ele>
        <time>2015-08-20T13:16:28Z</time>
      </trkpt>
      <trkpt lat="45.49058" lon="2.80821">
        <ele>1332.245</ele>
        <time>2015-08-20T13:16:33Z</time>
      </trkpt>
      <trkpt lat="45.49056" lon="2.80817">
        <ele>1332.245</ele>
        <time>2015-08-20T13:16:53Z</time>
      </trkpt>
      <trkpt lat="45.49056" lon="2.80811">
        <ele>1328.4493</ele>
        <time>2015-08-20T13:16:58Z</time>
      </trkpt>
      <trkpt lat="45.49055" lon="2.80806">
        <ele>1328.4493</ele>
        <time>2015-08-20T13:17:03Z</time>
      </trkpt>
      <trkpt lat="45.49051" lon="2.80799">
        <ele>1324.558</ele>
        <time>2015-08-20T13:17:13Z</time>
      </trkpt>
      <trkpt lat="45.49055" lon="2.80761">
        <ele>1320.5446</ele>
        <time>2015-08-20T13:17:30Z</time>
      </trkpt>
      <trkpt lat="45.49056" lon="2.80757">
        <ele>1320.5446</ele>
        <time>2015-08-20T13:17:33Z</time>
      </trkpt>
      <trkpt lat="45.49074" lon="2.80729">
        <ele>1316.2983</ele>
        <time>2015-08-20T13:17:56Z</time>
      </trkpt>
      <trkpt lat="45.49076" lon="2.80727">
        <ele>1316.2983</ele>
        <time>2015-08-20T13:17:58Z</time>
      </trkpt>
      <trkpt lat="45.49081" lon="2.8072">
        <ele>1316.2983</ele>
        <time>2015-08-20T13:18:03Z</time>
      </trkpt>
      <trkpt lat="45.49104" lon="2.80718">
        <ele>1311.9186</ele>
        <time>2015-08-20T13:18:23Z</time>
      </trkpt>
      <trkpt lat="45.4913" lon="2.8073">
        <ele>1307.6709</ele>
        <time>2015-08-20T13:18:53Z</time>
      </trkpt>
      <trkpt lat="45.49142" lon="2.80738">
        <ele>1303.8002</ele>
        <time>2015-08-20T13:19:00Z</time>
      </trkpt>
      <trkpt lat="45.49164" lon="2.80756">
        <ele>1300.1866</ele>
        <time>2015-08-20T13:19:18Z</time>
      </trkpt>
      <trkpt lat="45.49168" lon="2.8077">
        <ele>1296.9197</ele>
        <time>2015-08-20T13:19:29Z</time>
      </trkpt>
      <trkpt lat="45.4919" lon="2.80798">
        <ele>1293.7498</ele>
        <time>2015-08-20T13:19:55Z</time>
      </trkpt>
      <trkpt lat="45.49192" lon="2.80796">
        <ele>1293.7498</ele>
        <time>2015-08-20T13:20:00Z</time>
      </trkpt>
      <trkpt lat="45.49191" lon="2.80767">
        <ele>1290.589</ele>
        <time>2015-08-20T13:20:22Z</time>
      </trkpt>
      <trkpt lat="45.49193" lon="2.80764">
        <ele>1290.589</ele>
        <time>2015-08-20T13:20:38Z</time>
      </trkpt>
      <trkpt lat="45.49197" lon="2.80764">
        <ele>1290.589</ele>
        <time>2015-08-20T13:20:58Z</time>
      </trkpt>
      <trkpt lat="45.49199" lon="2.80767">
        <ele>1287.2981</ele>
        <time>2015-08-20T13:21:09Z</time>
      </trkpt>
      <trkpt lat="45.49216" lon="2.80782">
        <ele>1284.3534</ele>
        <time>2015-08-20T13:21:23Z</time>
      </trkpt>
      <trkpt lat="45.49222" lon="2.80783">
        <ele>1284.3534</ele>
        <time>2015-08-20T13:21:28Z</time>
      </trkpt>
      <trkpt lat="45.49229" lon="2.80782">
        <ele>1281.7771</ele>
        <time>2015-08-20T13:21:33Z</time>
      </trkpt>
      <trkpt lat="45.49236" lon="2.80783">
        <ele>1281.7771</ele>
        <time>2015-08-20T13:21:38Z</time>
      </trkpt>
      <trkpt lat="45.49242" lon="2.80784">
        <ele>1279.5597</ele>
        <time>2015-08-20T13:21:43Z</time>
      </trkpt>
      <trkpt lat="45.49247" lon="2.80786">
        <ele>1279.5597</ele>
        <time>2015-08-20T13:21:48Z</time>
      </trkpt>
      <trkpt lat="45.4925" lon="2.8079">
        <ele>1277.6189</ele>
        <time>2015-08-20T13:21:53Z</time>
      </trkpt>
      <trkpt lat="45.49256" lon="2.8079">
        <ele>1277.6189</ele>
        <time>2015-08-20T13:21:58Z</time>
      </trkpt>
      <trkpt lat="45.49261" lon="2.8079">
        <ele>1275.8634</ele>
        <time>2015-08-20T13:22:03Z</time>
      </trkpt>
      <trkpt lat="45.49266" lon="2.80791">
        <ele>1275.8634</ele>
        <time>2015-08-20T13:22:08Z</time>
      </trkpt>
      <trkpt lat="45.49277" lon="2.80799">
        <ele>1274.3373</ele>
        <time>2015-08-20T13:22:13Z</time>
      </trkpt>
      <trkpt lat="45.49281" lon="2.80802">
        <ele>1274.3373</ele>
        <time>2015-08-20T13:22:18Z</time>
      </trkpt>
      <trkpt lat="45.4929" lon="2.80815">
        <ele>1272.9652</ele>
        <time>2015-08-20T13:22:31Z</time>
      </trkpt>
      <trkpt lat="45.493" lon="2.80828">
        <ele>1271.7922</ele>
        <time>2015-08-20T13:22:41Z</time>
      </trkpt>
      <trkpt lat="45.49301" lon="2.80829">
        <ele>1271.7922</ele>
        <time>2015-08-20T13:22:46Z</time>
      </trkpt>
      <trkpt lat="45.49306" lon="2.80835">
        <ele>1271.7922</ele>
        <time>2015-08-20T13:22:48Z</time>
      </trkpt>
      <trkpt lat="45.49314" lon="2.80844">
        <ele>1270.845</ele>
        <time>2015-08-20T13:22:56Z</time>
      </trkpt>
      <trkpt lat="45.49315" lon="2.80847">
        <ele>1270.845</ele>
        <time>2015-08-20T13:22:58Z</time>
      </trkpt>
      <trkpt lat="45.49361" lon="2.80882">
        <ele>1269.9022</ele>
        <time>2015-08-20T13:23:38Z</time>
      </trkpt>
      <trkpt lat="45.49384" lon="2.80891">
        <ele>1269.2056</ele>
        <time>2015-08-20T13:23:58Z</time>
      </trkpt>
      <trkpt lat="45.49389" lon="2.80884">
        <ele>1269.2056</ele>
        <time>2015-08-20T13:24:03Z</time>
      </trkpt>
      <trkpt lat="45.49401" lon="2.80859">
        <ele>1268.7045</ele>
        <time>2015-08-20T13:24:24Z</time>
      </trkpt>
      <trkpt lat="45.49374" lon="2.808">
        <ele>1268.0055</ele>
        <time>2015-08-20T13:24:58Z</time>
      </trkpt>
      <trkpt lat="45.49362" lon="2.80791">
        <ele>1267.4507</ele>
        <time>2015-08-20T13:25:15Z</time>
      </trkpt>
      <trkpt lat="45.49334" lon="2.80769">
        <ele>1266.8665</ele>
        <time>2015-08-20T13:25:36Z</time>
      </trkpt>
      <trkpt lat="45.49328" lon="2.8076">
        <ele>1266.4092</ele>
        <time>2015-08-20T13:25:39Z</time>
      </trkpt>
      <trkpt lat="45.49305" lon="2.80745">
        <ele>1265.9497</ele>
        <time>2015-08-20T13:25:58Z</time>
      </trkpt>
      <trkpt lat="45.49299" lon="2.80742">
        <ele>1265.9497</ele>
        <time>2015-08-20T13:26:04Z</time>
      </trkpt>
      <trkpt lat="45.49296" lon="2.80737">
        <ele>1265.5844</ele>
        <time>2015-08-20T13:26:08Z</time>
      </trkpt>
      <trkpt lat="45.49293" lon="2.80732">
        <ele>1265.5844</ele>
        <time>2015-08-20T13:26:13Z</time>
      </trkpt>
      <trkpt lat="45.49288" lon="2.80715">
        <ele>1265.3588</ele>
        <time>2015-08-20T13:26:32Z</time>
      </trkpt>
      <trkpt lat="45.4927" lon="2.8066">
        <ele>1265.0989</ele>
        <time>2015-08-20T13:27:03Z</time>
      </trkpt>
      <trkpt lat="45.49221" lon="2.80575">
        <ele>1264.6149</ele>
        <time>2015-08-20T13:28:07Z</time>
      </trkpt>
      <trkpt lat="45.49217" lon="2.8057">
        <ele>1264.6149</ele>
        <time>2015-08-20T13:28:08Z</time>
      </trkpt>
      <trkpt lat="45.49207" lon="2.80481">
        <ele>1263.6447</ele>
        <time>2015-08-20T13:29:00Z</time>
      </trkpt>
      <trkpt lat="45.49207" lon="2.80473">
        <ele>1263.6447</ele>
        <time>2015-08-20T13:29:05Z</time>
      </trkpt>
      <trkpt lat="45.49208" lon="2.80471">
        <ele>1263.6447</ele>
        <time>2015-08-20T13:29:14Z</time>
      </trkpt>
      <trkpt lat="45.49154" lon="2.80392">
        <ele>1261.9905</ele>
        <time>2015-08-20T13:30:03Z</time>
      </trkpt>
      <trkpt lat="45.49138" lon="2.80339">
        <ele>1260.4076</ele>
        <time>2015-08-20T13:30:38Z</time>
      </trkpt>
      <trkpt lat="45.49163" lon="2.80255">
        <ele>1257.9528</ele>
        <time>2015-08-20T13:31:28Z</time>
      </trkpt>
      <trkpt lat="45.49161" lon="2.80249">
        <ele>1257.9528</ele>
        <time>2015-08-20T13:31:33Z</time>
      </trkpt>
      <trkpt lat="45.49144" lon="2.80209">
        <ele>1254.7634</ele>
        <time>2015-08-20T13:32:03Z</time>
      </trkpt>
      <trkpt lat="45.49141" lon="2.80208">
        <ele>1254.7634</ele>
        <time>2015-08-20T13:32:08Z</time>
      </trkpt>
      <trkpt lat="45.49134" lon="2.80199">
        <ele>1251.113</ele>
        <time>2015-08-20T13:32:38Z</time>
      </trkpt>
      <trkpt lat="45.49131" lon="2.80194">
        <ele>1251.113</ele>
        <time>2015-08-20T13:32:43Z</time>
      </trkpt>
      <trkpt lat="45.49126" lon="2.8019">
        <ele>1247.7465</ele>
        <time>2015-08-20T13:32:48Z</time>
      </trkpt>
      <trkpt lat="45.49121" lon="2.80186">
        <ele>1247.7465</ele>
        <time>2015-08-20T13:32:53Z</time>
      </trkpt>
      <trkpt lat="45.49117" lon="2.80183">
        <ele>1244.6467</ele>
        <time>2015-08-20T13:32:58Z</time>
      </trkpt>
      <trkpt lat="45.49112" lon="2.8018">
        <ele>1244.6467</ele>
        <time>2015-08-20T13:33:03Z</time>
      </trkpt>
      <trkpt lat="45.49108" lon="2.80175">
        <ele>1241.855</ele>
        <time>2015-08-20T13:33:08Z</time>
      </trkpt>
      <trkpt lat="45.49104" lon="2.80173">
        <ele>1241.855</ele>
        <time>2015-08-20T13:33:13Z</time>
      </trkpt>
      <trkpt lat="45.49102" lon="2.80171">
        <ele>1241.855</ele>
        <time>2015-08-20T13:33:18Z</time>
      </trkpt>
      <trkpt lat="45.49098" lon="2.80167">
        <ele>1239.3943</ele>
        <time>2015-08-20T13:33:28Z</time>
      </trkpt>
      <trkpt lat="45.49096" lon="2.80161">
        <ele>1239.3943</ele>
        <time>2015-08-20T13:33:33Z</time>
      </trkpt>
      <trkpt lat="45.49091" lon="2.8016">
        <ele>1239.3943</ele>
        <time>2015-08-20T13:33:38Z</time>
      </trkpt>
      <trkpt lat="45.49064" lon="2.80156">
        <ele>1237.2706</ele>
        <time>2015-08-20T13:34:01Z</time>
      </trkpt>
      <trkpt lat="45.49062" lon="2.80155">
        <ele>1237.2706</ele>
        <time>2015-08-20T13:34:03Z</time>
      </trkpt>
      <trkpt lat="45.49056" lon="2.80153">
        <ele>1237.2706</ele>
        <time>2015-08-20T13:34:08Z</time>
      </trkpt>
      <trkpt lat="45.49051" lon="2.80152">
        <ele>1235.4309</ele>
        <time>2015-08-20T13:34:20Z</time>
      </trkpt>
      <trkpt lat="45.49049" lon="2.80151">
        <ele>1235.4309</ele>
        <time>2015-08-20T13:34:29Z</time>
      </trkpt>
      <trkpt lat="45.49031" lon="2.80145">
        <ele>1233.825</ele>
        <time>2015-08-20T13:34:29Z</time>
      </trkpt>
      <trkpt lat="45.49008" lon="2.80154">
        <ele>1232.4923</ele>
        <time>2015-08-20T13:34:54Z</time>
      </trkpt>
      <trkpt lat="45.48993" lon="2.80157">
        <ele>1231.4255</ele>
        <time>2015-08-20T13:35:03Z</time>
      </trkpt>
      <trkpt lat="45.48983" lon="2.80158">
        <ele>1230.5737</ele>
        <time>2015-08-20T13:35:43Z</time>
      </trkpt>
      <trkpt lat="45.48967" lon="2.80129">
        <ele>1230.3647</ele>
        <time>2015-08-20T13:35:55Z</time>
      </trkpt>
      <trkpt lat="45.48966" lon="2.80106">
        <ele>1230.3862</ele>
        <time>2015-08-20T13:36:00Z</time>
      </trkpt>
      <trkpt lat="45.48959" lon="2.80096">
        <ele>1230.5581</ele>
        <time>2015-08-20T13:36:04Z</time>
      </trkpt>
      <trkpt lat="45.48957" lon="2.8009">
        <ele>1230.5581</ele>
        <time>2015-08-20T13:36:08Z</time>
      </trkpt>
      <trkpt lat="45.48957" lon="2.80083">
        <ele>1230.8922</ele>
        <time>2015-08-20T13:36:17Z</time>
      </trkpt>
      <trkpt lat="45.48956" lon="2.80067">
        <ele>1231.3992</ele>
        <time>2015-08-20T13:36:23Z</time>
      </trkpt>
      <trkpt lat="45.48931" lon="2.80037">
        <ele>1232.2612</ele>
        <time>2015-08-20T13:36:47Z</time>
      </trkpt>
      <trkpt lat="45.48915" lon="2.80024">
        <ele>1233.4738</ele>
        <time>2015-08-20T13:37:00Z</time>
      </trkpt>
      <trkpt lat="45.48909" lon="2.80014">
        <ele>1234.7574</ele>
        <time>2015-08-20T13:37:04Z</time>
      </trkpt>
      <trkpt lat="45.48906" lon="2.8001">
        <ele>1234.7574</ele>
        <time>2015-08-20T13:37:14Z</time>
      </trkpt>
      <trkpt lat="45.48876" lon="2.79942">
        <ele>1236.2281</ele>
        <time>2015-08-20T13:38:06Z</time>
      </trkpt>
      <trkpt lat="45.48872" lon="2.7994">
        <ele>1236.2281</ele>
        <time>2015-08-20T13:38:10Z</time>
      </trkpt>
      <trkpt lat="45.4887" lon="2.79936">
        <ele>1236.2281</ele>
        <time>2015-08-20T13:38:13Z</time>
      </trkpt>
      <trkpt lat="45.48864" lon="2.79925">
        <ele>1238.1082</ele>
        <time>2015-08-20T13:38:19Z</time>
      </trkpt>
      <trkpt lat="45.48862" lon="2.79919">
        <ele>1238.1082</ele>
        <time>2015-08-20T13:38:23Z</time>
      </trkpt>
      <trkpt lat="45.48858" lon="2.79911">
        <ele>1240.0405</ele>
        <time>2015-08-20T13:38:28Z</time>
      </trkpt>
      <trkpt lat="45.48852" lon="2.79904">
        <ele>1240.0405</ele>
        <time>2015-08-20T13:38:41Z</time>
      </trkpt>
      <trkpt lat="45.48833" lon="2.79842">
        <ele>1241.9249</ele>
        <time>2015-08-20T13:39:07Z</time>
      </trkpt>
      <trkpt lat="45.48833" lon="2.79841">
        <ele>1241.9249</ele>
        <time>2015-08-20T13:39:08Z</time>
      </trkpt>
      <trkpt lat="45.4883" lon="2.79831">
        <ele>1241.9249</ele>
        <time>2015-08-20T13:39:13Z</time>
      </trkpt>
      <trkpt lat="45.48833" lon="2.79795">
        <ele>1243.6832</ele>
        <time>2015-08-20T13:39:39Z</time>
      </trkpt>
      <trkpt lat="45.48833" lon="2.7976">
        <ele>1244.7538</ele>
        <time>2015-08-20T13:39:58Z</time>
      </trkpt>
      <trkpt lat="45.48834" lon="2.79748">
        <ele>1244.7538</ele>
        <time>2015-08-20T13:40:07Z</time>
      </trkpt>
      <trkpt lat="45.48834" lon="2.79746">
        <ele>1245.7277</ele>
        <time>2015-08-20T13:40:08Z</time>
      </trkpt>
      <trkpt lat="45.48834" lon="2.7974">
        <ele>1245.7277</ele>
        <time>2015-08-20T13:40:22Z</time>
      </trkpt>
      <trkpt lat="45.48824" lon="2.79709">
        <ele>1246.6777</ele>
        <time>2015-08-20T13:40:34Z</time>
      </trkpt>
      <trkpt lat="45.48824" lon="2.79665">
        <ele>1247.8158</ele>
        <time>2015-08-20T13:40:58Z</time>
      </trkpt>
      <trkpt lat="45.48822" lon="2.79656">
        <ele>1247.8158</ele>
        <time>2015-08-20T13:41:07Z</time>
      </trkpt>
      <trkpt lat="45.48821" lon="2.7965">
        <ele>1249.0352</ele>
        <time>2015-08-20T13:41:08Z</time>
      </trkpt>
      <trkpt lat="45.48819" lon="2.7964">
        <ele>1249.0352</ele>
        <time>2015-08-20T13:41:13Z</time>
      </trkpt>
      <trkpt lat="45.48815" lon="2.79629">
        <ele>1250.3378</ele>
        <time>2015-08-20T13:41:18Z</time>
      </trkpt>
      <trkpt lat="45.48792" lon="2.79602">
        <ele>1251.1924</ele>
        <time>2015-08-20T13:41:39Z</time>
      </trkpt>
      <trkpt lat="45.48787" lon="2.79597">
        <ele>1251.1924</ele>
        <time>2015-08-20T13:41:51Z</time>
      </trkpt>
      <trkpt lat="45.4878" lon="2.79578">
        <ele>1252.1313</ele>
        <time>2015-08-20T13:42:05Z</time>
      </trkpt>
      <trkpt lat="45.48776" lon="2.79571">
        <ele>1252.1313</ele>
        <time>2015-08-20T13:42:08Z</time>
      </trkpt>
      <trkpt lat="45.48773" lon="2.79562">
        <ele>1252.8696</ele>
        <time>2015-08-20T13:42:13Z</time>
      </trkpt>
      <trkpt lat="45.48763" lon="2.79492">
        <ele>1253.9799</ele>
        <time>2015-08-20T13:43:00Z</time>
      </trkpt>
      <trkpt lat="45.48759" lon="2.7947">
        <ele>1255.1273</ele>
        <time>2015-08-20T13:43:14Z</time>
      </trkpt>
      <trkpt lat="45.48759" lon="2.79449">
        <ele>1256.3617</ele>
        <time>2015-08-20T13:43:23Z</time>
      </trkpt>
      <trkpt lat="45.48758" lon="2.79448">
        <ele>1256.3617</ele>
        <time>2015-08-20T13:43:24Z</time>
      </trkpt>
      <trkpt lat="45.48761" lon="2.79437">
        <ele>1257.5856</ele>
        <time>2015-08-20T13:43:39Z</time>
      </trkpt>
      <trkpt lat="45.48753" lon="2.79403">
        <ele>1258.9535</ele>
        <time>2015-08-20T13:43:53Z</time>
      </trkpt>
      <trkpt lat="45.48752" lon="2.79397">
        <ele>1258.9535</ele>
        <time>2015-08-20T13:43:58Z</time>
      </trkpt>
      <trkpt lat="45.48754" lon="2.79394">
        <ele>1258.9535</ele>
        <time>2015-08-20T13:44:03Z</time>
      </trkpt>
      <trkpt lat="45.48748" lon="2.79386">
        <ele>1259.5565</ele>
        <time>2015-08-20T13:44:28Z</time>
      </trkpt>
      <trkpt lat="45.48748" lon="2.79384">
        <ele>1259.5565</ele>
        <time>2015-08-20T13:44:33Z</time>
      </trkpt>
      <trkpt lat="45.48734" lon="2.79375">
        <ele>1259.8806</ele>
        <time>2015-08-20T13:44:38Z</time>
      </trkpt>
      <trkpt lat="45.48728" lon="2.7937">
        <ele>1259.8806</ele>
        <time>2015-08-20T13:44:43Z</time>
      </trkpt>
      <trkpt lat="45.48725" lon="2.79365">
        <ele>1259.2677</ele>
        <time>2015-08-20T13:44:52Z</time>
      </trkpt>
      <trkpt lat="45.48702" lon="2.79349">
        <ele>1257.658</ele>
        <time>2015-08-20T13:44:58Z</time>
      </trkpt>
      <trkpt lat="45.48702" lon="2.79344">
        <ele>1257.658</ele>
        <time>2015-08-20T13:45:03Z</time>
      </trkpt>
      <trkpt lat="45.487" lon="2.79339">
        <ele>1257.658</ele>
        <time>2015-08-20T13:45:08Z</time>
      </trkpt>
      <trkpt lat="45.48701" lon="2.79333">
        <ele>1255.8784</ele>
        <time>2015-08-20T13:45:13Z</time>
      </trkpt>
      <trkpt lat="45.48691" lon="2.79297">
        <ele>1253.7734</ele>
        <time>2015-08-20T13:45:42Z</time>
      </trkpt>
      <trkpt lat="45.48675" lon="2.79267">
        <ele>1251.6035</ele>
        <time>2015-08-20T13:46:00Z</time>
      </trkpt>
      <trkpt lat="45.48651" lon="2.792">
        <ele>1249.2067</ele>
        <time>2015-08-20T13:46:40Z</time>
      </trkpt>
      <trkpt lat="45.48648" lon="2.79168">
        <ele>1246.8948</ele>
        <time>2015-08-20T13:47:01Z</time>
      </trkpt>
      <trkpt lat="45.48641" lon="2.79128">
        <ele>1244.697</ele>
        <time>2015-08-20T13:47:18Z</time>
      </trkpt>
      <trkpt lat="45.48638" lon="2.79119">
        <ele>1244.697</ele>
        <time>2015-08-20T13:47:23Z</time>
      </trkpt>
      <trkpt lat="45.48612" lon="2.79086">
        <ele>1241.7324</ele>
        <time>2015-08-20T13:47:39Z</time>
      </trkpt>
      <trkpt lat="45.48601" lon="2.79053">
        <ele>1238.1956</ele>
        <time>2015-08-20T13:47:56Z</time>
      </trkpt>
      <trkpt lat="45.48601" lon="2.79051">
        <ele>1238.1956</ele>
        <time>2015-08-20T13:47:58Z</time>
      </trkpt>
      <trkpt lat="45.48598" lon="2.79041">
        <ele>1238.1956</ele>
        <time>2015-08-20T13:48:07Z</time>
      </trkpt>
      <trkpt lat="45.48596" lon="2.79032">
        <ele>1234.643</ele>
        <time>2015-08-20T13:48:48Z</time>
      </trkpt>
      <trkpt lat="45.48566" lon="2.78946">
        <ele>1230.351</ele>
        <time>2015-08-20T13:48:58Z</time>
      </trkpt>
      <trkpt lat="45.48547" lon="2.78838">
        <ele>1225.4869</ele>
        <time>2015-08-20T13:50:03Z</time>
      </trkpt>
      <trkpt lat="45.48547" lon="2.78832">
        <ele>1225.4869</ele>
        <time>2015-08-20T13:50:08Z</time>
      </trkpt>
      <trkpt lat="45.48535" lon="2.78733">
        <ele>1219.8616</ele>
        <time>2015-08-20T13:50:58Z</time>
      </trkpt>
      <trkpt lat="45.48531" lon="2.78726">
        <ele>1219.8616</ele>
        <time>2015-08-20T13:51:03Z</time>
      </trkpt>
      <trkpt lat="45.48524" lon="2.78718">
        <ele>1214.5117</ele>
        <time>2015-08-20T13:51:12Z</time>
      </trkpt>
      <trkpt lat="45.48511" lon="2.78648">
        <ele>1209.1869</ele>
        <time>2015-08-20T13:51:48Z</time>
      </trkpt>
      <trkpt lat="45.48503" lon="2.78628">
        <ele>1204.3175</ele>
        <time>2015-08-20T13:51:59Z</time>
      </trkpt>
      <trkpt lat="45.48503" lon="2.78626">
        <ele>1204.3175</ele>
        <time>2015-08-20T13:52:08Z</time>
      </trkpt>
      <trkpt lat="45.48503" lon="2.78609">
        <ele>1199.7678</ele>
        <time>2015-08-20T13:52:20Z</time>
      </trkpt>
      <trkpt lat="45.48439" lon="2.78428">
        <ele>1194.3297</ele>
        <time>2015-08-20T13:54:03Z</time>
      </trkpt>
      <trkpt lat="45.48437" lon="2.78422">
        <ele>1194.3297</ele>
        <time>2015-08-20T13:54:08Z</time>
      </trkpt>
      <trkpt lat="45.48429" lon="2.78328">
        <ele>1188.486</ele>
        <time>2015-08-20T13:55:03Z</time>
      </trkpt>
      <trkpt lat="45.48428" lon="2.78318">
        <ele>1188.486</ele>
        <time>2015-08-20T13:55:08Z</time>
      </trkpt>
      <trkpt lat="45.48426" lon="2.78309">
        <ele>1183.016</ele>
        <time>2015-08-20T13:55:13Z</time>
      </trkpt>
      <trkpt lat="45.48426" lon="2.78301">
        <ele>1183.016</ele>
        <time>2015-08-20T13:55:18Z</time>
      </trkpt>
      <trkpt lat="45.48426" lon="2.78288">
        <ele>1177.9634</ele>
        <time>2015-08-20T13:55:27Z</time>
      </trkpt>
      <trkpt lat="45.48425" lon="2.78221">
        <ele>1172.56</ele>
        <time>2015-08-20T13:56:05Z</time>
      </trkpt>
      <trkpt lat="45.48425" lon="2.78212">
        <ele>1172.56</ele>
        <time>2015-08-20T13:56:08Z</time>
      </trkpt>
      <trkpt lat="45.48441" lon="2.78139">
        <ele>1167.8964</ele>
        <time>2015-08-20T13:57:03Z</time>
      </trkpt>
      <trkpt lat="45.48444" lon="2.78131">
        <ele>1167.8964</ele>
        <time>2015-08-20T13:57:08Z</time>
      </trkpt>
      <trkpt lat="45.4845" lon="2.78098">
        <ele>1164.0863</ele>
        <time>2015-08-20T13:57:33Z</time>
      </trkpt>
      <trkpt lat="45.48429" lon="2.7804">
        <ele>1160.9019</ele>
        <time>2015-08-20T13:58:04Z</time>
      </trkpt>
      <trkpt lat="45.48394" lon="2.77943">
        <ele>1158.7633</ele>
        <time>2015-08-20T13:59:08Z</time>
      </trkpt>
      <trkpt lat="45.48387" lon="2.77931">
        <ele>1157.0482</ele>
        <time>2015-08-20T13:59:25Z</time>
      </trkpt>
      <trkpt lat="45.48381" lon="2.77902">
        <ele>1155.5098</ele>
        <time>2015-08-20T14:00:04Z</time>
      </trkpt>
    </trkseg>
  </trk>
</gpx>